GFSCGP_sfc_temp_009.txt.gz
Temp
80 77 73 79 82 84 83 79 78 78 81 79 77 78 75 78 79 79 78 79 80 81 85 86 86 87 86 85 84 83 82 82 83 84 82 81 83 82 84 82 84 83 82 82
74 72 80 84 84 80 80 78 78 78 81 80 76 76 78 78 77 80 79 79 80 82 83 83 85 86 86 84 83 82 82 82 83 84 83 85 84 84 85 85 83 83 83 82
73 77 80 78 79 77 78 77 77 78 78 77 77 75 73 77 80 80 81 83 83 82 82 83 83 84 85 83 82 82 82 83 83 83 83 81 82 82 83 83 83 83 83 82
75 81 78 77 77 81 76 81 81 78 75 69 79 66 74 77 75 77 80 81 82 82 84 84 84 83 85 84 84 83 82 82 83 82 82 80 82 81 84 83 84 84 82 82
73 74 74 75 78 80 79 82 80 79 77 72 70 68 77 74 73 76 80 82 83 85 85 84 85 85 86 86 84 84 82 82 82 81 82 82 81 84 84 82 80 81 80 81
78 81 82 81 83 82 80 78 75 74 75 64 73 70 74 71 75 80 83 83 84 85 86 86 87 86 85 87 85 84 81 80 81 81 81 80 80 81 80 80 80 82 82 81
73 76 81 83 79 82 81 76 64 62 61 62 71 68 75 83 83 85 85 83 85 86 86 85 84 84 84 84 84 84 81 80 80 81 81 81 81 80 79 79 80 80 80 80
64 62 75 83 81 76 75 78 68 56 59 65 65 64 75 86 90 87 88 88 87 87 88 87 85 85 84 84 83 83 82 80 80 81 81 81 81 83 83 81 82 81 82 81
64 65 77 81 83 83 74 70 83 73 65 67 71 72 79 84 84 85 86 87 85 86 88 87 87 86 85 84 83 83 82 81 82 82 81 80 81 81 81 79 79 81 79 82
72 64 78 80 84 80 79 82 70 70 59 56 66 66 74 80 84 86 82 85 86 87 86 88 88 87 87 87 86 85 84 83 83 83 83 82 82 80 81 79 76 78 79 79
78 72 71 75 75 75 74 72 71 76 71 64 61 68 81 82 85 87 85 86 87 86 86 88 87 88 87 88 87 86 85 84 83 83 83 82 82 79 80 78 74 74 77 77
77 73 65 71 79 81 82 77 76 69 62 68 69 71 86 84 88 89 90 88 88 86 85 87 87 87 88 87 88 87 87 86 86 85 82 81 80 79 76 77 77 77 70 77
73 68 61 65 74 77 73 77 79 78 76 67 65 70 85 82 80 83 83 86 83 83 84 85 86 85 86 87 87 88 87 89 89 86 84 81 78 78 78 75 76 74 74 76
74 71 66 63 67 75 70 73 75 75 69 69 69 75 81 84 80 84 83 82 82 80 81 83 84 84 85 85 84 85 87 89 89 88 84 80 79 79 76 74 77 75 71 73
74 64 68 72 76 76 75 74 75 70 74 70 75 73 82 84 85 86 88 83 79 79 80 81 82 82 82 83 83 84 86 87 88 85 83 80 79 79 79 75 68 66 67 68
71 66 66 65 73 75 72 76 76 75 77 74 79 76 87 89 87 83 83 80 79 79 80 81 82 82 81 82 82 83 83 85 85 83 81 81 79 78 75 72 70 67 66 66
67 65 64 61 71 70 64 73 75 76 79 77 72 80 88 82 81 83 85 82 81 82 82 82 82 82 82 83 83 82 82 84 82 80 80 79 78 76 74 72 71 69 66 66
63 60 60 62 64 53 72 82 82 78 79 80 82 82 83 84 86 84 83 84 84 85 85 83 84 83 83 86 86 84 84 81 81 79 79 79 77 75 74 72 71 69 67 69
70 62 53 56 60 67 71 74 75 75 75 82 78 82 83 82 81 78 78 83 85 83 82 83 85 84 81 82 83 82 81 81 80 79 78 78 77 75 73 72 69 71 68 68
65 62 60 57 53 54 64 68 71 71 69 74 75 77 80 79 78 80 76 81 83 84 85 83 83 82 82 82 83 80 81 80 79 80 79 79 76 75 73 71 69 71 71 69
55 54 56 56 54 64 63 66 70 64 71 72 75 76 76 75 75 74 78 78 80 80 80 82 84 83 82 81 83 81 80 79 81 81 79 76 75 74 74 70 69 69 68 65
58 52 47 53 53 55 65 66 66 68 71 73 73 73 72 73 75 76 77 78 79 79 79 83 81 80 80 80 81 78 76 76 77 77 76 73 72 71 69 67 67 70 68 65
54 57 50 53 54 62 65 62 68 74 72 73 73 75 73 73 73 75 74 75 75 76 76 79 80 76 77 77 78 75 74 74 75 74 72 71 72 70 68 69 67 65 66 69
60 67 60 54 54 58 63 67 69 69 69 71 73 72 74 71 72 73 74 74 74 75 75 77 77 75 72 73 74 72 71 74 73 71 71 71 71 69 70 71 70 67 66 66
56 57 58 59 58 61 63 64 66 67 69 70 71 71 69 70 69 72 71 71 72 72 73 74 75 73 70 72 72 73 73 73 72 72 72 71 72 72 70 66 64 70 67 61
51 51 57 60 58 60 60 63 66 63 64 67 69 68 69 70 69 70 67 69 68 69 72 71 72 71 69 71 70 71 72 73 72 71 72 72 73 72 72 66 59 45 45 44

GFSCGP_sfc_temp_012.txt.gz
Temp
89 82 80 86 90 91 90 87 85 90 92 88 87 87 88 89 91 90 89 89 89 90 94 94 94 94 94 93 90 89 88 88 86 89 89 90 90 90 91 92 89 89 89 89
84 78 88 92 91 89 89 86 86 91 90 89 88 86 90 91 89 91 90 90 90 92 93 92 93 94 94 92 90 89 88 87 87 90 87 91 91 94 93 94 88 89 89 88
80 85 90 88 87 85 87 85 86 86 87 89 88 83 86 92 92 92 93 94 94 92 92 92 92 93 94 92 90 89 87 87 88 88 88 87 87 88 89 90 90 90 89 88
83 91 86 84 83 88 82 92 90 87 83 76 87 74 85 91 89 90 91 92 94 93 94 94 93 92 93 92 92 90 88 87 88 88 89 86 88 89 92 92 93 92 89 89
80 83 82 80 84 90 84 94 89 88 84 83 81 77 83 89 87 90 92 93 94 95 95 93 94 93 94 94 93 92 88 87 88 87 87 89 86 92 92 92 88 86 87 88
85 91 89 87 90 91 92 89 89 88 85 73 81 79 80 86 86 92 95 95 94 96 96 95 95 95 93 95 94 92 88 86 87 87 86 86 87 87 90 88 88 90 90 89
80 83 88 90 85 90 88 83 71 68 70 70 83 79 81 91 95 96 98 97 96 97 96 95 93 93 92 92 92 91 88 85 87 87 86 86 86 86 86 86 88 89 90 90
71 68 82 88 86 83 83 84 74 61 67 72 82 73 82 94 98 100 101 101 99 98 99 97 95 94 92 92 91 91 89 86 87 87 85 86 86 89 89 88 91 90 91 90
74 72 87 88 89 90 83 78 90 80 81 75 80 81 90 95 94 97 98 98 98 98 98 97 96 95 94 92 91 90 89 87 88 88 87 86 86 86 90 89 87 90 89 91
81 70 84 86 90 90 87 90 77 80 65 63 74 77 79 85 90 96 95 97 98 98 98 99 98 97 96 96 94 93 91 89 89 89 88 88 87 87 88 88 85 87 88 86
85 78 78 83 80 80 82 80 82 84 79 69 67 74 90 88 92 94 98 98 101 99 98 99 100 99 98 98 96 95 93 90 90 90 89 89 89 89 87 87 86 85 85 84
85 81 71 76 88 90 88 82 83 74 69 78 76 78 97 96 96 98 99 102 104 102 99 99 100 100 98 97 97 97 96 94 93 93 90 89 89 89 88 85 85 83 81 83
85 76 68 71 81 85 81 85 85 85 83 74 71 75 96 96 95 96 96 99 100 98 98 98 99 97 97 98 97 98 97 98 98 94 92 90 89 88 87 86 85 78 82 77
79 79 72 69 72 81 75 79 83 83 76 75 77 81 88 91 92 96 98 99 99 94 94 95 96 95 95 96 95 95 97 99 99 98 94 90 89 88 87 86 81 80 75 77
81 70 76 78 81 82 81 80 80 78 79 74 80 81 87 90 93 95 99 100 98 93 91 91 93 93 92 93 93 93 95 96 98 96 95 92 90 89 87 86 81 80 76 75
82 70 75 73 80 80 77 81 81 81 81 81 82 81 94 96 96 95 97 98 97 93 92 92 92 92 91 91 91 92 92 94 94 92 92 92 89 85 84 84 80 76 75 74
75 73 70 65 77 77 70 77 81 82 84 83 77 84 92 92 93 94 97 98 97 95 93 92 92 92 92 92 92 91 91 92 91 89 89 89 88 84 81 82 78 75 75 72
72 70 72 68 71 58 78 88 87 83 85 88 87 89 90 92 95 98 100 100 100 97 96 93 96 95 93 96 95 93 91 89 88 87 87 87 86 83 80 77 76 76 76 71
78 72 68 64 64 73 76 79 79 79 79 89 88 89 92 95 96 92 94 95 97 98 98 96 98 95 91 93 93 91 90 88 87 86 86 86 85 83 80 76 73 73 75 71
79 74 70 67 61 58 69 73 77 77 70 89 91 89 91 93 83 90 91 92 94 97 95 93 94 93 91 92 93 90 90 88 87 87 87 86 85 83 79 78 75 72 71 70
67 69 67 66 63 68 70 73 78 63 71 78 92 92 92 89 89 86 88 88 92 93 92 92 90 89 89 91 91 88 89 88 90 90 88 86 85 82 79 77 75 72 71 71
64 64 66 68 61 59 70 73 65 69 78 81 84 89 88 85 84 84 85 85 86 87 89 91 88 87 88 89 89 87 86 88 88 87 86 84 79 78 76 71 70 70 71 74
66 73 68 69 68 67 70 65 71 76 78 81 83 85 84 83 82 83 83 85 86 87 89 90 87 85 85 88 89 86 83 84 84 83 81 75 75 75 72 69 68 69 70 72
71 76 70 65 63 67 69 71 73 76 77 81 84 85 85 82 83 83 83 84 84 85 86 88 86 83 81 83 83 82 81 82 81 76 72 72 70 70 71 71 71 72 71 73
64 67 68 64 63 64 64 68 72 74 76 76 80 79 79 80 80 78 78 80 81 81 83 85 84 82 80 80 80 81 80 80 79 75 75 74 73 74 72 62 62 71 70 62
53 56 68 65 63 63 58 63 68 71 72 74 74 73 77 77 75 74 76 76 77 79 80 80 80 80 80 79 79 79 80 81 79 77 80 82 81 78 76 74 72 45 48 46

GFSCGP_sfc_temp_015.txt.gz
Temp
91 85 81 87 91 92 92 90 87 93 97 92 90 90 93 96 97 95 95 95 95 95 98 99 98 99 98 97 93 91 90 90 91 89 86 86 90 88 95 96 93 90 89 89
87 81 91 94 94 91 91 89 89 94 94 94 91 90 95 95 95 96 96 95 95 97 98 97 97 98 97 95 93 91 90 89 89 90 89 87 89 95 95 95 93 92 92 90
84 88 94 92 90 88 90 88 89 89 92 95 91 84 91 96 97 97 99 99 99 98 97 96 96 96 97 94 93 91 90 90 89 89 91 90 89 92 92 94 92 91 91 91
88 95 91 89 87 91 84 94 93 92 82 79 92 76 87 93 94 95 97 98 99 99 99 99 97 95 97 96 95 93 91 90 90 88 90 86 88 88 93 94 96 94 92 91
84 88 88 85 88 93 87 96 93 92 88 82 86 81 86 93 91 94 97 98 100 101 100 99 99 97 98 98 96 94 91 89 90 89 88 90 87 93 95 95 91 90 89 90
89 97 93 92 94 94 96 92 92 92 89 75 84 80 82 85 92 96 100 100 100 101 102 100 101 100 97 99 97 95 90 88 88 90 88 87 88 89 92 91 90 91 92 90
84 87 94 95 88 93 91 86 74 73 73 73 87 83 82 95 98 99 100 102 102 102 102 100 98 98 97 96 96 95 90 87 88 88 89 88 88 88 88 89 90 90 92 92
76 73 87 92 89 85 86 86 76 64 70 75 86 78 86 99 102 103 104 106 106 104 104 102 100 99 97 96 95 94 91 88 88 89 88 88 88 91 91 90 93 91 93 93
78 77 91 92 93 91 86 81 92 82 84 78 82 87 95 99 99 100 102 103 104 104 103 102 101 100 98 96 94 93 91 89 89 90 89 88 88 88 91 90 89 93 91 95
85 76 88 91 93 92 88 94 81 84 68 67 77 80 82 89 91 97 98 101 103 105 104 104 102 101 100 99 97 96 94 90 90 91 90 90 89 89 89 91 90 89 91 90
88 83 81 88 84 82 84 84 87 86 82 72 70 79 95 92 94 95 98 102 104 104 104 104 104 103 101 100 99 97 95 93 91 92 91 90 90 90 89 90 90 89 86 88
89 84 75 81 91 93 90 85 86 79 72 80 79 81 99 99 99 99 100 103 106 106 105 105 106 104 102 100 100 98 97 95 94 93 91 90 91 90 90 89 90 89 86 88
88 79 71 75 84 89 83 86 88 88 86 76 74 79 99 100 99 100 100 102 103 105 106 105 106 104 103 101 100 101 99 99 99 95 94 92 90 90 89 89 90 88 86 86
83 83 75 72 75 84 79 82 86 86 79 78 79 82 90 94 95 98 99 101 103 104 100 104 104 103 104 101 98 99 101 102 101 99 96 92 90 90 91 90 89 88 86 84
85 73 79 82 84 85 84 83 84 81 82 78 82 83 89 93 95 98 100 101 101 102 101 99 101 101 99 98 97 98 101 100 101 98 97 94 91 91 91 89 89 88 85 83
86 73 78 76 83 83 80 84 85 84 84 84 85 84 97 98 100 99 99 99 99 100 103 100 99 99 99 98 98 98 97 100 99 96 96 95 91 90 89 89 88 86 84 82
78 77 72 68 79 79 72 81 83 85 87 86 79 85 94 93 95 97 99 100 99 100 103 103 99 98 99 98 98 98 96 98 97 95 96 94 91 89 88 88 86 83 82 80
76 74 75 70 73 59 79 90 88 85 87 90 89 90 92 94 97 99 101 101 100 102 103 104 103 100 99 101 101 99 98 94 94 92 92 93 91 90 88 86 85 81 79 76
83 76 70 66 67 73 77 79 80 77 79 91 89 92 95 96 97 95 102 104 103 104 106 107 105 102 99 99 99 97 95 93 92 91 90 91 91 89 88 84 82 78 77 75
80 78 73 70 63 61 75 80 85 84 72 90 90 89 92 95 86 92 101 104 105 105 106 106 103 102 99 98 99 95 93 91 90 91 90 90 90 88 86 83 79 79 78 75
69 70 66 68 66 73 77 81 84 68 72 82 85 85 87 89 95 99 101 103 104 102 102 103 100 98 95 96 98 92 92 90 92 92 91 89 88 87 86 83 79 78 76 74
67 67 68 70 64 61 79 81 74 74 80 84 86 87 87 91 97 95 93 93 96 97 98 98 95 93 94 95 93 90 89 91 92 91 90 88 87 88 83 78 76 75 72 70
69 75 72 70 68 73 77 77 79 81 81 83 86 90 92 93 91 91 90 90 92 92 93 95 93 90 91 91 91 88 88 90 89 87 86 86 82 80 78 76 73 73 71 70
62 81 78 72 71 73 75 79 80 81 81 84 87 89 90 88 88 88 88 90 90 90 89 91 89 88 87 89 89 87 86 87 86 84 78 77 75 74 75 76 74 72 70 70
51 59 73 69 70 72 74 76 78 79 81 79 77 77 79 81 80 81 82 84 87 87 88 87 85 84 83 84 84 85 85 85 82 76 73 73 74 74 71 68 68 71 66 65
52 52 54 58 71 70 68 73 78 75 76 78 76 74 73 78 76 78 79 82 83 83 84 83 83 82 82 82 81 82 84 82 79 76 76 79 76 73 73 69 70 46 49 45

GFSCGP_sfc_temp_018.txt.gz
Temp
90 82 77 84 86 88 88 87 86 89 93 91 80 69 70 83 95 94 93 93 93 93 97 98 97 98 97 93 90 88 87 87 87 86 84 84 84 86 87 88 85 84 86 87
85 77 87 91 90 87 87 85 86 91 90 90 89 77 81 87 94 95 94 94 94 95 96 95 95 97 96 92 89 86 86 86 86 86 84 85 85 86 88 84 84 85 85 84
80 85 91 90 87 85 85 84 85 87 92 93 90 85 87 94 96 97 98 97 97 96 95 93 94 95 95 91 88 86 85 85 85 86 85 83 83 82 83 84 84 84 87 85
85 91 89 87 85 88 80 91 90 89 85 76 89 71 82 89 90 93 96 97 97 97 97 96 95 93 95 92 91 87 86 85 86 85 84 83 82 80 85 86 87 86 86 86
82 86 86 84 86 91 86 93 90 90 84 81 82 76 83 89 86 91 94 97 99 99 99 97 95 95 96 95 91 89 86 85 85 85 84 84 83 85 86 87 85 82 84 87
87 96 92 90 93 93 95 90 89 89 86 73 80 78 78 85 83 89 96 98 99 101 100 98 98 96 94 96 93 90 85 84 84 84 83 83 81 82 85 85 83 84 84 84
83 86 93 95 88 92 90 84 72 70 72 71 85 77 78 89 92 93 85 97 100 101 101 98 96 95 93 92 92 90 85 83 84 85 84 83 84 83 84 86 84 83 82 83
72 71 86 93 88 84 85 84 75 61 67 72 84 76 83 95 95 95 93 101 102 101 103 101 98 96 93 92 91 90 86 83 84 84 84 84 84 86 86 86 86 84 84 85
76 75 92 92 94 91 84 78 89 78 81 75 81 86 94 96 94 94 97 102 102 101 102 101 99 97 94 92 91 89 86 84 85 85 84 84 83 84 86 84 84 86 84 87
84 74 88 91 93 92 87 91 76 78 64 63 75 77 80 88 87 93 91 98 102 104 102 102 101 99 97 96 93 92 89 85 86 86 85 86 85 84 85 84 84 83 85 84
87 81 81 88 83 81 82 80 82 83 79 70 68 76 93 89 91 93 96 99 102 103 102 103 102 101 98 98 94 93 90 87 86 86 86 85 85 86 85 85 85 84 84 83
88 82 74 80 91 93 89 82 82 73 69 77 76 79 98 95 96 98 98 100 102 102 102 104 103 101 98 96 95 93 92 91 88 87 86 85 85 85 85 84 85 85 83 84
89 79 70 73 84 89 84 85 85 84 82 72 71 76 97 92 89 94 97 99 99 100 100 102 104 100 98 97 94 95 93 94 92 88 88 86 86 85 84 84 84 85 84 82
87 82 74 71 74 83 78 83 85 83 75 75 78 81 88 88 89 92 94 96 100 99 98 100 101 99 98 95 92 92 93 95 94 91 89 86 85 85 85 85 84 85 84 82
85 72 79 80 83 84 83 82 83 79 80 75 81 82 88 90 90 93 98 97 97 98 97 98 99 95 93 92 91 92 94 92 94 89 89 87 86 86 86 85 84 84 84 82
86 71 76 75 82 82 80 84 84 83 83 82 84 83 95 97 97 94 91 94 95 96 99 97 96 97 95 93 91 92 92 92 93 89 88 87 85 85 84 84 84 83 83 82
77 75 70 66 78 79 72 80 83 84 86 85 78 85 93 91 91 93 96 96 94 97 98 98 96 96 96 98 93 92 91 93 91 88 88 87 85 84 84 84 83 83 82 82
75 70 72 69 71 59 79 89 88 85 87 90 88 89 91 90 92 94 97 94 91 98 98 97 102 97 95 101 102 96 95 90 89 88 87 87 86 85 84 83 83 83 83 81
82 73 68 65 65 72 78 84 84 81 81 90 88 88 93 95 95 91 98 99 98 98 100 99 103 102 94 96 96 94 93 91 90 88 88 88 88 86 84 83 83 83 82 80
80 76 71 68 61 59 76 87 88 86 71 86 86 86 88 89 79 88 96 100 101 102 102 100 102 102 96 94 98 93 93 90 89 90 89 89 89 87 85 84 82 82 80 77
66 66 64 65 64 70 79 85 88 66 71 83 85 85 86 82 86 89 93 96 98 99 98 100 101 95 93 94 97 90 91 89 90 91 89 88 87 86 86 83 81 77 75 75
62 61 62 66 61 59 83 79 70 77 82 84 84 86 85 88 89 91 92 95 96 97 100 98 95 94 93 93 92 88 86 88 88 88 87 86 85 86 85 80 78 75 74 72
61 69 65 69 69 74 82 79 81 84 82 81 81 86 88 88 90 93 92 92 94 95 95 99 94 89 90 91 89 86 85 86 86 85 84 84 83 81 78 76 74 73 72 70
69 64 66 69 74 76 78 82 83 84 80 80 82 82 82 87 89 89 89 90 90 90 91 91 88 87 85 86 87 85 85 85 84 82 80 78 77 75 75 74 74 72 70 70
56 57 60 71 73 74 77 79 80 80 79 76 76 75 75 73 70 81 80 82 84 83 83 83 83 83 84 83 83 85 84 84 79 77 76 74 73 73 67 60 62 71 66 68
52 53 53 56 57 66 70 76 78 76 76 76 74 72 72 69 66 70 70 74 80 80 80 77 76 77 79 80 81 82 82 79 77 75 75 74 71 71 71 68 63 47 48 46

GFSCGP_sfc_temp_024.txt.gz
Temp
71 64 63 65 67 70 69 66 66 72 79 73 73 73 77 79 79 77 78 79 80 82 86 84 85 86 84 84 82 81 81 80 79 75 74 72 72 74 74 76 77 77 76 77
65 62 68 74 73 72 71 68 67 72 78 71 71 75 79 79 79 79 79 79 80 82 84 84 83 85 82 81 81 81 80 80 80 80 79 76 74 75 76 76 76 77 78 77
63 67 77 75 72 70 69 67 68 68 75 72 71 65 69 77 77 81 82 83 83 82 82 83 85 83 84 80 80 80 80 80 80 79 75 73 73 73 74 74 75 79 79 77
66 75 74 73 71 71 58 75 76 73 66 59 71 54 65 72 71 77 80 81 82 83 85 84 85 84 84 82 82 82 80 79 80 79 79 76 76 73 73 75 75 76 78 77
65 71 71 70 72 75 68 76 73 74 66 60 67 57 62 71 70 73 77 82 83 84 85 84 85 86 85 85 82 82 79 78 79 80 80 79 75 75 73 74 74 74 74 76
72 78 76 75 78 78 80 71 69 66 66 53 64 64 59 65 72 76 81 83 85 85 86 86 87 88 86 85 84 82 80 78 78 79 79 79 77 73 73 71 71 72 75 75
68 72 74 80 69 74 72 59 53 51 53 53 63 60 66 73 78 82 83 84 86 87 86 86 84 85 85 83 82 81 79 79 78 78 78 78 77 75 74 72 72 71 73 70
59 57 70 77 72 69 64 65 55 44 45 51 62 55 68 79 84 85 89 88 88 87 88 87 86 86 86 84 82 81 79 79 79 78 78 78 77 78 77 74 73 75 77 76
53 60 73 79 78 76 65 59 69 53 47 49 56 62 71 77 80 83 85 86 87 88 89 89 88 87 86 84 82 80 79 80 79 80 79 78 77 78 78 73 75 75 76 76
66 53 68 78 76 79 70 71 57 50 49 49 52 56 63 68 73 77 82 85 87 89 90 91 89 88 87 87 83 82 81 80 80 80 80 80 79 79 78 75 75 76 75 76
73 62 63 67 68 67 67 65 56 60 59 54 45 59 68 71 72 74 82 87 89 89 90 90 90 89 88 88 84 82 81 81 80 80 81 80 79 79 79 78 76 76 77 76
69 66 59 65 72 77 75 68 62 59 50 55 63 63 76 76 76 77 80 87 90 90 89 90 91 89 87 86 84 82 81 81 81 81 80 80 79 78 79 79 76 77 77 76
59 57 54 54 61 67 65 71 72 55 54 58 51 57 75 73 74 79 79 83 83 83 82 87 90 88 86 86 85 83 82 81 82 81 80 80 79 78 78 80 80 76 78 75
57 53 58 57 61 64 60 70 71 69 63 60 62 60 66 68 71 73 77 81 84 82 83 89 88 88 86 86 86 84 83 83 82 81 80 79 79 79 79 80 79 78 78 75
48 41 52 60 67 72 69 68 71 67 70 64 68 60 66 70 71 76 80 78 81 82 79 86 86 86 85 85 85 85 84 82 83 81 80 79 80 80 80 79 79 79 78 78
46 41 48 53 66 72 69 72 73 73 73 71 65 62 71 76 71 75 78 83 80 88 91 85 90 89 86 85 85 85 84 82 83 80 80 80 80 79 79 78 78 77 77 76
41 41 43 42 60 68 62 70 70 70 72 72 64 68 71 71 74 74 77 76 77 78 81 81 87 88 88 87 87 85 84 84 82 81 80 80 79 78 78 78 77 76 76 76
46 45 43 43 49 50 67 78 79 70 72 73 73 75 73 77 78 76 76 76 80 80 81 79 87 89 89 90 88 87 86 84 82 81 80 80 79 78 78 78 77 77 77 77
55 50 45 41 43 55 64 68 71 66 68 73 71 73 74 74 73 70 75 74 76 82 81 80 83 87 88 87 87 85 84 84 82 81 80 80 80 78 78 77 76 77 77 77
60 59 51 49 45 45 59 72 76 73 57 69 71 70 72 71 62 64 71 76 76 76 78 80 79 79 79 86 88 85 83 83 82 83 82 81 81 79 78 78 78 78 79 77
47 48 46 48 48 52 64 71 74 60 58 68 69 68 69 66 66 71 72 74 75 78 79 76 79 80 83 83 86 84 83 82 85 85 84 82 81 80 80 79 79 79 75 75
44 42 43 48 46 46 64 66 64 64 63 69 69 67 68 66 67 69 70 70 71 74 79 81 75 75 76 80 85 84 82 85 85 84 82 80 80 81 79 78 77 75 74 73
42 47 45 47 47 56 60 59 64 67 64 63 64 66 68 65 65 66 66 68 69 70 70 71 75 76 73 73 84 83 84 84 82 82 80 78 79 80 78 75 74 73 72 71
50 53 49 50 54 54 54 58 63 64 62 64 64 64 65 63 64 64 66 66 67 68 69 71 71 70 72 71 77 85 84 82 81 79 79 77 78 76 76 75 74 72 70 69
49 52 50 50 53 55 56 57 59 62 65 64 63 62 61 61 59 61 61 62 65 67 68 69 69 71 71 72 74 76 79 82 78 75 75 75 73 72 66 58 64 69 65 67
49 48 48 47 52 49 53 58 64 62 62 63 63 61 61 60 58 59 58 59 61 64 67 67 67 67 69 71 72 75 77 76 73 71 69 67 65 63 61 61 57 51 51 51

GFSCGP_sfc_temp_027.txt.gz
Temp
67 62 55 61 63 66 65 63 63 68 75 70 69 67 72 76 76 75 74 75 75 76 80 82 83 84 83 80 79 79 78 78 78 73 73 71 72 71 72 74 76 75 75 76
60 60 66 70 68 67 66 63 64 67 74 69 67 68 74 75 75 76 76 76 76 77 79 80 82 83 82 80 79 78 78 78 78 79 78 75 72 72 74 74 75 75 75 75
61 63 71 70 66 65 61 61 65 65 68 67 66 61 67 74 76 77 78 80 80 80 80 78 80 82 82 79 79 78 79 79 79 79 76 71 72 72 71 72 73 75 76 76
61 70 70 66 65 66 54 68 70 68 62 55 66 51 61 69 71 74 76 77 79 80 82 82 79 80 81 80 81 80 80 79 79 78 77 78 75 74 71 72 74 75 77 77
61 65 67 65 69 68 65 71 69 67 61 54 60 54 59 69 66 71 75 77 79 81 82 82 81 81 83 82 80 80 79 80 79 78 80 78 77 78 71 71 73 73 73 74
69 72 73 69 73 74 73 66 63 60 56 48 63 58 61 62 69 73 76 79 81 81 83 83 85 84 82 83 81 80 77 78 79 77 78 78 77 72 71 70 70 71 72 72
63 68 69 74 66 67 66 56 47 45 46 50 60 54 66 68 76 79 78 79 82 83 83 83 83 83 82 81 80 79 77 77 78 77 78 77 78 76 74 72 72 70 70 70
54 51 67 70 67 63 60 59 44 39 41 51 56 52 62 78 78 81 84 85 84 84 84 84 84 84 84 82 80 79 77 77 77 77 77 78 79 77 78 74 73 74 73 73
53 55 69 75 73 73 60 57 64 49 42 45 51 59 66 74 75 76 77 82 82 84 84 84 85 85 85 83 81 79 78 78 77 77 78 77 78 78 76 72 74 74 73 75
59 50 63 72 73 71 68 65 54 45 44 44 48 52 56 64 72 71 75 78 82 84 85 86 86 86 86 86 83 82 81 79 79 79 79 78 77 78 77 74 73 73 72 73
55 54 58 65 61 64 60 59 53 55 50 49 43 55 67 68 70 70 73 79 83 83 85 87 88 88 87 87 83 82 81 80 80 79 79 79 78 78 77 76 74 75 72 72
54 47 55 61 66 74 70 66 57 50 49 52 58 56 68 72 75 72 74 77 83 86 86 88 89 88 86 85 84 81 81 80 81 81 80 79 79 78 77 77 74 75 74 73
50 43 44 49 55 60 60 66 67 62 52 58 52 53 68 72 71 74 74 75 76 83 85 87 88 86 85 85 84 82 81 81 82 81 80 79 78 77 77 78 78 74 76 74
50 40 43 45 50 57 56 63 66 64 57 60 60 58 61 67 68 71 73 74 76 77 80 81 81 84 85 85 84 81 81 82 82 81 80 78 78 78 77 79 78 75 76 74
44 35 42 48 54 57 60 62 67 61 65 60 64 59 65 67 68 70 74 74 74 75 79 83 85 83 83 84 83 82 82 81 82 80 79 79 79 79 78 78 78 78 75 75
41 38 41 44 56 59 59 64 66 69 69 65 66 59 68 75 71 69 74 75 75 74 78 82 84 84 83 85 82 83 81 80 81 79 78 79 79 79 78 77 77 76 75 76
38 38 37 35 49 51 51 62 66 68 70 69 62 66 68 68 69 71 72 72 74 76 77 79 85 86 86 86 86 83 82 82 80 79 79 79 78 77 77 77 76 75 75 75
39 37 38 36 41 39 60 71 73 70 71 68 66 69 69 71 76 75 73 74 73 75 76 79 79 80 87 88 87 86 84 81 79 78 78 79 78 77 77 76 76 75 75 74
47 43 36 35 36 47 60 65 67 64 63 69 71 71 71 70 68 68 73 73 74 77 77 81 82 83 81 84 85 84 82 81 79 78 78 78 78 77 77 75 76 76 75 75
47 48 46 39 36 38 50 59 63 64 62 71 70 70 70 68 61 71 70 74 75 76 76 78 76 76 77 83 84 83 81 80 78 79 79 80 79 78 77 77 77 77 77 76
39 41 38 40 40 46 54 57 62 51 62 66 69 70 65 67 70 69 72 70 72 75 74 75 73 75 79 77 82 81 81 80 82 82 81 80 80 79 78 78 78 76 75 75
39 39 38 42 41 37 57 57 50 53 58 66 66 66 66 65 66 68 69 67 68 68 70 70 70 71 71 75 81 80 79 83 83 82 81 79 79 79 79 77 77 75 74 74
38 43 41 46 46 52 55 57 58 58 57 59 65 65 67 65 65 65 65 66 67 68 68 69 68 66 66 67 72 77 81 82 81 81 81 80 79 79 79 76 74 73 73 74
45 48 45 49 51 54 56 59 59 60 58 59 60 62 64 63 63 63 64 65 66 67 68 69 70 70 70 71 69 69 73 76 76 78 79 79 77 77 79 77 75 73 73 73
46 48 48 49 52 56 57 57 58 59 61 61 61 59 58 60 58 59 59 61 63 65 65 66 66 66 66 66 65 66 67 70 72 76 78 78 78 75 72 59 68 73 72 71
49 47 46 45 51 51 52 55 58 57 58 59 59 59 59 59 57 58 58 59 61 63 64 65 65 65 64 61 61 62 61 63 64 70 70 70 67 63 62 63 59 50 56 56

GFSCGP_sfc_temp_030.txt.gz
Temp
63 57 54 58 60 62 61 60 60 65 71 68 68 64 67 72 73 72 71 72 73 74 77 79 80 80 79 78 76 76 75 75 74 72 71 71 73 73 74 74 76 75 76 77
56 57 63 65 64 64 63 59 59 65 71 65 64 67 68 71 72 73 72 72 73 75 76 77 78 80 79 77 76 75 75 75 75 76 75 74 75 73 75 76 76 76 76 76
60 60 68 67 62 61 56 59 60 60 66 64 62 59 62 70 72 75 75 76 76 75 75 76 77 79 80 77 76 76 75 76 76 76 75 72 72 73 73 74 74 75 76 77
58 67 68 62 62 62 50 64 67 66 59 54 62 50 58 65 68 72 73 74 76 76 78 77 78 78 79 78 78 77 76 76 76 76 75 74 75 73 75 74 75 76 76 76
59 61 63 62 64 65 61 69 65 65 58 53 56 52 56 62 62 68 72 75 77 79 79 78 78 79 81 81 79 78 76 76 76 76 76 76 75 76 73 73 74 74 75 76
63 67 69 65 69 68 69 64 58 54 52 47 56 55 52 56 66 69 74 76 78 79 80 81 82 80 80 82 79 78 75 75 76 75 76 75 75 73 72 71 73 73 74 74
60 65 65 69 62 63 63 54 43 42 44 47 55 53 63 65 71 74 74 76 78 80 80 81 80 78 79 78 78 77 75 74 76 75 75 76 76 74 73 73 74 72 72 73
53 49 64 67 64 59 56 54 42 38 39 47 52 50 58 72 73 78 80 81 81 81 82 82 81 81 79 79 78 77 76 74 76 75 75 76 76 77 77 75 75 75 75 75
50 53 66 70 68 70 55 55 58 46 40 43 48 54 65 70 70 73 77 79 79 81 82 82 83 83 82 79 79 77 76 75 76 76 76 76 76 76 76 75 75 76 75 76
54 48 61 69 70 68 63 62 51 43 40 37 45 48 55 60 69 71 70 75 79 82 81 83 84 84 84 84 81 80 78 76 77 77 77 77 77 77 77 75 74 75 75 75
49 51 52 62 60 63 56 55 49 54 46 43 39 50 59 65 67 73 75 76 79 79 81 84 84 85 85 85 82 80 79 77 77 77 77 77 77 77 77 75 75 75 75 74
46 42 49 53 61 69 70 62 53 50 46 44 45 53 65 68 71 70 73 74 76 78 80 83 85 85 85 83 83 80 80 79 79 78 77 77 77 77 77 75 76 75 74 74
48 40 40 47 57 58 56 62 58 62 49 52 49 53 75 66 69 72 70 71 72 74 75 78 81 83 84 83 82 81 81 81 81 79 78 78 77 76 76 76 76 75 74 73
50 38 39 40 43 50 49 58 60 61 56 57 56 57 60 65 66 69 69 70 73 72 73 74 77 81 83 82 81 80 81 82 81 81 78 77 77 77 77 77 77 75 75 73
43 37 39 43 49 52 53 54 57 56 61 56 62 61 64 65 65 70 73 69 72 73 73 72 75 77 78 79 80 80 80 80 81 79 79 78 78 78 77 76 76 76 75 75
40 37 38 40 51 52 50 55 59 60 60 58 63 60 65 71 67 68 70 70 70 71 74 73 75 77 76 79 78 79 79 79 80 78 78 78 77 77 76 76 76 75 75 75
36 36 35 34 45 47 45 55 58 59 62 62 57 63 69 66 67 69 72 72 71 72 72 72 73 78 80 81 81 79 78 80 78 77 77 77 77 76 76 76 75 74 74 75
35 34 35 33 38 34 50 59 63 64 66 65 64 66 69 72 75 75 76 78 73 72 71 72 77 79 81 84 85 82 81 79 77 77 77 77 76 76 76 76 75 75 75 74
43 37 33 33 33 45 52 55 54 49 53 66 68 68 68 71 70 70 70 71 74 74 72 72 76 78 75 77 79 78 78 78 77 77 76 77 77 76 76 75 75 76 75 75
43 45 39 33 33 34 47 56 60 58 46 60 61 69 71 65 60 69 72 72 72 73 72 72 73 74 75 75 78 78 77 77 76 77 77 78 77 76 76 76 76 77 77 76
31 35 33 35 35 42 52 55 59 49 52 56 56 57 65 66 75 76 70 71 71 72 73 72 72 71 70 73 77 77 77 76 78 79 79 78 78 77 77 76 77 77 76 76
31 31 30 33 33 34 56 56 52 53 56 58 58 58 60 65 66 68 69 69 69 68 70 69 66 65 66 71 73 72 72 77 77 77 77 77 77 78 79 76 76 76 74 74
33 39 36 40 40 49 54 54 56 57 58 59 58 58 61 65 65 66 65 66 67 68 68 69 69 70 70 68 71 72 69 76 76 74 75 76 77 78 78 76 74 73 74 75
41 44 41 43 49 52 54 56 57 59 59 60 59 59 62 62 63 63 65 65 66 66 67 70 70 68 67 68 68 67 69 73 74 73 72 74 74 75 77 78 77 76 74 74
39 40 40 42 50 52 54 55 55 58 60 59 60 59 58 60 59 61 61 63 64 64 65 65 65 63 62 63 63 64 65 68 70 70 71 72 74 74 75 69 70 74 76 74
40 39 36 38 49 50 51 54 57 58 58 58 58 59 59 60 59 61 60 61 63 62 63 64 65 65 63 62 61 61 63 65 67 68 69 68 69 67 63 64 61 51 54 53

GFSCGP_sfc_temp_033.txt.gz
Temp
74 68 64 70 72 73 72 72 72 75 81 78 79 80 80 81 82 80 79 79 80 81 85 85 85 86 85 84 82 81 80 80 81 81 81 81 82 83 85 86 85 84 85 84
67 64 73 75 72 71 71 70 71 75 80 78 79 78 82 80 80 82 80 80 81 83 83 83 84 85 85 83 82 81 80 80 80 82 82 83 83 86 86 87 85 85 85 84
67 71 76 71 69 67 69 69 71 71 77 79 77 76 76 80 82 83 83 84 83 83 83 82 83 84 85 83 82 81 81 81 81 82 82 82 83 83 83 85 86 86 86 85
71 77 72 69 68 71 65 74 73 71 70 66 78 66 72 79 77 79 82 82 84 84 85 85 84 83 85 85 84 83 82 81 82 82 82 80 82 82 85 86 87 87 86 86
68 70 68 66 70 73 69 76 73 73 71 71 71 67 75 74 74 77 81 83 84 86 86 85 85 86 86 86 85 84 82 81 82 81 82 82 81 85 87 86 84 83 85 85
75 77 76 73 75 75 78 72 73 71 71 59 69 68 71 75 77 81 83 84 84 86 87 87 87 87 86 87 86 84 81 80 81 81 81 80 81 82 84 83 84 85 87 87
70 70 76 79 71 75 74 70 60 57 58 58 74 67 71 81 83 87 85 84 86 86 87 87 86 85 85 85 85 84 81 79 81 81 81 81 81 81 81 82 84 84 85 86
61 58 71 77 74 69 69 71 62 52 57 63 68 63 72 84 88 88 91 91 89 87 89 88 88 87 85 85 85 84 82 79 80 81 80 81 81 84 85 84 86 86 87 87
63 64 74 76 78 77 69 65 76 66 62 61 68 73 78 82 85 87 88 89 88 89 89 89 89 89 87 86 85 83 82 80 81 82 81 80 81 82 84 84 83 86 85 88
68 61 73 75 79 79 73 77 62 66 53 53 63 63 70 75 80 83 84 87 89 90 90 90 90 90 90 88 87 85 84 82 82 82 82 82 82 82 83 83 82 84 86 85
64 65 64 73 70 69 68 67 70 71 66 59 58 66 77 78 80 83 87 89 90 90 90 91 92 92 91 91 89 87 85 83 83 83 83 82 83 83 83 83 83 83 84 83
58 64 62 65 77 80 76 71 71 63 58 64 66 67 82 83 85 84 88 89 91 92 91 91 92 92 91 90 90 88 87 86 85 84 82 82 83 83 83 83 83 83 82 83
59 56 57 61 69 72 70 74 73 74 72 61 60 66 85 81 81 85 85 86 86 87 88 89 92 91 91 91 89 90 88 89 89 85 85 83 83 83 82 82 83 83 83 83
58 55 56 58 62 61 60 67 72 72 65 64 65 70 77 80 79 83 85 86 88 85 87 87 88 88 90 89 87 87 88 91 90 88 86 83 83 83 84 83 83 83 82 82
57 50 53 55 57 58 58 60 63 64 69 65 69 70 75 78 81 84 87 86 84 85 87 86 85 85 85 86 86 86 88 87 89 85 85 84 83 84 83 83 82 83 83 83
55 50 51 51 57 59 56 61 62 63 65 66 69 69 82 82 84 83 86 86 85 84 87 88 87 85 85 85 85 85 86 86 87 83 83 83 83 82 82 82 82 81 81 82
49 50 49 46 54 55 52 60 63 65 68 69 63 71 79 79 80 80 82 85 85 85 86 86 88 87 87 87 86 85 85 86 84 82 83 83 82 81 81 82 81 80 80 82
47 46 50 47 50 41 62 68 68 67 71 74 73 74 78 80 83 85 86 87 87 88 89 89 91 89 87 91 93 89 88 83 82 82 82 82 81 80 81 81 80 80 81 81
51 48 46 44 47 54 58 64 64 62 66 71 72 76 79 83 83 82 87 87 86 88 89 88 92 90 87 88 88 87 87 84 83 82 82 82 80 79 81 80 80 81 81 81
51 49 46 46 42 41 58 68 70 65 56 66 66 69 73 80 74 81 89 88 88 89 90 88 89 87 87 85 90 86 85 84 82 83 83 83 82 81 81 81 80 81 81 81
41 42 39 42 42 51 63 65 66 54 61 66 68 68 67 66 76 84 87 87 86 87 85 85 85 85 84 85 87 84 85 83 85 86 85 84 83 81 81 81 81 82 80 81
42 38 38 42 40 38 65 67 58 64 66 67 68 69 67 68 70 73 76 83 82 82 81 81 80 80 80 83 84 83 82 85 85 85 84 83 82 83 84 80 79 80 80 79
39 46 44 46 48 59 63 62 70 68 64 67 67 70 69 67 68 72 77 79 81 80 80 82 81 78 78 80 83 81 80 83 83 83 82 82 82 82 83 80 78 79 80 81
48 52 45 47 53 56 60 64 66 67 67 68 69 68 67 64 70 75 77 77 77 73 75 80 79 76 74 76 78 79 80 82 83 81 81 82 81 81 82 82 76 79 82 81
48 50 47 46 51 52 56 61 65 68 68 68 66 65 62 68 71 73 74 73 75 74 75 76 75 74 73 74 74 76 78 81 81 81 81 81 83 80 82 83 83 84 84 83
47 45 42 42 53 53 56 62 67 63 66 66 60 61 64 66 67 71 71 71 72 72 73 73 73 72 72 73 73 74 75 78 80 78 81 83 85 84 84 78 70 53 52 55

GFSCGP_sfc_temp_036.txt.gz
Temp
82 75 72 78 82 83 84 82 80 86 91 87 86 88 91 93 92 91 90 89 89 90 93 93 93 94 93 92 89 87 86 86 87 87 87 88 89 91 92 93 91 90 90 90
77 71 81 84 84 81 80 77 80 86 90 86 86 86 92 92 91 92 90 90 90 92 92 91 92 93 93 90 89 87 86 85 86 88 88 91 90 93 93 94 92 91 91 90
75 79 84 81 79 76 77 77 79 80 85 87 85 82 86 91 93 93 95 94 94 92 92 91 91 92 93 90 88 87 86 86 86 88 89 88 90 90 91 92 92 92 91 91
79 86 80 79 76 79 74 83 81 81 79 73 87 73 84 90 89 91 94 93 95 92 94 93 92 91 93 91 91 89 87 86 86 86 88 85 87 87 91 92 94 94 91 92
75 78 78 75 77 82 77 86 81 80 78 77 79 75 81 90 86 90 93 95 95 96 96 94 93 93 94 94 92 90 87 86 87 86 87 87 86 91 93 94 91 89 90 91
81 88 85 82 84 84 85 81 80 79 78 68 77 77 78 85 86 91 95 96 95 96 97 96 96 96 94 95 94 92 87 85 86 86 85 86 86 88 91 90 91 92 93 93
76 79 84 86 79 83 81 76 66 64 66 65 81 76 79 89 94 94 95 97 97 96 97 96 95 94 94 93 93 92 88 85 86 86 86 86 86 86 87 89 90 91 93 94
68 66 79 84 81 77 76 77 70 58 65 70 79 71 80 92 96 97 98 101 100 98 98 98 96 95 93 93 93 91 89 85 86 86 86 86 86 90 90 90 93 92 94 95
71 71 84 84 85 84 76 71 84 76 77 72 79 81 88 92 93 95 96 99 100 98 98 97 98 97 95 93 93 91 90 87 87 88 87 86 86 87 90 89 90 93 92 96
77 69 81 82 85 86 83 84 72 75 61 60 72 74 77 84 86 91 94 97 100 101 99 100 99 99 98 97 95 93 91 89 89 89 88 88 88 88 89 90 89 90 93 91
77 76 76 81 76 76 77 76 78 80 76 67 66 75 89 86 89 90 94 98 101 101 101 101 101 101 100 100 97 95 93 91 90 90 90 89 89 89 88 89 89 89 90 91
75 75 70 74 84 87 84 78 78 70 66 73 74 79 92 92 93 94 96 98 101 102 103 104 104 103 101 99 99 97 96 94 92 92 89 89 89 89 89 88 89 89 88 90
72 69 64 70 78 82 78 81 82 81 80 69 68 76 91 91 90 91 93 96 97 99 99 101 103 102 102 101 98 99 97 97 97 93 91 90 89 89 89 88 89 89 88 89
63 70 68 66 70 77 72 77 80 79 72 73 75 78 84 87 88 90 93 95 96 96 96 99 99 100 102 101 99 97 98 99 99 97 93 91 89 90 90 89 88 89 88 88
66 62 63 70 67 68 74 76 78 75 77 72 78 78 83 87 89 91 93 94 94 95 96 97 97 97 96 97 97 96 97 97 98 95 94 92 90 90 90 89 88 89 88 88
65 59 61 60 66 66 65 70 73 77 79 78 79 79 91 91 91 91 91 91 91 93 96 99 99 97 96 95 94 95 94 96 95 94 93 92 89 88 88 88 87 87 87 87
57 59 57 57 66 64 59 67 71 73 77 77 72 79 86 86 86 87 90 92 92 94 95 97 99 100 99 99 97 95 94 95 93 91 91 90 89 87 87 88 87 86 85 87
55 55 58 57 60 48 69 80 77 73 76 79 79 81 84 85 88 90 93 93 93 95 97 98 102 103 102 103 106 101 99 92 91 89 89 89 88 87 87 86 85 85 86 86
61 57 54 51 54 63 67 70 70 70 72 81 80 82 85 88 88 86 93 96 95 96 98 100 104 104 101 101 101 99 97 93 90 89 88 89 89 87 87 85 85 86 86 86
61 58 54 55 48 48 66 76 78 76 63 80 78 79 79 82 79 85 94 97 98 99 99 98 100 102 101 97 99 97 96 94 89 90 89 89 89 88 86 86 85 86 86 86
51 51 48 51 50 59 71 73 74 58 64 77 78 77 77 76 80 82 85 86 89 90 92 96 95 94 96 97 97 94 94 93 93 92 91 90 89 87 87 86 86 86 86 87
50 48 49 50 48 46 72 72 63 71 75 76 75 77 76 78 80 81 82 82 85 86 91 96 91 92 94 93 92 91 89 93 92 91 90 89 88 89 90 86 86 85 85 83
46 54 53 55 55 66 70 69 72 72 70 72 73 78 77 77 78 80 81 82 84 88 91 94 93 91 90 90 90 88 88 90 90 89 88 88 87 87 88 85 84 86 84 86
55 60 53 54 59 61 66 69 71 72 71 74 76 77 78 76 78 78 80 84 86 89 88 91 90 88 86 88 89 90 88 88 87 86 86 87 86 85 87 90 89 88 88 87
56 58 54 54 59 61 64 67 68 68 71 72 74 75 76 77 74 76 77 83 86 86 86 87 85 84 82 84 85 88 88 88 87 87 88 87 90 86 87 88 90 90 90 88
55 52 50 49 59 59 60 66 69 68 69 71 73 72 75 76 70 72 76 81 83 82 82 81 81 81 81 81 81 82 84 88 88 87 89 91 93 92 90 90 88 57 56 51

GFSCGP_sfc_temp_039.txt.gz
Temp
87 79 75 81 85 86 87 86 84 90 93 91 90 90 94 98 98 96 94 94 93 94 96 98 97 97 97 95 92 90 89 89 90 90 89 90 91 92 94 96 95 93 92 92
81 74 84 87 87 86 85 84 85 91 95 92 90 89 95 98 96 96 95 95 95 96 96 95 96 97 96 94 92 89 89 88 89 90 90 92 92 95 95 95 94 93 92 91
78 82 87 86 85 82 83 82 84 85 91 93 89 85 90 97 98 98 99 99 98 96 96 94 94 95 96 93 92 89 88 88 88 89 91 91 92 92 93 93 94 93 93 93
82 89 85 83 82 85 78 88 87 86 85 78 90 74 85 92 93 95 97 98 99 98 98 96 95 95 96 95 94 91 89 88 88 87 89 86 88 88 92 93 95 95 93 93
79 84 83 80 83 87 82 91 86 85 83 82 83 79 85 92 89 93 97 98 100 100 100 98 96 96 97 97 95 93 89 87 88 87 87 89 86 92 94 95 91 90 89 92
85 93 90 87 89 89 90 86 86 85 82 71 79 80 81 88 91 95 98 100 100 102 100 100 99 98 97 98 96 94 89 86 87 87 86 87 86 88 91 91 93 94 94 93
81 84 89 91 85 89 86 81 69 67 69 68 82 79 82 93 97 98 98 100 102 102 101 100 98 97 96 96 96 95 89 86 87 88 87 86 87 86 89 91 92 92 95 95
72 70 83 89 86 82 81 81 71 60 65 71 82 75 82 96 100 103 103 104 104 104 104 102 100 98 96 96 95 94 90 87 87 87 87 86 88 91 91 91 94 94 96 96
75 74 89 89 90 89 81 76 87 79 82 77 80 84 92 97 97 99 100 102 103 103 103 102 102 100 98 97 95 93 91 88 88 89 88 87 87 88 91 89 91 95 92 98
81 73 86 87 90 89 86 89 75 78 65 66 77 79 80 87 91 96 97 99 102 105 103 103 103 102 101 100 99 97 94 90 90 90 90 90 89 88 90 91 89 90 94 93
83 80 80 87 81 79 81 80 82 83 80 71 70 78 93 91 93 93 97 100 102 104 104 104 104 105 103 102 100 98 96 93 91 91 91 90 90 90 90 91 91 91 92 93
83 80 72 80 88 90 87 82 82 73 70 79 80 81 97 99 99 98 97 101 104 105 105 105 106 105 105 102 102 100 99 96 95 93 91 90 91 91 90 89 91 91 90 91
77 73 67 73 83 86 82 85 86 85 84 74 73 78 95 95 95 98 98 101 102 104 105 106 107 105 105 105 103 103 101 100 99 95 94 93 91 91 90 90 90 90 90 90
67 71 70 70 75 82 76 82 84 84 77 77 79 82 87 89 91 93 97 100 101 100 100 104 106 106 106 105 103 102 103 103 102 100 96 93 92 92 92 91 89 90 90 89
72 64 72 77 81 82 82 80 82 80 82 76 83 82 87 90 91 94 97 97 97 97 99 100 101 102 103 103 102 101 102 103 103 99 98 95 92 92 92 90 90 90 90 90
72 62 69 70 79 75 73 81 82 83 83 83 85 85 95 95 96 94 95 95 94 95 98 100 101 101 101 101 102 102 100 101 101 98 97 95 93 91 90 90 89 89 88 89
61 64 64 61 72 71 65 75 79 83 86 85 78 86 95 93 91 92 93 94 94 96 98 99 101 102 103 103 101 100 100 100 98 95 96 94 92 90 89 90 89 87 87 88
59 59 62 61 65 54 74 85 84 80 83 88 87 89 91 91 93 94 96 94 94 96 98 100 104 104 104 108 110 103 102 96 95 94 93 93 92 91 89 88 88 87 88 87
66 60 57 56 61 68 74 79 79 76 76 85 84 86 88 91 91 89 95 96 96 97 100 102 104 106 106 107 107 105 103 100 95 93 92 92 93 91 89 87 87 88 88 87
66 63 58 58 54 55 71 79 83 82 69 86 86 86 87 89 81 86 95 95 94 96 97 96 102 104 104 104 107 104 103 100 95 93 93 92 92 90 89 88 87 88 88 88
55 57 53 55 54 64 76 79 83 62 67 85 86 85 85 81 84 85 88 88 91 92 92 94 94 95 96 99 103 99 99 99 100 98 96 93 91 90 89 88 88 87 87 88
53 52 53 56 52 50 77 77 68 71 76 76 77 79 78 81 82 84 86 86 87 88 91 93 92 94 98 97 96 95 93 97 99 97 94 92 90 92 93 87 87 87 86 85
52 58 57 60 60 70 75 73 79 79 73 74 75 78 79 79 80 83 82 83 85 87 90 93 95 96 96 95 95 91 91 95 95 93 91 91 90 90 90 87 86 87 86 88
62 66 59 59 64 67 71 75 76 76 74 76 77 77 78 77 79 81 82 82 83 86 90 95 94 93 93 92 92 91 93 93 92 90 90 90 89 88 89 92 90 89 90 89
59 60 58 58 63 65 67 70 72 73 75 75 76 76 75 77 78 79 80 80 80 85 89 90 91 91 90 89 90 92 92 91 90 89 89 89 91 88 89 89 92 91 91 87
58 55 54 54 63 63 65 71 73 71 71 73 73 73 76 77 76 78 79 78 79 84 89 86 86 86 85 86 85 86 88 90 89 88 91 92 94 93 91 91 89 57 60 50

GFSCGP_sfc_temp_042.txt.gz
Temp
85 79 75 79 83 84 84 82 81 87 92 88 87 88 91 94 92 91 88 91 90 91 94 95 96 97 96 93 89 86 86 85 85 84 84 84 84 86 87 88 90 86 88 87
80 74 83 86 85 83 82 81 82 88 93 89 88 86 93 93 94 93 90 92 92 92 93 93 94 95 95 90 88 85 85 84 85 85 84 85 85 87 88 88 88 90 88 88
75 80 86 84 82 80 80 79 81 84 88 87 88 82 88 93 93 95 95 96 95 93 93 92 91 93 94 90 87 85 84 84 84 85 85 85 86 86 86 86 87 88 88 87
79 87 83 81 80 82 75 86 86 85 83 75 89 72 83 90 90 92 95 93 95 95 95 93 93 92 93 91 89 86 84 84 85 84 84 82 82 82 85 85 86 87 86 87
77 80 81 78 80 85 80 89 85 85 82 81 82 76 82 89 87 90 94 92 97 97 97 94 93 93 94 93 90 87 84 83 84 83 83 84 82 85 86 86 84 84 84 87
82 90 87 86 87 88 90 86 85 84 81 70 78 79 79 85 87 92 95 97 98 99 98 96 95 94 94 95 91 88 83 82 83 83 82 83 81 83 84 84 85 86 86 86
78 81 88 91 84 87 86 79 68 66 67 65 80 77 80 91 94 96 95 97 99 100 99 97 93 93 92 92 90 88 84 81 83 83 82 82 83 82 82 84 85 85 86 87
70 68 81 89 85 81 81 79 69 57 63 68 79 72 79 93 99 102 101 101 102 101 102 99 95 94 91 92 90 89 85 82 83 84 82 82 83 85 85 85 87 86 88 88
72 71 87 89 90 88 80 74 85 75 77 71 76 80 89 94 95 98 100 101 100 101 102 99 97 96 93 92 90 88 85 83 84 84 84 83 82 84 84 83 86 88 86 91
78 70 84 87 91 89 85 88 73 76 61 61 72 75 77 83 89 94 96 99 101 101 101 100 99 97 95 95 94 91 89 85 85 85 85 85 84 84 84 84 84 85 87 87
81 76 77 85 80 79 81 79 80 80 76 66 66 75 93 86 90 92 96 99 101 102 101 102 101 100 98 97 95 93 91 87 86 86 85 85 85 84 84 85 85 86 86 87
81 76 69 75 89 90 86 81 81 71 67 75 75 77 96 96 96 97 97 99 102 102 102 102 103 102 99 96 96 95 93 92 89 87 86 85 86 86 85 84 86 86 85 86
68 70 64 69 80 86 81 83 83 83 81 70 70 76 94 95 95 97 96 99 98 100 101 102 103 101 100 99 96 97 95 95 94 89 88 87 86 86 85 85 85 86 85 86
67 66 66 66 72 82 76 80 83 81 74 74 77 79 86 90 92 95 95 97 99 98 98 100 101 100 101 98 95 95 96 97 96 94 90 87 87 87 87 86 85 86 86 84
71 62 69 74 80 82 81 79 81 78 81 74 80 82 84 88 90 94 97 98 98 97 99 99 100 96 95 95 94 95 98 96 97 93 91 88 87 88 87 86 86 86 86 86
68 60 67 67 76 78 75 82 81 82 82 83 84 84 91 93 93 93 93 93 92 94 97 99 100 100 99 97 95 95 95 97 96 92 92 90 87 86 86 86 86 85 85 85
59 60 60 58 70 72 68 77 81 82 85 84 79 86 91 90 90 91 92 93 93 95 96 97 99 99 99 100 98 96 95 96 94 91 91 90 88 86 86 86 85 84 84 85
57 57 59 57 63 53 73 84 84 82 86 89 89 90 93 90 93 95 96 94 93 96 97 98 100 99 98 104 105 99 99 92 91 90 89 90 88 87 86 85 84 84 85 84
64 59 55 55 58 66 72 79 79 77 79 90 89 91 94 92 93 90 95 97 96 96 96 96 99 100 98 100 99 96 96 93 91 90 89 89 89 88 86 85 84 85 85 84
64 63 56 57 53 53 69 82 88 87 70 84 87 87 88 89 80 81 86 90 90 91 92 91 93 94 93 92 98 95 95 93 90 90 90 90 88 88 87 86 84 85 85 85
54 54 52 54 53 63 72 78 84 66 61 76 79 84 87 82 80 82 86 86 88 88 89 91 91 89 90 91 94 89 91 92 93 92 91 89 88 87 87 86 85 85 84 85
53 50 50 54 52 50 72 74 63 68 73 74 75 76 75 78 81 82 83 83 84 84 86 89 89 89 91 90 91 88 86 91 95 91 90 88 87 89 91 85 85 85 84 82
51 55 53 57 58 69 71 71 74 77 73 73 73 76 75 76 76 78 78 80 82 83 82 86 89 88 89 89 91 87 86 91 92 92 88 87 87 87 86 85 84 85 83 83
56 62 56 58 63 66 70 74 75 75 74 75 76 76 76 74 75 75 78 79 80 81 80 83 84 88 88 94 93 90 89 89 89 88 88 87 86 85 86 89 87 86 85 83
55 57 54 55 61 65 68 70 72 72 73 74 75 75 74 74 74 75 75 76 78 79 79 81 82 86 87 87 88 90 91 89 88 88 88 87 88 84 85 86 86 86 86 83
56 50 46 47 56 55 57 64 69 70 72 73 73 73 75 75 73 74 74 75 77 77 77 79 85 85 85 85 85 85 85 87 88 86 88 88 89 88 87 86 84 51 54 51

GFSCGP_sfc_temp_045.txt.gz
Temp
75 66 63 69 73 74 74 72 72 79 86 80 79 78 78 80 81 73 72 82 82 84 87 88 89 90 88 85 82 84 80 79 80 77 77 74 75 75 77 79 80 80 80 80
69 63 73 78 77 75 74 71 73 79 85 82 78 77 82 81 75 74 75 70 82 84 86 87 88 89 87 83 83 81 80 79 80 80 80 75 76 76 78 79 79 80 80 80
66 70 79 78 75 73 72 70 71 72 82 86 80 75 80 82 77 75 72 73 85 84 85 85 87 87 86 82 82 80 80 79 80 79 79 76 76 76 75 76 77 79 80 80
71 78 76 74 73 75 66 78 78 77 74 62 77 58 69 80 76 74 74 77 83 85 87 86 87 86 86 83 83 82 80 79 80 79 80 79 80 77 74 77 77 78 80 80
69 73 72 71 74 78 71 80 77 76 71 70 72 65 71 77 76 76 75 75 79 87 86 86 86 88 88 86 83 82 81 80 81 80 81 79 76 74 75 76 77 76 77 79
74 83 79 76 81 81 82 77 74 74 70 60 67 69 69 73 75 77 78 80 82 88 88 88 89 89 88 86 84 81 80 79 80 80 77 79 75 75 73 74 74 74 78 79
71 74 80 82 74 79 77 66 55 55 56 55 65 62 66 80 83 84 84 83 84 87 86 88 86 86 87 84 83 81 79 79 80 80 80 76 78 75 75 74 78 74 76 79
59 58 73 81 75 70 71 68 58 47 50 56 65 59 68 82 85 92 92 88 87 84 86 88 88 87 87 86 83 82 79 79 80 79 79 81 77 80 80 76 76 78 79 81
59 60 79 81 82 79 70 64 70 55 57 52 58 65 76 83 83 84 89 91 87 84 88 89 89 88 87 86 84 82 80 80 80 80 80 79 80 78 80 81 76 77 77 81
67 57 74 80 82 81 75 75 61 63 47 48 59 62 66 74 79 82 82 89 91 92 91 89 89 89 88 89 86 85 82 80 80 80 81 80 80 81 79 78 77 78 79 79
55 61 65 74 71 70 71 67 69 62 57 48 48 60 75 78 80 82 82 84 92 92 92 90 89 90 89 90 88 85 83 81 80 81 81 81 80 80 81 78 79 79 79 79
55 53 57 63 76 82 77 72 68 61 53 57 55 62 78 79 85 86 87 87 89 93 93 91 90 91 89 89 88 86 85 82 82 82 81 81 81 81 80 81 77 81 79 82
52 47 48 58 66 74 73 75 74 65 60 55 56 61 82 80 84 87 84 89 84 90 91 92 91 90 89 89 89 88 87 84 84 83 82 81 81 81 80 81 82 79 82 81
55 49 48 50 60 65 66 74 75 70 61 60 64 61 74 77 78 79 81 83 83 85 90 92 92 91 91 90 89 89 88 89 86 84 82 81 81 82 82 82 82 82 82 82
49 45 54 60 66 69 70 73 75 70 69 63 66 65 72 71 76 78 80 82 84 82 89 91 92 92 91 89 89 90 90 90 90 85 84 83 83 83 83 83 82 82 82 82
47 45 52 54 66 69 69 75 77 75 74 72 70 69 76 78 78 79 79 81 79 80 83 85 86 91 91 91 89 90 90 90 90 88 84 85 84 84 83 83 82 82 81 82
44 48 45 45 61 65 56 68 75 76 77 76 68 71 76 74 77 78 79 80 80 82 83 83 84 84 84 90 92 90 90 91 90 88 87 86 85 83 83 83 82 82 82 82
46 48 45 44 55 43 61 74 76 77 78 79 77 78 77 77 76 77 77 80 81 81 80 80 81 81 82 84 91 93 91 88 88 88 86 87 84 83 83 83 82 83 83 82
54 49 42 41 49 55 64 68 68 68 61 69 69 79 83 80 77 73 79 79 77 76 77 77 79 79 78 80 80 84 89 88 84 86 84 86 84 83 83 82 83 84 84 83
55 55 47 47 44 46 55 68 71 73 51 68 68 71 81 77 63 64 74 77 77 78 79 78 79 79 79 78 81 80 82 87 86 85 83 82 85 84 83 83 84 84 84 84
47 48 44 47 44 48 55 65 70 53 52 66 67 67 67 63 66 68 74 74 75 75 75 77 78 77 78 79 78 78 80 80 81 83 81 82 83 83 84 84 84 84 83 83
44 43 43 44 44 37 60 64 55 59 65 66 66 66 65 66 68 69 70 70 71 71 74 76 75 76 78 79 77 75 77 79 81 81 79 78 78 83 82 80 82 82 82 81
38 43 35 45 44 58 63 61 67 67 64 62 63 65 65 65 65 66 66 67 69 70 71 74 73 75 76 77 76 75 77 78 78 79 78 78 80 81 80 78 78 79 80 81
48 53 43 45 50 54 59 58 59 59 61 65 65 65 65 62 65 64 65 66 67 68 69 72 73 74 74 78 79 77 77 79 78 78 77 76 77 76 77 78 80 81 80 79
46 48 41 43 49 49 55 55 56 57 59 62 64 66 64 63 62 62 62 63 64 67 70 72 71 73 75 77 77 77 77 77 76 77 77 77 76 77 76 73 66 77 81 77
47 41 36 35 43 43 45 52 54 52 54 57 60 61 64 65 62 62 61 61 62 64 66 69 70 71 76 75 75 75 76 76 76 76 77 76 76 75 76 72 62 50 50 50

GFSCGP_sfc_temp_048.txt.gz
Temp
66 60 56 62 64 66 66 65 65 71 79 75 75 73 74 75 74 72 72 73 74 75 80 82 83 85 84 80 81 81 81 79 77 74 72 71 73 73 74 75 79 77 77 77
59 58 66 70 69 68 68 64 66 72 79 77 76 71 75 76 74 74 73 75 76 77 78 81 82 84 84 79 80 80 80 79 78 79 78 73 72 72 74 75 76 79 78 77
61 64 73 70 68 66 66 63 65 66 73 79 75 70 71 77 77 77 78 79 81 80 78 80 81 82 84 80 80 79 79 78 79 79 75 72 73 72 73 73 74 77 78 78
64 72 70 68 67 69 59 72 72 71 66 58 75 59 68 72 72 76 76 77 79 83 81 81 82 82 84 82 81 80 79 79 79 77 77 77 77 74 72 73 73 76 78 77
63 68 67 65 68 73 66 74 71 71 63 57 67 60 68 72 67 70 74 75 78 82 84 82 83 85 85 84 82 80 78 78 78 77 79 78 76 75 72 73 74 73 76 78
68 76 73 71 75 75 77 70 68 64 60 54 62 64 63 66 68 70 75 74 77 81 84 86 86 86 84 84 82 80 77 77 78 78 78 77 76 71 73 71 72 72 74 75
65 67 75 77 69 73 71 59 51 46 49 49 61 57 66 73 74 73 75 74 78 83 85 85 84 85 82 81 81 80 78 76 77 78 77 77 77 75 73 72 73 71 72 72
54 52 67 76 69 66 66 62 47 41 44 51 59 54 66 77 81 80 80 79 81 80 85 85 85 86 84 81 81 80 79 78 77 78 77 78 76 77 78 77 72 75 75 76
34 55 71 75 77 73 64 60 64 50 46 49 54 60 71 76 75 79 78 81 79 81 84 86 86 86 86 82 80 80 79 80 79 79 79 77 77 79 79 74 74 73 73 77
43 35 64 73 75 75 70 69 54 49 45 40 50 54 61 68 72 74 78 78 80 83 86 86 86 86 87 85 83 81 80 80 80 80 80 79 79 77 78 77 73 75 74 76
44 39 50 65 63 65 60 64 58 59 50 50 43 57 66 69 71 73 77 81 82 85 86 85 87 87 88 87 84 81 80 80 79 80 80 80 79 79 76 77 77 78 76 75
46 41 36 52 69 71 73 62 62 57 48 48 48 58 77 75 77 78 82 83 85 86 86 86 88 88 87 86 84 82 81 80 80 80 80 79 79 79 78 77 77 78 78 77
42 39 32 45 53 62 60 68 63 58 55 50 55 60 73 73 73 75 81 81 86 86 85 86 88 87 86 86 84 82 82 80 80 80 79 79 78 78 77 78 79 78 78 79
45 39 35 32 43 52 55 65 65 66 56 55 58 61 69 76 74 77 76 78 84 87 86 88 87 87 86 86 85 83 83 82 81 80 79 78 78 78 78 78 79 79 78 78
40 33 38 43 48 53 54 64 67 62 63 60 63 61 68 69 74 71 73 76 82 86 87 87 86 86 86 85 86 85 84 83 82 80 79 78 79 80 79 78 78 79 79 78
40 33 37 38 53 56 56 66 67 68 70 64 64 62 70 73 73 71 72 77 80 84 87 87 87 87 86 86 85 86 85 84 83 80 79 80 79 79 79 79 78 78 78 79
35 35 32 35 53 59 52 57 64 67 69 67 62 66 69 69 68 68 72 76 74 77 86 87 88 88 88 87 87 86 85 86 84 81 81 80 80 79 79 80 79 78 78 79
38 35 34 36 46 42 54 60 62 60 61 61 61 65 69 68 69 70 71 73 74 76 76 76 77 78 82 88 89 88 87 85 84 83 81 81 80 80 80 79 79 79 80 79
45 41 32 37 43 52 53 54 55 52 54 61 60 68 71 72 71 68 71 72 70 70 71 72 75 76 77 79 81 88 86 85 84 83 83 82 82 80 80 79 79 81 80 80
44 44 39 40 39 39 46 56 64 64 45 61 62 61 65 70 56 58 66 70 70 71 71 71 72 74 74 74 75 80 84 84 83 84 84 84 83 82 80 80 81 82 82 81
34 39 41 43 40 42 48 53 66 45 48 60 62 62 60 57 57 61 66 68 69 70 71 71 70 70 70 72 75 75 76 79 84 83 84 83 84 82 83 82 82 82 81 82
34 34 33 35 37 34 51 51 43 48 55 57 58 61 59 59 62 63 65 66 67 68 70 71 70 70 70 71 74 73 75 77 77 79 77 77 80 83 83 81 81 81 81 80
33 37 35 36 37 50 52 50 56 55 53 52 54 57 59 60 60 62 61 63 64 66 68 71 70 70 72 75 71 71 71 74 76 76 75 75 76 77 78 78 79 78 79 80
44 47 38 35 44 44 49 55 54 53 52 53 55 56 59 58 60 59 61 61 62 64 65 67 69 69 69 71 74 73 73 74 74 73 74 73 73 72 74 79 79 79 78 78
41 43 38 39 41 44 51 51 50 52 53 53 55 56 58 58 59 58 58 59 60 61 63 65 65 67 67 71 71 73 73 73 72 73 73 73 73 71 72 63 64 74 74 75
41 37 35 35 44 43 43 48 51 50 50 52 51 53 57 57 57 60 58 58 59 60 61 63 63 64 66 69 69 71 72 72 71 70 71 73 73 72 69 62 59 49 48 47

GFSCGP_sfc_temp_051.txt.gz
Temp
61 54 53 59 62 61 61 61 62 67 74 72 69 69 67 70 70 68 69 71 71 73 77 79 80 82 81 79 78 78 77 77 75 72 72 70 71 71 72 73 76 75 75 75
55 53 62 65 64 63 61 58 59 67 73 72 71 69 70 69 69 70 69 70 72 73 75 78 79 81 79 78 78 77 78 77 76 78 78 72 71 71 73 74 75 76 76 75
55 58 68 65 62 60 60 58 60 62 68 73 70 67 71 69 71 72 72 73 74 74 74 76 78 79 81 77 77 77 78 79 78 78 72 70 71 71 71 71 73 74 76 76
59 68 66 63 61 62 52 66 68 66 60 58 69 51 66 68 67 70 71 72 73 75 77 77 78 78 80 79 79 79 79 79 79 77 76 73 73 73 70 71 72 73 76 76
59 62 63 61 63 66 61 67 65 65 58 54 65 53 59 68 63 67 70 73 75 77 78 77 78 80 81 82 79 79 78 78 79 76 78 76 72 73 69 70 72 72 73 75
61 71 68 67 70 70 70 64 61 58 55 52 60 56 54 63 66 69 73 75 77 78 80 80 81 82 81 83 80 79 77 77 78 77 77 76 75 69 69 69 70 70 72 75
52 62 68 70 64 67 66 55 44 43 43 48 57 54 63 69 74 74 74 76 79 80 81 80 79 80 81 81 79 78 76 76 77 76 76 76 75 72 73 70 70 68 70 70
34 45 62 70 66 61 59 57 43 37 38 50 56 48 59 73 78 80 80 80 80 79 79 83 81 81 81 82 79 79 76 76 77 76 76 76 76 75 75 74 72 72 73 75
36 38 52 59 71 69 60 56 61 47 43 46 52 54 65 71 74 77 79 79 79 79 80 82 84 82 82 81 79 79 77 77 77 77 77 76 76 76 76 74 73 73 72 75
42 34 46 54 64 70 65 65 51 47 40 38 46 51 61 63 67 73 75 77 78 80 82 84 85 84 83 82 81 81 79 78 78 78 78 77 77 77 77 72 72 71 72 73
42 40 41 50 55 60 57 60 56 56 49 48 39 51 61 67 70 72 76 79 78 79 81 83 84 86 86 83 82 81 80 79 78 78 78 78 77 77 77 75 74 74 72 73
43 38 35 39 55 55 51 58 55 55 47 45 52 56 67 70 70 76 77 78 79 82 82 84 85 86 85 85 81 81 81 80 80 79 79 78 77 77 76 76 75 75 73 71
43 37 31 40 47 54 51 58 64 57 50 49 52 55 70 69 70 72 76 79 80 81 82 84 86 85 84 85 81 81 81 80 81 80 79 78 77 76 75 76 76 76 75 73
46 38 34 31 38 43 39 45 48 52 55 49 56 59 64 69 68 70 70 75 80 81 82 83 85 84 84 85 82 81 80 81 81 80 79 77 77 77 77 77 77 76 76 75
41 33 36 37 40 43 42 43 47 47 58 57 62 56 61 67 68 69 70 71 77 82 82 84 84 84 84 83 83 81 81 80 81 79 78 77 77 78 77 77 76 77 76 77
40 32 33 34 43 43 42 47 51 53 58 60 58 60 64 63 63 64 65 68 73 81 83 84 84 85 84 84 83 82 81 80 80 78 77 78 77 77 76 76 76 75 76 76
35 33 32 28 42 48 43 50 53 56 54 53 56 55 63 59 62 62 63 65 73 81 83 83 84 86 86 85 85 82 81 82 79 78 78 78 77 76 76 76 75 75 75 76
35 34 34 27 36 39 48 54 57 54 54 55 56 59 63 62 64 65 66 64 65 68 77 84 87 87 87 87 86 85 82 81 79 78 78 78 77 76 77 76 76 75 76 75
41 36 32 30 36 46 50 50 45 47 48 54 55 58 64 66 67 63 66 67 66 66 68 68 76 79 80 84 84 83 81 81 79 78 78 78 78 77 77 76 76 77 77 76
40 38 34 33 31 36 44 50 54 55 41 51 52 54 58 62 52 54 62 65 66 68 68 67 70 73 77 76 84 82 81 80 79 80 79 79 79 78 77 77 77 79 78 78
33 34 30 32 32 40 48 51 55 39 38 50 51 51 53 53 53 58 62 63 66 66 68 69 70 68 69 71 83 82 82 81 82 81 80 79 80 80 80 79 79 79 78 79
33 32 33 34 35 34 50 50 41 44 50 50 49 51 51 54 58 59 60 61 63 64 66 68 68 69 70 70 75 72 73 74 77 77 78 77 79 80 81 79 79 79 78 77
32 34 33 34 36 47 48 47 50 52 50 49 48 51 52 54 55 57 57 58 61 62 64 67 68 68 70 72 72 72 71 72 73 72 73 73 78 81 82 79 79 77 78 78
40 44 35 36 43 44 49 50 49 50 50 52 52 51 52 52 55 55 56 57 58 60 61 64 66 66 66 69 70 70 72 72 73 72 72 72 71 71 73 76 78 78 77 77
38 40 36 39 44 45 50 51 50 49 51 52 53 53 52 54 54 54 54 55 56 58 60 61 61 63 64 66 68 69 70 71 70 71 71 72 72 70 70 65 64 73 75 73
39 36 34 35 44 42 44 50 51 49 48 50 51 52 54 55 55 56 55 54 55 56 58 60 61 62 62 65 66 68 69 69 69 68 68 68 69 71 69 63 58 49 47 46

GFSCGP_sfc_temp_054.txt.gz
Temp
57 51 51 56 59 58 58 57 59 65 71 67 65 64 64 67 67 66 67 68 69 71 75 77 78 79 78 76 74 73 72 71 72 70 70 70 71 72 73 74 75 75 76 76
51 49 58 61 60 58 58 54 56 64 69 67 65 65 66 66 66 67 67 68 70 72 73 75 76 78 78 75 74 73 73 71 73 74 72 72 71 72 74 74 75 76 76 76
50 55 64 61 57 56 55 52 55 58 65 68 63 61 62 67 68 70 71 71 72 72 72 74 75 77 78 76 74 74 74 73 74 73 72 70 72 72 72 73 74 75 76 77
55 62 62 59 57 57 48 62 63 61 57 51 64 48 59 63 63 67 68 70 71 72 74 75 76 76 77 77 77 75 74 74 74 74 73 72 72 72 71 72 73 75 76 76
53 58 59 56 60 62 57 63 61 61 55 51 58 52 56 64 59 63 68 70 72 74 75 75 76 78 79 78 77 76 74 74 74 74 74 74 73 72 71 72 72 73 74 76
58 65 63 64 66 65 65 59 57 54 51 46 56 58 53 57 63 65 69 71 73 74 76 77 78 79 79 80 78 76 73 73 74 74 74 73 73 70 70 70 71 72 74 75
49 56 63 65 58 62 62 52 40 38 39 46 56 53 58 65 70 71 70 72 74 76 76 77 76 77 78 78 76 76 74 72 74 74 74 74 74 71 71 71 71 70 71 73
34 42 56 61 59 55 57 53 40 33 37 48 52 47 57 73 73 76 76 76 76 77 77 78 78 78 78 78 77 76 74 74 74 74 74 74 74 74 74 72 72 73 73 74
32 38 52 56 59 59 54 51 57 43 40 41 53 53 66 67 71 73 76 76 76 77 78 79 80 79 79 79 78 76 75 75 75 75 74 74 74 74 74 72 73 73 72 76
38 31 45 52 57 60 56 62 48 44 37 34 44 48 56 62 65 68 70 73 76 78 79 81 82 81 81 82 81 78 78 76 76 76 76 76 75 75 75 73 72 72 72 74
36 36 40 47 48 52 54 54 51 54 47 42 39 49 60 64 69 72 70 74 76 78 79 80 82 84 82 83 82 79 78 77 77 76 76 76 76 76 75 74 74 73 73 73
39 39 33 37 50 53 49 46 49 50 44 47 44 52 67 67 69 74 75 75 77 79 80 81 83 83 82 81 81 79 79 78 78 77 76 76 76 76 75 74 74 74 73 73
38 37 27 37 40 49 46 45 42 41 47 49 49 49 68 67 67 69 70 73 75 77 79 80 83 82 82 80 80 80 79 79 80 78 77 77 76 75 75 75 75 74 74 74
44 33 32 29 35 40 39 44 45 40 36 48 54 56 63 67 66 67 68 69 71 72 75 78 81 81 83 81 79 79 79 80 80 79 78 76 76 76 76 76 76 74 74 74
36 29 32 36 40 40 41 42 43 40 43 40 53 55 60 65 68 65 67 67 68 71 73 76 79 79 81 80 78 78 79 79 80 78 77 76 76 76 76 75 76 76 75 75
35 30 37 33 39 40 40 47 48 49 48 48 50 52 58 59 61 60 60 62 63 66 74 77 79 81 82 81 79 78 78 79 79 77 76 77 76 76 75 75 74 74 75 75
34 34 34 28 39 40 38 47 52 49 47 49 50 53 57 57 58 57 58 60 61 63 68 75 80 82 82 83 81 78 78 79 77 76 76 76 75 75 75 75 74 73 73 75
32 32 34 29 39 29 43 55 55 49 48 47 49 52 60 59 60 61 61 60 61 63 64 74 84 84 83 85 85 80 79 77 76 75 75 75 75 74 75 74 74 74 74 74
36 34 32 29 31 37 49 48 45 42 45 49 46 49 55 61 63 61 63 63 62 63 65 66 79 82 80 82 81 79 78 77 76 75 75 76 76 75 75 74 74 75 75 75
37 38 32 33 29 34 40 47 53 51 40 51 48 48 50 59 50 53 61 64 65 65 66 67 73 76 78 77 81 78 77 76 75 76 76 77 77 76 75 75 75 76 76 76
32 33 29 30 32 36 43 46 54 42 39 48 48 48 48 49 51 60 63 64 66 66 66 69 70 69 72 78 81 76 76 76 78 78 78 77 77 76 77 76 77 76 76 77
32 31 32 33 32 33 44 48 41 44 47 48 47 48 48 51 54 57 59 61 63 64 65 67 70 70 70 73 78 75 74 74 75 76 76 76 77 79 79 76 76 77 76 75
32 35 32 33 34 42 45 43 47 48 46 46 46 49 49 51 53 55 56 59 63 64 65 67 67 68 70 72 74 72 72 73 74 74 74 74 76 77 78 76 76 76 76 76
38 41 35 35 40 43 45 49 51 50 47 49 50 50 50 49 52 54 55 58 61 63 63 65 64 64 64 68 70 71 73 74 74 72 73 74 74 74 76 78 79 77 77 76
37 38 34 35 42 44 46 49 51 50 51 50 51 52 51 53 53 53 54 55 58 61 62 62 62 63 63 65 68 69 70 72 72 72 73 73 73 72 73 73 71 77 78 74
41 36 34 34 43 43 44 48 51 49 49 50 49 50 53 55 54 55 53 54 55 59 61 60 61 60 62 64 65 67 69 70 70 70 71 69 71 73 71 66 62 49 49 47

GFSCGP_sfc_temp_057.txt.gz
Temp
69 64 60 66 68 70 69 67 70 75 79 78 76 76 73 74 75 73 73 74 75 76 81 82 83 84 84 83 81 80 80 80 80 80 81 82 83 84 85 86 85 85 85 85
62 59 69 70 68 66 67 64 68 75 77 76 75 75 77 74 74 75 74 75 76 78 79 80 82 83 83 82 81 80 79 79 80 82 82 84 83 85 87 86 85 86 85 85
61 65 69 66 64 63 65 64 65 68 75 77 74 72 74 75 76 77 77 78 79 78 78 79 80 82 83 82 80 80 80 80 80 81 82 81 82 83 84 84 85 86 85 86
63 70 66 65 64 66 61 69 68 67 66 64 75 63 71 76 71 74 76 77 79 79 80 81 81 81 83 83 82 81 80 80 81 80 81 80 82 82 85 85 86 86 85 86
62 64 63 62 64 68 64 71 68 68 64 65 68 64 72 76 71 73 76 78 79 81 81 81 82 83 85 85 83 82 80 80 81 80 81 82 82 85 85 85 83 84 84 85
63 73 71 69 71 70 72 68 68 68 66 55 64 65 68 72 73 76 79 80 80 81 82 82 83 84 84 86 84 83 80 79 80 80 80 80 81 82 82 83 84 85 87 86
56 63 70 74 67 70 68 64 54 51 53 53 69 63 67 78 82 82 80 80 82 82 82 82 81 82 82 83 83 83 80 78 80 80 81 81 81 81 80 81 84 84 86 86
50 52 63 71 68 65 64 64 57 46 51 57 67 59 67 80 85 85 87 86 85 83 84 83 83 83 82 83 83 82 80 79 79 80 80 81 81 84 84 84 86 85 87 87
46 48 58 61 63 70 64 59 70 60 59 57 65 67 75 80 82 86 86 85 83 83 84 84 84 84 84 84 83 82 81 80 80 81 81 80 81 81 83 83 83 86 84 87
48 43 55 57 62 66 67 72 58 60 48 48 59 62 65 73 77 82 84 84 85 85 85 86 85 85 86 86 86 84 83 81 82 82 82 82 82 81 83 82 81 83 84 83
50 45 51 55 57 61 61 61 64 65 61 53 53 61 77 76 79 81 83 86 88 86 86 86 87 87 87 87 87 86 84 82 82 82 82 82 83 83 82 82 82 83 83 83
49 46 41 48 59 59 57 59 65 56 54 60 60 62 80 82 84 86 88 87 89 88 87 88 88 88 88 87 88 86 86 85 84 84 82 82 82 83 82 82 82 83 82 83
49 41 38 47 56 57 55 54 58 63 62 57 54 59 81 80 79 82 84 86 85 86 87 88 89 88 88 88 87 88 87 88 88 85 84 83 83 82 82 82 83 82 82 83
50 43 41 41 44 48 44 50 52 53 57 58 61 65 73 77 78 82 82 83 85 84 85 86 87 87 88 86 85 86 87 89 88 87 85 83 83 83 83 83 82 82 82 82
47 39 43 45 46 46 45 46 50 49 56 55 63 64 72 77 79 82 84 78 79 81 83 84 85 85 85 85 84 85 87 86 88 84 85 83 83 83 83 82 82 82 82 83
45 40 42 40 47 47 43 48 50 53 54 55 58 60 71 74 73 73 71 71 74 76 79 83 85 86 85 86 83 84 84 85 86 83 83 83 82 82 81 81 81 81 81 82
41 39 39 37 46 46 42 49 53 56 55 58 56 66 65 67 66 66 67 68 69 71 74 76 80 86 86 87 84 83 83 85 83 82 83 82 81 80 80 81 81 80 81 81
38 36 40 36 41 32 54 61 63 55 53 55 56 57 62 68 67 69 69 67 67 69 71 73 78 81 88 91 91 87 86 82 82 81 81 82 81 80 81 80 80 80 81 81
48 39 37 34 35 42 51 51 53 53 49 54 52 56 59 64 70 70 68 68 68 69 71 74 77 79 85 89 89 85 84 83 82 81 81 81 82 81 81 80 80 81 80 80
44 44 37 36 29 33 38 47 53 56 47 54 54 55 57 68 65 64 64 65 66 70 71 72 79 82 88 88 90 85 83 83 81 82 82 82 82 81 80 80 80 81 82 82
32 34 32 34 30 38 41 44 52 40 46 53 55 55 57 58 60 62 63 62 67 68 70 77 81 86 86 88 87 82 83 82 84 85 84 82 82 81 82 81 82 81 81 83
34 32 33 34 30 29 43 43 43 49 55 52 54 57 56 59 60 60 61 62 64 66 69 73 77 79 85 86 84 81 80 84 84 84 83 82 82 84 84 81 81 81 81 80
33 36 35 36 35 42 45 43 49 55 53 51 52 57 59 57 56 59 59 61 63 64 66 71 73 72 76 81 84 81 81 82 82 82 82 81 82 82 84 81 80 81 81 83
37 40 35 34 40 42 45 48 53 55 55 53 54 55 57 55 57 56 58 59 61 63 63 67 69 69 70 73 76 77 80 82 81 80 81 82 81 81 83 84 84 84 84 82
37 39 35 37 42 43 44 47 50 54 55 54 54 55 55 56 56 57 57 57 59 60 62 63 63 64 65 71 73 76 77 81 81 81 82 81 83 81 82 84 84 84 86 82
40 39 35 35 43 44 42 46 49 50 52 54 53 52 55 56 56 58 57 57 58 58 61 61 62 62 63 68 70 71 73 77 78 79 81 77 84 79 85 84 76 50 51 49

GFSCGP_sfc_temp_060.txt.gz
Temp
78 72 69 76 79 81 77 80 78 83 86 84 83 84 83 85 86 84 83 84 84 85 88 90 90 91 91 90 88 87 86 86 87 87 88 89 90 91 92 94 92 90 91 90
72 67 78 81 80 76 76 74 75 83 86 81 84 83 88 85 85 86 84 85 85 86 87 88 89 91 91 89 88 86 86 85 85 88 89 91 91 93 94 94 91 92 91 90
70 75 80 77 74 71 73 73 75 77 83 80 82 80 84 87 87 87 88 88 88 87 87 86 87 89 90 88 87 86 85 85 85 88 89 88 90 90 90 91 92 92 92 91
73 80 73 74 70 74 70 79 77 75 74 70 83 70 80 86 83 85 87 87 89 88 89 89 88 88 90 90 90 87 86 85 86 86 87 85 87 88 92 93 95 94 92 92
69 71 72 69 72 77 72 81 77 75 73 74 76 72 79 87 82 84 87 88 90 90 90 90 89 90 92 91 90 89 86 85 86 85 86 87 86 92 94 94 90 90 90 91
72 79 77 76 78 77 80 75 75 74 73 63 72 74 75 80 84 88 89 91 90 92 91 91 92 92 91 92 91 90 86 84 85 85 84 85 86 88 91 89 90 92 94 93
69 70 76 79 73 78 75 71 61 59 61 61 76 72 76 87 91 92 92 91 92 93 92 91 90 90 90 90 90 89 86 83 85 85 85 85 85 86 87 87 90 91 93 94
61 60 72 77 74 71 71 72 64 53 60 65 75 67 75 88 92 96 96 96 95 94 95 93 91 91 90 90 89 89 87 84 85 85 85 85 86 89 90 89 92 92 94 94
59 59 71 71 78 77 72 66 77 70 73 69 74 76 85 89 89 91 92 95 95 95 95 94 93 92 91 90 90 89 87 85 86 87 86 85 86 86 90 90 89 93 92 95
60 52 68 69 70 73 72 79 65 68 56 55 67 70 72 78 83 88 90 92 95 97 96 96 94 93 92 93 92 90 89 86 87 88 88 88 87 87 88 89 88 89 92 90
61 57 61 64 64 66 68 67 69 72 69 60 60 69 85 83 85 86 90 94 97 96 96 96 96 96 95 94 93 91 90 88 88 89 89 89 89 89 88 88 88 88 89 90
61 58 52 58 71 71 68 67 70 62 60 67 68 71 89 88 90 91 92 95 98 99 99 98 98 97 95 94 94 93 92 91 90 91 89 88 89 89 89 87 88 88 87 89
59 54 47 53 62 68 63 67 70 70 72 64 61 67 88 88 86 91 91 94 96 97 99 99 100 97 96 95 93 94 94 94 94 91 90 90 89 89 89 88 88 88 87 87
55 55 50 49 53 57 52 59 63 65 61 64 68 71 79 83 84 87 89 92 95 95 95 97 97 97 96 94 93 94 95 97 96 94 92 90 89 90 90 89 88 88 88 87
56 48 52 54 56 56 55 55 57 57 62 60 69 70 78 82 85 87 91 90 88 89 93 94 95 95 94 93 93 92 94 95 97 94 92 91 90 90 90 89 88 88 88 88
55 46 51 48 54 56 53 58 58 59 60 62 65 68 84 86 84 82 85 82 84 87 88 91 94 94 94 93 92 92 92 94 95 93 92 91 88 88 88 88 87 87 87 87
47 48 47 43 54 54 48 56 59 61 63 64 61 70 80 80 79 79 78 80 81 82 84 86 89 93 95 95 94 92 92 94 92 90 90 90 88 86 86 87 86 86 86 87
43 44 46 44 49 38 58 70 69 65 66 69 69 73 77 75 80 77 77 76 77 79 81 83 87 89 92 99 100 95 94 91 90 89 88 88 87 86 86 86 86 85 86 86
50 42 42 40 44 52 56 50 50 47 61 68 66 70 72 74 77 77 75 75 75 77 79 82 86 88 88 91 96 95 93 91 89 88 87 88 88 86 86 85 85 86 86 86
51 49 38 41 32 34 42 48 53 57 52 65 64 66 67 72 66 75 70 71 74 77 78 80 83 86 88 88 94 96 92 90 88 88 88 88 88 87 86 86 85 86 86 87
36 36 35 38 35 44 52 49 50 40 48 61 63 64 66 70 69 67 65 68 72 75 77 79 84 87 88 91 92 94 91 90 90 90 90 89 88 87 87 86 86 86 86 88
38 36 37 39 36 32 51 50 38 43 53 57 58 62 62 66 64 63 62 65 67 68 74 75 81 87 93 94 92 92 87 91 90 90 89 88 87 89 89 86 85 86 85 84
37 42 38 42 44 47 48 46 50 50 50 54 54 59 61 63 61 59 60 63 64 66 68 70 72 76 87 91 92 87 87 89 88 88 87 86 86 86 89 85 84 86 85 88
35 40 38 36 43 43 46 49 50 51 52 56 57 57 58 59 60 59 60 61 61 61 62 65 69 69 71 78 84 88 88 88 87 86 85 86 85 85 88 90 89 89 90 88
35 37 34 35 40 43 45 47 49 50 53 54 57 56 56 57 58 58 57 58 58 59 61 61 62 65 68 71 73 77 84 86 86 86 87 87 89 86 87 89 90 92 93 87
40 38 35 34 41 42 42 46 49 48 49 50 50 51 53 54 54 56 56 57 57 57 60 60 61 61 63 67 70 71 74 83 86 86 88 89 91 89 91 90 86 51 54 51

GFSCGP_sfc_temp_063.txt.gz
Temp
80 75 74 80 83 84 86 85 83 89 85 85 82 80 65 91 94 89 88 88 89 90 93 94 95 96 95 93 91 89 89 89 89 89 89 91 92 93 91 92 94 92 93 92
79 73 82 86 86 83 83 80 82 89 92 83 82 80 83 91 92 91 89 89 89 91 91 91 93 94 94 91 90 89 88 88 87 90 90 92 93 95 96 96 93 93 93 92
75 80 84 83 81 79 80 79 80 82 89 90 83 76 82 78 92 93 93 93 93 91 91 91 91 93 94 91 89 88 87 87 87 89 91 91 93 94 93 92 93 93 93 93
79 85 80 80 78 81 75 84 82 82 81 75 87 69 64 74 86 90 92 92 93 92 93 92 92 92 93 92 92 90 88 87 87 88 88 86 89 89 93 94 95 94 93 93
75 78 78 76 78 83 76 85 83 81 79 79 80 74 75 82 77 88 91 92 95 94 94 92 92 92 94 94 92 91 88 87 87 86 88 89 87 92 94 96 91 93 91 93
77 87 83 81 84 83 84 81 80 81 78 67 76 78 78 78 80 90 93 94 95 96 96 95 95 94 94 95 94 92 87 85 87 86 85 87 86 89 92 92 92 93 94 93
74 76 82 83 77 83 80 76 64 62 64 64 79 76 80 89 88 89 94 95 96 97 96 95 94 93 93 93 93 93 88 84 86 87 86 86 87 87 89 90 92 91 95 96
66 65 76 82 77 75 76 76 67 56 62 68 78 71 79 93 96 91 89 95 99 98 99 97 95 94 93 94 93 92 89 85 86 87 85 85 87 91 91 91 94 94 96 97
66 65 79 79 83 81 75 70 81 73 77 72 78 81 89 93 93 92 78 94 93 98 99 98 97 96 95 94 93 91 90 87 87 88 87 86 86 87 90 90 91 94 93 98
68 59 74 75 78 79 77 83 69 71 58 58 72 75 77 83 88 92 94 96 96 98 100 100 99 97 97 96 95 94 93 89 88 89 89 89 87 87 89 90 90 90 93 93
68 64 64 74 69 68 72 70 73 76 72 62 63 73 91 87 89 90 94 96 99 100 101 101 101 100 99 98 96 95 93 91 89 90 89 89 89 89 89 90 91 90 92 92
69 64 58 64 76 78 76 73 74 65 62 71 70 74 94 94 94 94 96 97 100 101 102 103 103 101 100 98 97 96 95 93 92 91 89 89 90 90 90 89 90 91 89 91
66 58 51 57 66 72 69 73 74 74 74 66 65 71 93 92 91 94 94 96 98 100 101 102 103 101 100 99 97 97 96 96 96 92 92 91 91 90 90 89 90 90 89 89
61 58 55 53 58 64 62 66 71 72 65 66 69 75 83 86 87 91 94 96 98 99 100 102 102 101 100 99 97 96 97 98 97 95 94 91 90 91 91 91 89 90 89 89
60 51 56 60 62 62 61 62 67 66 68 62 71 72 80 86 88 90 93 94 95 94 97 100 102 101 99 98 96 96 97 98 98 95 95 92 91 91 91 90 90 90 90 89
63 50 54 49 56 61 57 61 63 64 67 67 67 68 83 84 84 91 89 91 88 91 94 96 99 100 100 98 97 96 96 98 97 94 94 93 90 89 89 89 89 88 88 89
55 46 46 43 54 57 51 59 62 64 68 68 63 71 80 80 80 82 88 86 86 89 91 92 94 98 101 100 98 97 95 97 95 94 93 92 90 88 88 89 88 87 87 89
51 46 45 40 49 36 58 71 70 66 69 73 72 74 78 79 81 79 84 82 83 85 87 88 92 94 96 103 104 100 98 93 93 92 93 91 90 88 88 88 87 87 88 87
60 53 39 36 42 51 58 58 56 57 61 74 73 75 79 81 83 80 83 80 80 82 84 86 90 92 92 95 99 100 98 94 93 92 91 92 91 89 88 87 87 88 88 87
58 56 43 44 36 35 53 56 63 62 55 66 76 74 75 77 69 76 76 77 80 82 83 84 86 89 91 91 95 97 98 95 91 93 92 92 91 90 88 87 87 88 89 89
41 41 40 42 38 47 59 60 62 44 47 55 63 63 70 70 69 71 74 74 76 78 79 79 81 86 88 91 93 91 95 95 95 94 94 92 91 89 89 88 88 88 88 89
39 38 39 42 39 35 58 59 50 52 56 58 61 63 60 65 67 68 71 71 72 73 75 76 75 77 88 94 93 90 88 95 94 93 92 90 89 92 92 87 87 87 87 85
39 42 40 44 46 55 54 51 57 58 55 53 58 59 60 61 64 65 66 69 69 70 72 71 69 72 73 80 93 89 89 93 92 91 89 89 89 89 90 87 86 87 86 89
41 42 39 40 53 47 45 51 51 51 52 55 60 60 58 58 61 58 60 64 67 69 69 67 65 65 65 69 75 77 92 93 91 88 88 89 88 87 89 91 90 89 90 89
36 35 35 38 42 42 43 46 47 49 52 53 55 55 54 56 56 56 56 58 64 64 67 64 62 62 63 64 66 71 75 83 89 88 89 89 89 87 88 90 92 92 93 89
40 37 34 34 40 40 42 46 47 47 49 50 52 51 54 54 53 55 55 57 59 61 62 60 60 61 62 62 63 64 67 69 78 83 88 91 92 89 90 91 86 53 60 52

GFSCGP_sfc_temp_069.txt.gz
Temp
73 61 58 64 68 71 71 69 68 75 82 77 75 64 66 69 72 70 69 76 77 79 83 86 90 87 84 82 81 78 77 79 77 75 75 75 75 76 76 79 80 80 79 76
65 60 70 76 75 72 71 68 67 75 82 73 67 63 67 68 70 70 64 75 78 80 83 86 88 86 83 81 81 77 79 78 77 76 76 77 77 77 79 79 77 80 80 77
62 69 78 75 72 70 69 64 67 68 77 74 65 59 62 71 73 71 69 70 79 80 83 86 86 85 82 80 79 78 78 78 78 78 75 76 77 76 76 76 78 78 81 80
67 75 75 72 70 71 58 74 76 75 67 56 71 55 58 63 66 69 69 68 71 80 84 86 85 84 82 81 82 79 78 78 77 79 76 74 77 77 76 80 78 79 81 81
65 71 70 70 72 75 68 76 73 72 64 57 67 56 56 66 61 66 70 73 72 75 84 84 85 85 84 83 82 80 77 79 80 78 79 75 74 77 78 80 81 77 78 80
69 78 73 72 79 78 79 72 69 65 59 50 59 58 51 60 65 65 73 75 73 77 82 86 87 86 84 83 83 81 77 78 78 77 75 75 75 75 79 79 76 79 78 79
65 68 74 78 68 74 71 55 46 44 47 48 60 57 61 67 72 69 71 72 77 76 82 86 84 85 84 82 81 80 79 76 78 77 77 75 75 75 75 75 79 81 77 77
50 52 66 74 68 62 62 58 48 40 43 49 61 52 62 74 76 75 74 75 76 70 72 80 85 86 85 82 82 81 79 78 78 78 78 75 75 77 75 77 77 83 82 81
48 52 70 74 75 71 62 55 62 53 59 51 56 63 73 78 75 73 73 75 71 72 73 72 78 86 85 84 82 81 79 79 78 78 78 77 75 77 76 77 78 79 79 81
54 44 61 69 72 72 66 66 52 52 42 40 52 56 58 68 72 73 74 72 69 70 69 72 71 75 83 87 84 83 80 79 79 80 79 79 78 77 75 77 77 78 79 80
53 48 51 61 57 58 60 56 54 53 50 44 45 53 69 72 73 73 76 71 70 70 70 70 70 70 71 75 84 84 81 79 79 80 80 80 79 79 75 77 77 77 79 78
56 47 41 50 63 67 64 57 54 45 47 50 49 54 78 77 79 74 78 76 74 75 73 70 71 72 70 73 86 86 84 80 80 80 81 80 80 79 80 75 75 77 77 77
54 44 37 43 51 58 55 60 58 56 52 50 44 53 76 74 73 75 72 71 75 77 79 73 73 74 71 75 83 87 86 82 82 82 80 80 80 79 79 80 75 78 77 79
58 44 39 35 44 52 50 55 58 53 44 47 51 56 68 67 69 71 73 74 74 77 78 75 76 73 73 71 73 89 88 87 84 82 81 80 80 80 80 81 81 77 81 77
50 39 44 48 53 55 53 54 55 51 53 44 53 56 64 66 68 70 72 73 71 72 74 71 70 70 71 72 72 74 89 88 87 83 82 81 81 82 81 81 79 81 80 82
50 39 44 43 51 53 51 55 56 56 57 57 57 57 64 71 70 70 70 72 67 69 75 73 75 73 71 73 72 73 84 89 89 85 82 83 82 82 81 80 80 79 80 79
46 41 37 34 44 44 40 50 54 55 59 58 52 59 66 66 68 66 68 67 67 66 70 71 71 71 70 71 73 70 70 84 88 86 84 83 82 81 81 81 80 79 79 81
44 43 38 33 35 28 45 56 58 56 59 55 56 61 61 61 66 66 69 66 64 66 67 71 70 70 70 69 69 70 71 71 76 83 84 83 82 81 81 81 80 80 80 80
49 44 34 31 31 41 48 54 50 49 48 55 52 54 57 61 64 59 63 68 68 67 68 69 72 71 72 72 71 70 72 70 70 78 83 83 83 81 81 80 81 81 81 80
48 47 39 34 27 27 41 55 59 58 40 53 53 53 54 56 47 52 62 66 67 68 68 68 69 69 69 69 69 69 67 68 69 77 82 83 83 82 81 81 82 82 82 82
36 37 34 34 32 39 50 56 59 39 37 52 53 51 53 51 54 58 63 62 64 66 67 68 66 64 66 67 65 65 67 70 74 79 81 83 84 83 82 82 83 83 82 82
36 34 32 34 30 28 49 51 40 44 47 49 51 50 50 55 59 61 60 60 62 62 65 65 62 63 63 65 62 62 63 66 70 71 78 81 83 85 83 82 82 82 82 80
33 35 32 36 37 43 46 45 49 49 45 48 47 51 52 54 54 59 58 59 61 61 63 62 60 60 61 62 62 61 62 64 66 68 73 76 83 84 86 82 81 80 81 80
39 40 35 34 44 39 44 45 46 47 46 49 51 51 53 51 55 55 57 56 59 60 60 64 60 57 57 59 60 62 62 63 64 66 71 79 80 82 85 84 83 82 81 80
38 38 35 35 40 39 43 43 44 45 48 48 50 50 52 52 53 55 55 53 55 56 58 58 57 55 56 57 58 61 62 61 62 64 70 79 84 79 83 84 82 83 84 81
40 36 34 32 39 38 39 43 45 43 44 46 47 48 51 52 50 53 52 52 56 57 58 56 58 57 54 55 56 59 59 59 60 61 69 77 84 80 82 82 72 53 55 57

GFSCGP_sfc_temp_072.txt.gz
Temp
66 57 52 59 62 65 64 60 61 69 75 72 70 62 64 66 69 69 70 72 77 78 81 83 85 82 82 81 79 77 75 74 74 73 72 72 73 73 74 75 78 77 76 76
59 53 64 70 70 67 64 60 60 68 73 67 61 59 63 65 67 69 71 72 76 78 80 81 84 80 80 80 79 76 77 74 75 74 73 74 74 74 77 75 77 77 77 74
56 63 72 70 67 65 60 57 61 62 66 66 64 58 60 66 69 69 73 73 76 78 79 79 84 80 80 79 77 77 77 75 75 75 73 73 74 73 73 73 75 76 78 76
60 70 70 67 65 64 50 67 70 68 61 53 64 51 58 62 62 66 68 69 71 77 82 82 82 79 79 79 79 78 77 76 76 75 72 73 72 71 73 74 75 76 78 77
60 65 65 64 66 68 63 71 67 65 57 53 58 52 53 62 59 63 66 69 72 75 81 82 81 82 81 81 79 77 77 76 77 77 75 74 72 73 73 75 75 74 75 77
64 71 68 67 73 72 75 66 61 56 53 45 52 54 50 54 63 64 68 70 73 75 79 83 85 83 81 81 80 77 76 76 75 76 73 73 72 72 72 76 75 74 75 75
60 63 67 72 62 67 65 53 43 43 43 43 51 52 57 64 68 69 68 70 74 75 78 82 81 80 79 79 79 77 76 75 76 75 75 72 74 72 73 73 77 76 73 74
46 48 60 68 59 57 57 53 45 38 39 43 55 47 60 70 74 75 74 74 76 74 70 77 81 80 80 79 79 78 76 76 77 77 75 72 74 74 74 74 78 79 80 79
43 48 64 67 66 62 58 51 56 47 41 44 49 57 67 69 70 72 71 72 72 72 76 77 74 77 78 80 79 79 77 77 77 77 78 76 74 73 74 74 74 78 81 80
48 43 53 64 64 63 56 60 50 45 37 36 46 48 53 63 66 69 69 70 71 71 73 74 74 74 74 77 79 80 79 78 77 78 79 78 76 74 74 74 74 75 77 77
47 43 47 56 49 48 51 49 48 46 45 39 39 47 59 61 63 66 68 73 73 71 74 74 72 73 73 74 79 80 79 79 77 78 79 78 78 76 72 74 76 75 75 77
48 41 38 43 55 60 55 48 44 39 40 42 43 47 66 65 67 70 68 73 73 73 77 72 74 75 73 73 75 80 80 79 79 79 79 78 78 78 75 72 74 75 75 75
49 37 32 40 44 51 49 52 45 43 39 40 41 46 67 69 68 69 67 68 70 70 70 73 77 75 76 77 74 78 81 79 80 79 79 78 78 78 78 78 73 74 75 74
54 37 36 31 36 44 44 50 52 42 34 37 40 49 56 61 65 67 67 67 70 72 72 69 71 73 70 71 75 75 81 82 81 80 79 78 78 79 79 80 78 72 76 75
45 35 38 39 47 48 47 48 51 45 44 38 46 47 54 58 62 64 66 67 67 68 68 69 68 69 70 70 70 73 79 80 81 80 79 79 79 79 79 79 79 77 75 78
44 36 38 38 47 46 44 49 50 51 51 50 50 47 56 59 63 62 63 64 64 65 68 67 68 70 70 72 71 72 72 73 80 80 79 79 79 79 78 78 79 78 77 77
39 37 33 26 41 42 36 44 48 49 51 47 41 46 53 53 57 56 59 62 62 64 64 64 66 67 67 69 70 69 69 71 72 78 80 80 79 78 78 78 77 77 77 79
38 35 32 27 33 25 41 50 53 50 49 50 49 51 53 53 56 58 60 60 61 63 63 64 65 66 68 68 69 69 70 71 70 72 80 79 80 79 79 79 77 78 77 77
41 35 30 27 27 36 44 49 49 45 42 50 47 50 52 55 57 54 59 61 62 62 64 64 66 65 65 65 65 67 70 71 70 70 70 75 77 79 79 78 78 78 78 77
40 38 33 29 24 25 38 47 53 50 35 49 49 47 47 50 43 46 56 60 62 63 64 63 64 65 65 62 63 65 66 67 68 69 68 71 74 76 78 79 79 80 80 79
30 32 28 29 28 34 41 45 50 34 35 46 48 47 46 42 47 52 57 57 61 64 64 64 64 63 63 64 62 61 62 63 64 66 67 69 71 81 82 81 76 81 80 80
31 31 29 28 24 25 43 46 37 41 43 44 45 46 46 47 50 54 55 55 59 60 62 63 61 60 62 63 62 59 59 61 64 65 65 67 70 77 83 81 79 78 80 78
31 33 27 34 36 41 44 43 46 45 39 41 44 48 50 47 49 50 52 52 54 58 59 61 60 59 59 60 58 57 60 61 61 62 64 65 68 73 83 81 81 79 80 79
35 39 34 32 39 40 43 44 42 45 45 44 46 48 50 46 48 48 50 52 51 54 57 59 57 57 57 57 58 57 59 60 59 61 62 65 67 72 76 79 82 81 80 79
33 37 33 35 37 41 43 43 43 45 46 46 48 48 48 49 48 48 47 48 50 51 55 56 53 55 55 56 55 57 59 59 59 60 61 63 68 71 75 78 76 81 81 80
40 34 31 28 36 39 40 44 46 44 44 45 44 45 48 49 48 50 49 49 50 50 55 56 56 56 53 52 54 55 57 58 58 58 61 61 63 67 78 76 68 53 56 57

GFSCGP_sfc_temp_075.txt.gz
Temp
62 56 51 57 60 62 60 57 57 63 72 65 62 61 64 66 66 68 70 72 75 76 78 82 82 82 80 78 76 77 75 72 72 71 71 71 71 71 72 73 74 75 74 74
56 51 61 66 65 63 60 57 55 64 69 63 59 59 63 67 66 68 70 71 75 76 77 78 80 81 79 77 77 76 76 73 73 73 72 73 72 72 71 72 75 74 75 74
53 61 69 66 62 60 54 54 55 59 64 63 61 58 61 66 67 68 70 73 75 77 77 77 78 78 79 77 76 76 76 74 74 73 72 71 72 72 72 72 73 75 76 75
57 66 67 63 61 61 48 62 64 63 57 51 60 48 58 61 62 66 67 70 73 78 80 78 77 77 78 78 78 78 76 75 73 72 72 71 71 69 71 72 72 74 76 74
58 60 61 60 63 64 59 66 63 62 54 50 54 50 52 60 58 62 66 71 73 76 80 78 77 78 79 79 78 77 76 75 74 73 75 72 70 72 72 72 73 72 73 75
62 68 65 64 69 68 70 61 57 52 49 43 50 51 50 52 60 63 66 70 73 73 75 80 81 79 79 80 78 77 75 74 74 74 72 72 72 71 70 70 71 71 72 73
57 59 62 66 57 63 59 51 42 41 41 42 46 50 55 61 65 67 67 69 72 74 74 79 77 77 77 77 77 76 75 74 74 74 73 72 73 72 72 71 72 72 71 72
45 46 57 64 55 52 53 52 43 37 37 43 47 46 57 65 69 72 72 72 73 74 74 77 79 79 78 78 77 76 75 75 75 75 74 72 72 73 72 72 72 74 75 76
42 45 60 63 62 57 52 46 49 42 38 43 45 53 61 66 67 67 67 70 70 72 75 76 77 78 78 78 77 76 75 76 76 76 76 73 72 72 72 72 72 74 75 78
44 41 50 60 61 60 53 55 46 43 36 35 43 46 48 57 60 64 65 66 70 72 73 74 77 77 78 79 79 78 77 76 76 77 77 76 74 72 71 72 72 72 74 75
41 43 46 51 48 47 47 44 41 41 40 37 37 41 60 57 60 61 63 65 68 72 72 73 76 74 76 79 79 79 78 77 76 77 77 77 76 71 70 71 72 73 73 74
46 38 36 41 51 57 54 44 39 35 35 37 39 41 59 61 63 64 64 65 68 71 72 73 75 73 71 77 79 78 79 78 77 78 77 77 77 75 71 71 72 73 73 73
48 38 35 38 44 48 45 47 41 38 35 34 33 41 62 60 61 64 63 64 66 68 68 70 69 68 69 70 71 74 79 78 79 78 77 77 76 76 75 73 71 72 73 73
51 35 36 33 34 41 40 46 46 39 34 34 37 42 50 54 54 59 61 64 66 66 66 65 65 66 69 70 71 70 75 77 79 78 77 76 76 76 77 78 73 72 73 73
43 34 35 36 44 44 43 44 46 41 40 37 43 43 45 50 54 56 60 63 63 64 64 65 65 66 69 70 70 71 73 74 78 77 76 77 77 77 77 77 77 73 72 75
41 33 34 35 43 43 40 45 47 47 47 45 45 43 49 54 56 55 56 60 59 61 64 64 64 66 68 69 69 70 71 72 77 78 77 75 76 77 76 76 76 77 73 73
37 34 31 27 38 40 34 41 45 44 45 46 40 42 50 50 53 53 54 56 56 58 62 62 63 63 66 66 66 66 68 70 71 77 77 77 72 72 75 76 75 75 76 76
35 32 29 26 31 24 38 46 50 45 47 47 47 48 50 50 55 57 56 55 56 58 59 61 62 62 63 64 64 65 69 68 70 71 74 77 76 74 75 75 75 75 76 76
37 32 27 26 25 33 41 45 43 40 40 47 44 47 48 50 52 55 56 57 57 59 60 60 63 63 62 61 62 63 68 69 69 69 69 72 75 76 75 74 76 76 76 76
37 35 31 26 22 25 36 43 48 45 34 46 46 44 44 46 42 46 52 54 57 61 61 62 62 63 63 61 61 62 62 64 63 66 68 70 72 74 75 77 75 74 75 76
26 31 27 26 24 32 40 43 47 33 33 43 45 43 42 39 42 46 52 54 57 59 61 62 63 62 60 61 60 58 60 59 62 64 65 67 69 70 70 75 76 77 75 74
28 28 26 30 22 24 44 44 36 38 39 41 42 42 42 43 47 49 50 53 54 54 59 61 60 59 61 60 59 56 56 59 61 62 64 65 66 68 71 73 77 76 75 74
26 31 25 32 30 41 41 39 41 41 37 39 40 42 43 44 46 48 48 48 52 53 55 59 57 58 58 59 55 54 56 58 59 59 60 62 64 66 68 71 75 74 73 76
32 41 31 32 35 37 40 41 41 40 40 45 47 45 47 45 47 47 48 50 48 50 52 54 54 55 53 56 56 55 56 57 57 58 59 60 62 64 68 71 73 73 74 74
31 38 31 30 35 37 40 41 44 44 46 46 48 47 46 46 45 46 47 47 48 49 50 52 53 52 54 54 54 55 54 57 56 56 56 59 61 63 64 68 72 73 75 74
37 34 29 28 35 35 36 41 43 43 45 46 45 45 46 46 45 48 48 49 47 49 50 50 53 53 52 53 53 53 54 54 54 52 55 56 59 60 62 66 72 54 57 56

GFSCGP_sfc_temp_078.txt.gz
Temp
58 53 49 54 58 60 59 57 55 60 67 61 58 58 63 66 66 67 69 71 72 73 76 77 78 78 77 75 73 72 72 71 72 71 70 71 71 72 73 74 75 75 75 75
54 49 59 63 62 60 58 55 54 64 65 61 56 56 62 63 64 67 68 70 73 74 73 76 78 78 77 75 74 72 73 71 73 73 72 73 72 73 73 74 75 76 76 75
51 59 66 64 60 58 52 52 54 60 62 60 58 57 61 64 66 67 69 71 73 75 73 75 76 77 77 75 74 73 73 72 73 73 72 71 72 73 72 73 74 76 76 76
56 63 65 60 59 59 43 61 62 60 54 49 57 46 53 61 63 66 66 68 70 74 76 75 76 76 76 76 77 75 74 73 73 72 72 71 71 71 73 73 73 75 77 75
56 60 59 57 60 62 57 63 61 59 52 48 52 49 51 57 55 60 65 69 72 75 77 75 76 76 77 77 77 76 74 73 73 73 73 72 71 72 73 73 73 74 75 75
59 64 60 62 65 65 66 59 53 49 47 42 47 50 51 52 57 60 66 69 73 74 77 77 77 77 77 78 77 76 73 73 73 73 71 71 71 71 72 72 73 73 74 75
55 56 60 62 56 60 58 49 39 39 40 41 45 49 49 59 63 63 65 68 71 76 76 74 75 75 76 75 75 75 73 72 72 72 72 72 72 72 72 72 73 72 73 74
44 44 54 61 53 50 51 49 41 35 35 42 47 45 51 62 65 67 67 68 71 74 74 76 76 76 75 76 75 75 73 73 73 73 72 71 72 74 73 73 73 74 74 76
42 43 57 60 58 54 50 45 47 41 36 42 44 49 57 63 63 65 65 66 67 73 74 73 75 77 76 76 75 75 74 74 74 74 73 71 71 71 73 73 74 74 75 78
42 41 48 57 58 57 52 51 45 42 37 35 41 42 44 52 55 61 62 63 64 67 71 73 75 76 77 78 77 76 76 75 75 75 75 74 72 72 73 73 73 74 75 76
40 42 44 49 45 42 46 42 41 40 38 37 34 39 53 51 54 57 60 62 64 66 70 72 74 73 77 78 78 77 76 75 75 76 76 75 73 72 71 73 74 75 75 75
48 40 34 37 49 52 46 41 37 39 37 34 37 40 55 55 56 58 60 63 64 67 69 71 72 70 71 74 77 77 77 76 77 76 75 75 75 73 72 72 73 74 75 75
49 39 32 35 42 46 43 44 37 36 35 33 37 39 55 55 55 57 58 62 63 64 65 66 67 67 69 71 70 70 73 75 77 75 76 75 75 73 73 73 73 73 74 74
52 39 37 32 35 39 39 44 44 37 35 34 37 41 47 49 52 54 56 61 64 64 64 65 66 66 68 69 70 69 70 71 77 75 76 74 75 75 75 75 73 73 73 74
42 34 36 37 42 42 41 42 45 39 38 37 40 42 45 48 51 53 56 58 59 62 62 62 62 66 67 68 69 70 71 71 72 75 75 75 75 75 75 75 74 74 73 74
39 32 33 33 41 41 40 44 45 45 45 44 44 41 48 52 54 53 53 55 55 58 60 61 62 62 64 64 65 67 69 70 74 74 73 75 75 74 74 74 74 72 73 73
35 33 30 26 35 37 33 39 42 43 44 43 38 42 49 48 51 50 51 53 54 56 58 59 60 61 61 62 63 63 65 69 70 73 74 72 72 73 74 74 73 72 72 73
34 31 28 26 28 26 37 45 48 45 46 46 46 47 48 48 50 53 53 51 53 55 57 58 60 61 61 62 61 62 66 69 69 70 74 74 73 73 73 73 72 73 74 73
34 31 26 26 25 33 41 41 41 39 40 46 44 45 46 47 50 51 52 53 53 55 58 59 62 63 62 61 60 61 64 63 64 66 69 72 74 73 73 73 73 73 74 73
35 33 30 27 23 25 36 42 46 43 33 44 44 42 41 44 40 46 49 52 53 55 58 59 60 62 64 61 60 59 61 61 60 62 64 66 68 70 73 73 72 73 74 75
26 28 26 26 24 31 39 42 45 32 33 43 42 42 40 39 41 45 49 50 53 54 55 58 59 59 60 62 59 57 57 58 60 62 63 65 67 67 70 71 74 73 74 72
28 24 28 30 24 24 43 43 37 38 39 41 41 41 40 41 44 46 47 49 50 51 53 56 55 57 59 60 58 56 55 58 59 60 62 63 64 66 68 68 70 73 74 73
25 30 26 30 30 38 40 40 41 41 38 40 40 44 46 42 42 45 46 48 49 51 51 54 54 54 58 58 58 55 56 57 58 58 60 61 63 64 66 67 67 69 73 73
31 34 27 30 35 36 39 41 42 42 40 42 44 47 48 45 47 46 46 46 48 50 50 52 52 52 54 57 56 56 57 57 56 56 57 58 60 62 63 66 67 67 72 74
31 34 31 28 33 36 40 41 41 42 45 46 48 47 47 47 46 46 45 46 47 49 50 51 50 51 52 56 55 56 56 56 55 55 55 56 58 59 61 64 65 67 71 73
34 32 28 28 36 37 38 41 43 42 43 44 46 46 48 48 46 46 46 47 48 48 50 49 50 51 52 55 53 53 55 54 54 53 55 55 56 58 59 61 64 58 55 54

GFSCGP_sfc_temp_081.txt.gz
Temp
70 66 62 67 70 70 70 69 68 71 75 73 71 72 73 73 70 70 71 74 77 79 83 84 84 85 84 83 81 80 80 80 81 81 82 82 83 84 84 85 84 84 84 83
66 62 69 72 70 69 69 67 67 71 73 73 69 66 73 74 73 70 72 74 78 81 82 82 84 85 84 83 81 80 80 80 80 83 83 84 84 85 85 85 84 85 85 83
64 68 71 70 68 67 67 67 67 68 70 71 69 65 66 69 74 74 76 77 79 80 81 81 82 83 85 83 81 80 80 80 81 82 82 82 82 83 83 84 85 85 85 84
67 72 69 68 67 70 65 71 71 68 69 66 69 64 63 65 67 71 74 75 79 81 83 83 83 83 84 84 84 82 81 81 81 81 82 80 83 83 86 85 86 86 85 84
65 67 67 66 69 72 67 71 71 69 68 67 66 68 64 67 64 70 74 76 74 80 83 83 84 84 85 85 85 84 81 80 82 80 82 82 82 86 87 86 83 84 84 84
69 74 72 72 74 74 73 69 67 67 68 61 67 67 61 64 65 69 73 77 79 77 81 84 86 86 85 86 85 84 80 79 81 80 81 80 82 82 84 84 84 85 86 86
66 65 69 70 69 72 72 68 57 56 57 59 62 65 59 66 69 70 71 75 79 82 82 83 83 84 84 84 83 83 80 79 80 80 80 81 82 82 82 82 85 84 85 86
59 55 64 68 65 67 68 69 61 50 53 60 62 58 59 69 72 72 74 74 77 81 83 84 84 84 84 83 83 82 80 80 80 81 80 81 81 85 86 85 87 86 87 87
58 55 65 66 66 65 63 62 67 60 57 62 62 63 67 70 68 69 69 71 72 74 81 83 84 85 84 84 82 82 81 80 81 82 81 80 81 82 84 84 84 87 86 89
58 54 60 63 66 67 65 65 61 63 51 52 53 55 58 59 60 64 63 64 68 75 75 81 84 83 85 86 85 84 83 81 82 82 82 83 82 82 83 83 82 84 86 85
60 60 56 61 56 53 62 61 58 63 57 57 52 54 62 59 60 58 60 64 66 73 76 79 83 84 80 86 85 85 84 82 82 83 83 83 83 83 82 82 83 84 85 85
58 58 51 52 59 59 58 55 56 61 52 54 60 53 63 62 62 60 61 64 65 68 73 77 80 82 83 82 84 85 85 85 84 83 80 81 82 82 83 82 83 84 83 85
60 53 48 50 57 59 55 56 55 55 58 53 57 53 63 64 63 62 62 63 65 65 64 65 72 75 78 82 83 83 84 86 87 83 80 79 79 80 82 82 83 83 83 84
60 52 52 53 50 54 51 53 55 56 57 53 55 54 58 59 60 62 63 64 66 66 63 62 61 63 66 73 76 77 80 82 85 85 84 82 79 79 80 83 83 83 82 83
58 48 50 51 52 52 51 52 54 53 53 54 54 56 55 57 58 60 64 64 64 65 66 62 61 61 63 63 66 71 76 77 82 83 83 83 83 83 80 78 81 82 82 82
54 46 49 45 49 50 49 52 52 53 54 54 55 54 58 60 61 60 60 62 62 63 65 66 66 63 62 62 63 65 67 71 77 78 81 82 82 82 81 81 80 81 81 81
50 49 46 42 46 48 46 51 52 53 55 55 53 55 57 56 57 57 59 59 59 60 63 64 66 67 67 64 64 62 64 69 73 74 78 79 80 80 80 81 80 80 80 82
48 47 46 43 44 38 49 55 54 53 54 55 54 54 55 54 57 59 60 59 59 60 61 63 67 67 68 68 65 66 65 65 66 72 75 78 79 79 80 80 79 79 80 80
51 49 40 40 42 44 49 49 50 50 51 53 53 52 54 57 60 57 58 59 59 60 63 64 66 67 67 68 67 65 66 63 63 63 67 68 69 75 79 78 78 79 79 79
50 50 47 40 36 37 47 49 52 52 45 50 51 49 50 55 55 59 57 58 59 61 62 62 64 66 67 67 68 65 62 66 60 60 62 66 69 69 70 76 78 80 80 80
42 43 42 41 40 45 50 51 53 42 46 50 50 49 49 49 52 54 56 57 58 59 60 62 63 63 64 66 67 64 62 60 64 64 62 63 66 66 69 70 71 75 77 79
42 39 38 39 38 35 52 50 45 48 50 51 50 50 49 51 52 53 55 55 56 57 58 60 60 62 64 64 65 64 63 60 61 63 62 62 64 64 66 67 70 70 70 73
38 43 41 44 45 48 51 52 53 51 49 50 49 51 52 51 52 53 53 54 55 56 57 59 59 60 62 63 63 62 64 64 58 59 61 62 63 63 65 65 66 68 69 70
43 45 42 42 49 48 51 52 52 52 51 51 52 52 52 51 52 52 54 55 55 55 55 58 58 57 58 61 62 62 64 64 62 57 58 62 63 64 63 66 66 66 68 71
44 43 40 41 46 46 49 51 52 51 52 52 53 54 52 52 53 53 53 53 54 53 55 57 56 57 57 59 60 62 63 62 62 62 62 61 62 64 63 64 66 67 68 67
45 42 39 41 51 51 50 52 53 51 51 53 53 53 54 53 52 53 52 52 52 49 53 54 56 56 58 59 60 61 62 61 58 58 62 64 63 64 61 61 62 57 54 53

GFSCGP_sfc_temp_084.txt.gz
Temp
79 75 72 78 82 81 82 80 78 80 83 82 80 79 77 76 75 76 77 81 85 87 90 91 92 92 92 91 89 87 87 86 87 88 89 89 89 91 92 93 90 90 90 89
74 71 81 83 80 78 79 78 76 80 82 83 80 79 80 74 75 78 78 78 84 88 89 90 91 92 92 90 88 86 86 86 86 90 89 91 91 93 91 89 90 91 90 89
73 77 81 78 76 75 78 78 76 77 79 82 81 74 77 79 74 77 76 83 83 85 89 89 89 91 92 90 88 87 86 86 86 89 89 88 90 90 89 90 91 91 91 89
76 80 76 75 75 78 74 80 78 77 77 72 82 64 72 74 71 74 76 76 85 85 85 89 90 90 92 91 91 89 87 86 87 87 88 86 89 89 92 92 93 91 91 90
73 75 74 73 76 80 76 81 79 78 77 76 76 75 71 70 68 73 77 76 80 85 88 88 91 91 93 93 93 91 87 86 87 86 86 88 85 92 93 94 89 88 88 89
76 84 80 79 81 81 81 77 77 78 79 67 77 77 69 73 71 76 80 83 82 87 89 90 92 93 93 94 93 92 87 84 85 86 85 85 87 88 91 89 90 92 93 91
72 74 77 79 76 80 78 76 65 63 64 67 79 75 68 73 75 76 77 81 87 87 83 89 91 92 92 92 92 92 88 84 86 86 86 86 86 87 85 87 88 91 93 93
66 60 72 75 76 73 75 77 69 57 62 68 74 67 66 76 78 80 81 82 84 90 91 86 86 92 91 92 92 91 89 85 86 86 85 86 86 90 90 91 93 91 94 94
67 62 72 72 76 75 74 71 82 73 77 71 72 68 74 77 75 75 72 73 79 83 90 89 88 92 91 92 91 90 89 87 87 88 87 86 86 86 90 90 91 93 92 96
70 61 69 70 75 76 76 81 69 72 60 60 66 64 66 68 67 68 65 65 70 84 83 85 92 93 93 94 94 92 91 88 88 89 89 89 88 87 88 89 88 89 93 91
74 70 65 70 67 68 71 72 73 77 72 65 61 65 71 67 64 63 63 64 65 68 79 84 89 87 92 94 94 94 92 90 89 90 89 89 90 89 88 88 88 88 90 91
70 72 64 65 68 69 70 70 72 68 64 71 72 60 72 71 68 69 66 64 65 67 72 68 70 78 85 88 92 93 93 93 92 91 88 89 89 90 89 87 89 88 88 90
69 68 58 60 66 68 67 68 70 72 74 67 66 58 73 73 70 70 67 68 65 65 67 67 70 70 70 74 81 89 93 94 96 92 89 88 88 89 85 88 89 89 88 88
67 68 62 62 62 68 62 63 66 70 68 69 69 60 66 69 69 71 68 71 68 66 66 67 66 66 66 71 73 72 80 90 94 95 92 87 85 85 86 84 88 89 88 87
68 58 63 62 63 64 62 62 63 65 66 65 66 64 66 67 68 69 72 71 71 71 69 67 67 67 68 66 66 69 73 77 81 86 90 90 89 87 84 83 83 88 88 88
66 57 61 57 59 60 59 61 61 62 63 66 69 62 69 69 70 68 68 69 68 69 70 72 72 70 69 68 67 66 66 67 73 79 82 87 87 87 87 86 85 84 86 87
61 60 56 55 57 57 55 62 63 63 64 67 63 65 68 66 65 66 67 68 67 68 69 70 72 73 74 75 73 68 65 66 67 68 79 80 82 82 83 85 85 84 83 85
58 58 59 59 55 47 58 64 65 64 64 65 65 64 65 64 66 67 67 66 66 67 68 70 73 73 74 76 75 75 73 66 64 64 65 68 74 76 83 82 82 83 85 84
64 60 55 50 53 55 56 58 60 61 59 63 64 63 64 65 67 64 65 66 66 67 69 70 73 73 73 74 75 74 74 73 68 64 62 63 65 69 73 76 81 82 80 82
60 60 55 53 45 45 57 59 63 64 55 61 63 61 62 65 63 61 64 66 67 68 69 69 70 72 73 72 75 74 74 74 71 69 67 65 64 65 67 72 77 78 81 83
51 53 49 52 48 55 60 60 64 50 52 60 62 61 62 62 64 63 66 65 67 67 67 67 69 69 70 72 72 70 72 72 72 71 72 70 65 63 65 65 71 77 78 78
50 48 49 52 46 43 62 59 54 57 61 61 60 61 60 61 61 62 64 64 65 65 66 67 67 67 69 70 70 68 68 71 71 71 70 69 70 71 66 65 66 70 74 75
48 56 52 54 56 59 62 62 63 62 60 61 60 62 60 60 60 61 61 63 64 65 65 66 66 65 67 68 68 66 67 68 69 69 69 70 68 70 72 70 68 66 69 73
55 56 51 51 58 58 60 61 62 62 61 61 61 61 61 60 60 60 62 62 63 64 63 64 63 63 63 66 66 66 67 68 68 67 68 70 70 63 69 75 77 71 68 68
56 53 50 51 57 57 60 61 61 60 61 61 61 61 60 60 60 60 60 60 60 59 60 60 58 58 59 63 64 67 67 67 67 67 69 70 73 73 64 70 75 75 74 65
57 53 46 47 60 59 60 61 62 59 59 60 60 59 60 60 59 60 60 60 58 57 56 56 52 55 58 59 61 65 67 66 64 65 68 70 70 72 73 66 71 62 54 51

GFSCGP_sfc_temp_087.txt.gz
Temp
84 79 76 82 85 89 88 83 78 72 90 82 77 79 75 73 76 78 79 82 82 86 94 94 96 96 95 94 91 90 90 88 90 90 91 82 90 83 86 85 92 91 88 91
79 75 85 89 89 86 85 84 81 79 89 87 85 78 80 80 82 80 80 80 80 87 92 90 91 95 95 92 90 89 89 87 88 92 92 94 80 82 94 93 92 90 92 91
77 82 88 86 84 81 84 84 82 81 85 89 85 75 77 76 82 83 82 83 82 85 88 85 88 90 95 92 90 89 88 87 88 91 91 92 91 84 92 89 92 92 92 92
81 88 84 82 80 83 79 89 86 84 80 75 87 69 76 76 76 79 79 80 82 85 87 88 83 87 95 93 92 89 88 87 88 89 85 87 87 88 82 89 82 92 92 91
77 81 79 77 80 85 83 89 85 84 81 80 80 66 59 81 74 77 79 80 83 82 90 87 89 87 93 95 94 91 88 87 89 88 84 89 87 80 81 82 85 90 89 91
83 89 85 84 87 87 87 86 83 84 82 72 80 77 56 74 78 81 81 79 85 85 83 89 90 88 91 97 95 93 88 86 87 87 87 87 88 84 79 86 88 92 93 92
76 80 86 87 82 86 83 79 68 66 68 69 83 77 62 78 82 84 82 86 88 87 83 88 82 89 90 94 95 94 89 85 87 88 88 87 87 88 88 88 89 79 86 91
69 66 78 85 82 78 79 80 71 59 65 72 83 70 71 82 85 85 82 87 88 93 93 84 90 88 88 91 95 94 90 87 87 87 87 88 88 91 92 90 87 89 89 96
71 70 81 81 85 82 78 74 88 78 81 75 75 71 78 81 79 75 70 76 83 90 92 91 91 79 87 91 93 93 92 89 89 89 88 87 88 88 92 92 91 91 92 83
75 66 77 79 81 83 79 86 75 77 64 64 69 67 70 73 72 67 65 69 76 84 90 90 87 82 73 90 92 95 94 91 90 91 90 90 89 89 89 91 90 92 93 94
80 75 71 76 74 75 77 75 80 82 79 69 63 66 79 72 70 64 64 65 67 74 77 82 76 72 80 93 90 92 95 93 92 92 91 91 91 91 89 90 90 90 91 91
79 76 67 71 78 79 80 78 79 71 68 76 69 64 79 77 75 69 65 65 69 72 73 73 74 71 71 75 77 73 89 95 95 94 92 92 92 92 91 89 90 90 89 91
76 72 64 65 72 77 74 78 79 82 81 71 70 63 78 77 76 74 67 68 67 71 74 71 71 72 71 73 76 73 74 74 91 95 95 93 92 91 91 91 90 91 89 89
69 74 69 62 67 75 69 72 75 76 71 72 73 65 71 73 70 67 69 69 69 69 72 74 73 69 70 67 67 71 71 76 79 77 89 92 91 92 92 91 90 91 90 89
74 65 69 69 70 73 73 72 71 71 74 70 67 68 72 73 73 71 69 70 70 70 70 70 71 71 70 69 68 68 69 72 74 79 83 78 91 90 90 89 88 88 90 90
74 66 67 65 67 69 66 69 69 71 72 74 72 65 73 76 76 75 74 71 68 69 72 74 74 74 73 71 69 66 67 68 70 72 73 76 77 78 83 88 86 86 85 87
68 69 63 60 66 65 61 69 70 71 74 76 68 70 74 72 72 73 73 72 71 71 72 74 75 76 77 78 77 71 66 67 66 67 67 71 73 73 73 79 82 83 84 86
65 64 66 59 62 50 67 73 76 72 72 75 72 72 73 73 73 73 74 72 70 71 72 73 76 76 76 79 78 78 79 68 66 65 66 66 68 70 71 73 78 81 82 81
72 66 61 57 58 62 63 66 68 69 66 74 71 71 72 73 73 68 71 72 71 72 74 74 76 77 76 76 77 76 78 78 76 71 68 66 66 66 68 71 71 76 78 81
70 67 62 59 52 51 64 69 73 74 61 71 73 71 71 72 65 65 70 72 72 73 74 73 74 76 77 75 77 75 76 77 75 75 74 75 72 68 65 67 68 70 75 77
57 59 55 57 54 61 66 67 70 54 58 69 72 71 69 69 67 68 71 70 72 72 71 72 73 73 73 75 75 72 73 73 74 75 75 75 74 73 69 66 67 68 71 73
56 53 55 57 53 49 69 66 59 63 67 69 69 68 67 67 68 68 68 68 69 69 71 71 71 71 72 73 72 70 70 72 72 73 73 73 74 74 76 73 70 69 70 70
54 62 56 60 57 65 69 67 69 71 67 66 67 68 67 66 66 66 67 67 68 68 69 71 69 68 70 71 70 67 68 70 70 70 70 72 73 74 74 72 73 76 74 73
62 65 58 58 64 63 67 68 69 70 68 68 69 68 67 66 66 65 66 66 66 66 65 67 65 64 64 65 66 67 69 70 69 68 68 71 72 72 74 77 77 79 79 79
61 61 56 58 63 64 65 67 67 67 68 68 68 67 66 65 65 65 65 64 64 64 64 64 63 61 61 63 63 67 68 69 69 68 69 71 74 74 76 76 78 76 76 72
65 59 52 50 63 63 65 67 68 65 65 67 66 65 65 65 64 65 65 64 63 62 63 62 61 60 60 58 60 62 63 63 64 66 70 72 73 74 75 75 76 60 58 55

GFSCGP_sfc_temp_090.txt.gz
Temp
82 75 73 80 83 85 85 83 78 75 83 80 74 71 72 76 78 80 80 82 85 86 91 93 94 95 93 90 88 88 85 84 85 85 80 83 80 83 83 75 80 85 87 84
78 72 83 87 87 84 83 82 73 72 78 64 73 70 76 75 73 73 74 81 82 84 87 90 92 94 92 88 87 86 85 84 85 85 85 84 79 82 84 84 87 89 86 89
75 80 87 85 84 82 82 81 77 73 75 68 64 61 71 74 77 78 81 82 84 83 84 89 90 92 92 87 86 85 84 83 84 86 84 72 73 73 75 85 86 86 87 89
79 87 84 83 81 84 78 88 81 71 72 68 80 59 68 72 70 75 78 78 79 84 82 89 89 87 91 88 88 85 85 83 84 86 85 81 76 73 80 84 80 85 86 88
76 81 81 80 82 87 81 89 81 81 80 79 78 68 58 58 72 73 77 79 79 80 87 89 89 87 91 90 89 87 85 83 84 84 83 84 80 75 73 75 80 82 83 88
82 90 87 84 87 88 89 86 85 83 82 69 72 72 60 55 61 76 80 82 83 85 86 87 88 84 84 90 90 87 83 82 84 84 83 81 79 73 76 78 80 81 84 86
78 81 87 88 81 87 85 79 67 65 66 66 78 72 62 61 61 63 78 82 85 85 86 87 84 86 86 86 89 86 83 82 83 84 84 83 81 82 75 78 77 77 75 84
68 66 80 86 83 79 80 79 69 58 62 68 80 65 63 67 70 77 84 83 72 72 85 87 86 88 87 86 87 87 83 82 83 84 84 84 84 81 84 84 81 80 78 78
69 70 85 86 87 82 78 73 85 75 77 71 69 71 73 76 73 75 76 77 77 73 83 88 89 88 88 87 87 87 83 83 84 85 84 84 84 84 85 86 86 88 82 76
75 64 80 82 83 83 79 85 72 75 61 60 64 64 65 70 67 68 69 68 71 74 74 75 75 83 86 86 77 90 86 84 85 86 85 86 85 85 85 85 83 88 84 79
78 72 72 79 74 73 75 73 76 79 76 65 59 62 76 71 68 66 68 70 71 69 69 69 69 69 75 73 70 70 77 85 87 87 86 86 86 86 86 86 88 88 89 78
79 73 66 71 81 84 82 78 78 68 66 67 56 53 70 73 71 69 67 69 71 69 67 68 71 71 69 67 70 71 71 74 85 88 86 86 86 87 86 85 86 87 85 87
73 71 63 67 74 78 75 78 80 80 79 63 58 59 70 73 69 69 67 68 69 70 67 67 68 69 68 67 66 68 69 70 72 80 89 89 88 87 87 85 86 86 86 85
72 71 64 55 65 75 69 75 78 77 69 70 60 64 64 66 66 67 68 68 69 69 69 68 67 66 66 65 66 67 69 70 71 72 77 76 86 88 88 86 84 86 85 85
74 63 68 69 72 74 75 74 76 72 73 59 62 64 65 66 67 67 69 71 71 70 71 71 71 71 70 69 67 67 67 68 70 72 70 72 73 80 89 86 83 86 86 86
76 62 67 65 70 71 69 73 73 74 74 71 62 59 67 70 72 70 70 70 69 71 72 73 74 75 74 73 69 69 69 67 67 69 68 70 70 73 76 77 81 83 84 84
69 65 63 58 68 67 61 69 70 73 76 71 61 59 68 70 70 70 71 71 71 71 72 73 73 74 75 75 76 70 69 71 70 69 69 69 70 71 72 74 76 78 81 82
66 64 64 58 64 50 68 77 78 74 75 76 72 71 71 72 72 74 75 71 70 71 72 73 75 74 75 76 75 76 77 72 70 69 69 69 68 69 70 70 71 72 75 78
73 66 60 55 55 63 66 69 71 71 69 76 71 69 70 71 71 68 73 73 72 73 73 74 75 76 74 75 75 74 75 76 74 72 71 70 68 68 68 67 67 70 70 71
71 68 61 59 52 49 61 72 77 78 62 77 75 72 71 71 62 64 71 74 73 74 73 72 74 76 75 74 75 73 73 74 71 71 72 73 73 72 71 69 68 70 71 72
58 60 56 57 55 61 68 70 74 57 60 75 76 74 73 67 67 69 72 71 73 72 72 73 72 71 71 72 73 70 71 70 71 71 72 72 73 72 73 72 72 70 70 72
57 54 54 57 53 50 71 69 61 64 71 73 74 74 68 68 69 70 70 70 70 70 71 72 70 69 71 71 70 67 67 69 69 69 69 69 71 73 73 72 70 71 71 70
54 60 56 57 56 66 70 67 71 72 68 69 69 71 71 69 68 69 68 68 69 68 68 70 67 67 68 67 65 63 64 66 68 68 67 68 69 70 71 71 70 71 72 73
64 68 59 59 63 65 68 71 71 72 70 71 71 69 69 68 68 67 67 67 66 65 65 67 65 63 62 64 64 64 65 66 65 65 66 67 68 68 70 73 74 75 74 74
62 64 59 59 64 66 67 68 69 70 71 70 70 70 69 67 66 67 65 64 64 63 64 64 62 61 61 62 61 62 62 61 62 62 65 67 70 69 70 71 73 74 74 72
65 60 55 52 64 64 65 68 70 67 67 68 68 67 68 68 66 65 64 64 62 62 63 62 61 61 60 61 60 59 60 59 58 59 62 64 65 68 69 69 71 65 59 55

GFSCGP_sfc_temp_093.txt.gz
Temp
73 61 57 64 70 74 75 72 68 63 70 63 64 65 67 71 74 75 77 78 79 82 82 85 88 86 84 82 79 81 78 76 76 75 75 74 72 77 74 75 78 79 76 76
64 59 70 76 77 76 75 72 61 64 68 66 64 64 69 70 73 76 74 75 80 81 82 82 84 84 83 80 78 77 78 76 77 76 77 74 74 73 74 74 78 79 78 75
62 69 78 76 75 73 72 67 67 65 65 64 63 58 64 70 75 76 76 78 78 78 81 80 82 82 82 80 78 77 76 77 77 73 73 72 72 70 73 73 75 80 81 79
67 77 77 74 73 74 61 78 78 67 63 54 66 48 56 65 65 71 74 73 76 80 79 83 83 82 81 81 81 77 77 76 77 77 73 73 69 67 72 73 75 78 80 80
66 72 72 72 74 78 71 79 76 73 66 60 60 53 57 62 63 66 71 75 76 82 81 84 80 82 82 83 81 79 78 76 76 76 74 71 71 72 71 72 74 76 77 80
73 82 78 75 82 81 83 77 72 65 59 52 62 58 52 56 63 65 74 76 77 79 78 83 83 81 82 83 82 80 76 75 75 76 75 74 73 72 71 72 73 74 75 78
70 73 78 82 71 76 75 64 52 51 49 50 63 59 52 63 64 66 66 66 78 75 80 81 80 80 81 81 80 80 76 75 75 75 75 75 74 73 74 75 71 73 73 74
56 55 72 79 69 65 66 62 52 50 49 56 65 48 54 65 69 69 69 70 70 71 70 75 80 81 81 81 80 80 76 74 75 76 75 76 75 73 74 76 74 74 73 77
54 60 78 80 79 75 66 61 69 60 61 54 54 55 60 66 64 67 67 67 67 68 72 72 75 81 83 81 81 80 78 78 78 76 76 76 75 75 76 76 79 77 75 77
64 52 71 79 78 74 63 68 56 56 50 44 51 50 52 60 64 66 64 64 65 67 71 71 72 72 71 72 76 79 74 76 79 80 79 78 75 76 76 77 77 75 75 75
64 57 62 73 62 61 63 58 58 59 55 50 44 48 59 60 62 63 64 64 63 65 66 68 67 68 69 71 71 70 70 71 71 77 80 77 76 77 76 77 78 79 74 74
61 58 54 59 69 76 68 62 60 51 50 54 49 46 61 64 64 64 64 63 64 65 65 66 67 67 67 67 70 70 71 71 71 71 72 81 80 78 76 76 78 78 76 74
60 55 49 54 54 65 62 66 62 61 57 55 49 47 61 63 64 65 64 64 64 64 64 64 64 64 65 66 67 69 69 70 70 70 71 72 76 80 75 76 78 79 78 76
62 59 51 44 50 59 58 66 67 57 52 54 50 51 58 60 59 62 63 65 65 65 65 64 61 61 62 64 64 65 66 69 69 69 70 70 70 71 75 77 78 78 78 78
59 52 53 60 64 66 65 67 68 58 62 54 54 55 58 61 60 63 65 66 66 66 66 66 65 64 64 64 64 64 65 67 67 67 68 69 70 71 71 71 75 77 76 78
64 50 58 54 66 66 63 68 69 69 64 59 57 55 63 64 65 65 66 67 67 67 69 69 69 67 67 67 67 66 65 65 66 65 66 68 68 69 69 70 71 75 76 77
56 53 53 46 58 60 52 61 64 64 65 62 53 53 61 63 64 65 66 68 66 65 65 65 65 64 64 66 67 65 65 68 66 65 66 66 67 67 67 69 69 69 69 73
55 51 48 46 51 39 55 66 69 65 69 62 59 60 63 65 67 65 66 64 64 64 64 64 64 64 64 65 66 65 65 65 65 65 65 65 66 66 66 66 66 66 67 68
61 54 48 44 41 53 61 65 63 60 60 64 61 66 67 67 64 62 66 65 63 63 63 63 64 64 63 64 65 65 64 64 64 63 64 65 66 66 66 65 65 65 66 67
58 55 48 46 42 42 51 64 70 67 51 66 66 64 64 66 54 53 63 66 64 63 63 62 64 63 62 61 63 62 62 61 60 62 62 64 64 64 64 64 64 65 65 66
46 48 43 44 42 52 59 65 68 51 50 65 65 64 63 53 58 60 63 63 64 62 63 63 62 60 60 61 60 58 58 57 60 62 62 62 63 63 63 63 63 63 64 66
46 43 43 44 39 39 64 63 52 54 60 62 62 62 60 60 62 61 61 61 62 61 62 62 58 58 59 59 58 55 55 57 59 60 60 60 60 63 65 62 62 63 62 63
44 48 44 47 45 55 58 57 60 60 58 60 61 62 63 61 59 60 58 58 58 58 58 58 56 55 55 56 55 53 54 57 57 58 58 59 60 60 61 60 60 60 62 61
53 57 48 48 55 58 60 61 63 62 61 62 62 62 63 59 60 57 57 55 55 56 55 56 54 53 52 53 54 53 53 53 53 54 55 58 59 59 59 60 62 60 60 61
52 54 50 49 54 58 61 61 62 62 64 63 63 63 61 60 58 57 54 53 54 54 54 54 52 51 51 52 51 52 53 52 51 51 53 55 56 56 58 61 61 63 62 59
52 47 43 43 54 54 58 59 63 60 61 61 60 60 61 60 57 56 54 53 53 52 53 52 51 51 50 50 50 51 52 51 49 49 51 52 53 54 56 57 58 58 55 53

GFSCGP_sfc_temp_096.txt.gz
Temp
67 59 55 60 62 66 65 63 60 61 65 63 62 63 67 69 71 74 77 72 79 80 82 82 83 83 81 79 78 75 74 74 74 74 71 71 70 72 72 74 76 76 75 74
60 55 65 70 70 68 65 64 60 63 65 64 62 63 67 68 66 74 74 72 77 80 80 80 81 81 80 77 77 74 76 74 74 74 73 73 71 72 72 73 74 76 75 74
56 63 73 70 67 65 63 60 61 61 62 63 62 57 60 69 71 74 76 76 78 78 76 77 78 80 79 76 76 75 74 75 73 74 72 71 70 70 71 72 73 76 77 76
62 71 71 66 65 65 54 70 71 62 59 51 63 48 55 61 65 72 74 74 76 80 78 78 78 78 79 78 78 76 75 74 74 72 72 72 70 68 69 71 73 74 77 76
61 65 65 65 67 70 66 77 73 66 57 58 55 50 53 59 61 67 71 74 76 80 80 77 78 78 80 79 78 78 76 73 73 74 72 71 69 69 71 72 73 73 73 77
66 74 70 69 75 75 78 69 67 62 55 47 54 55 52 55 61 67 72 73 77 78 78 81 80 81 79 81 78 78 75 73 72 74 72 71 71 70 70 71 71 72 72 73
63 66 72 74 65 68 71 56 44 46 45 47 58 54 55 64 68 70 72 73 68 71 76 79 78 78 78 78 77 77 75 72 71 73 73 72 72 71 72 72 71 71 72 73
50 51 65 74 68 63 61 58 47 42 44 49 61 53 54 66 70 72 71 71 70 70 70 72 74 77 78 79 78 78 74 73 72 73 73 73 73 72 71 73 71 71 72 74
49 53 70 73 74 71 60 55 61 53 50 50 50 53 62 62 62 65 66 66 66 70 70 70 71 73 79 78 78 78 75 74 73 73 73 73 73 73 74 74 74 71 73 75
57 50 60 71 72 69 66 66 55 50 46 44 46 47 48 55 58 63 62 62 64 67 71 71 71 71 71 72 74 74 75 73 72 73 75 75 73 73 73 73 74 74 74 75
55 51 56 62 57 59 60 56 57 54 51 47 42 47 60 59 62 60 61 63 63 64 66 67 68 69 69 70 70 69 69 70 70 71 71 71 74 74 73 74 75 72 73 73
55 50 45 54 66 70 63 58 54 50 53 47 44 48 62 61 62 61 61 62 63 63 64 66 67 68 68 69 69 69 69 70 70 70 71 71 73 73 74 74 74 74 73 73
56 48 42 50 56 62 57 59 55 54 54 48 44 49 61 61 60 62 60 61 62 63 62 62 63 64 66 67 69 69 69 69 70 70 70 70 70 72 73 74 75 74 74 73
60 47 47 43 49 53 55 61 60 53 48 45 45 52 56 57 58 60 61 63 63 62 61 62 61 62 63 64 65 66 68 70 70 69 69 69 69 70 69 71 72 73 74 74
56 45 48 57 59 60 58 60 60 55 54 50 51 53 56 56 59 61 63 64 62 63 64 61 60 61 62 61 63 65 66 66 68 69 69 68 69 70 68 69 70 71 73 74
54 53 49 53 60 60 58 61 63 65 59 56 55 53 59 62 62 62 64 64 63 64 65 66 65 65 64 63 63 65 65 65 66 66 67 68 67 68 68 69 69 69 69 72
50 47 49 45 54 55 49 56 59 59 59 56 51 56 61 60 62 63 64 65 64 65 64 63 63 64 66 66 67 66 66 67 65 64 65 65 65 65 65 66 66 67 67 68
49 45 43 43 49 38 52 60 64 59 60 58 58 59 61 62 65 66 67 64 63 63 62 61 61 62 64 62 62 63 66 66 66 65 65 65 65 65 65 65 65 65 66 67
55 44 42 40 39 51 58 58 57 53 50 60 58 60 63 62 62 60 65 63 61 59 59 59 60 60 60 60 61 61 60 61 61 61 63 65 65 64 65 65 65 65 65 65
52 47 44 38 35 39 53 63 67 60 46 60 63 61 61 61 50 54 62 63 62 61 60 59 59 59 58 57 60 58 57 57 56 58 60 61 62 62 63 63 63 64 64 65
40 41 41 41 38 45 55 61 67 47 45 56 62 61 61 56 57 58 61 60 61 61 59 58 57 55 53 54 56 53 53 52 54 57 58 59 59 61 62 61 61 62 63 64
41 38 36 39 35 35 59 58 51 51 51 57 56 56 55 58 60 59 59 56 57 57 56 56 54 53 52 53 53 50 49 52 53 54 55 55 57 59 61 58 60 60 60 60
41 44 40 43 41 51 54 54 57 56 54 53 53 56 59 58 57 56 55 55 55 55 54 54 52 50 50 51 51 48 48 51 51 51 51 52 54 56 57 55 56 59 59 58
46 50 44 44 49 51 55 57 59 60 57 56 56 56 59 57 57 54 54 53 53 53 52 51 50 49 48 49 49 48 49 50 49 48 48 50 50 51 52 56 57 57 57 57
46 47 44 43 48 53 59 58 58 58 59 60 60 59 57 56 54 53 52 51 51 50 50 50 48 47 46 47 47 48 48 48 47 47 47 46 48 47 49 52 52 54 54 50
44 43 39 38 46 47 51 56 60 58 57 57 57 56 56 57 54 53 51 51 51 49 48 47 46 46 46 47 47 47 47 47 45 45 45 45 45 46 48 48 51 51 51 50

GFSCGP_sfc_temp_099.txt.gz
Temp
63 57 53 59 62 64 63 65 59 61 63 61 62 63 66 68 70 72 73 72 76 74 80 80 80 80 78 76 74 73 72 72 72 71 70 69 70 72 74 73 75 74 74 73
57 54 62 67 68 68 63 64 57 62 64 64 64 62 67 67 69 74 72 72 73 76 77 78 77 78 77 75 73 72 73 72 72 72 71 71 70 71 70 71 73 74 74 73
54 60 69 68 63 63 60 59 58 59 63 63 61 58 62 67 70 70 75 75 76 75 74 76 75 76 77 74 73 72 72 73 72 72 70 69 70 70 70 71 71 74 75 75
58 67 67 61 62 62 48 65 70 61 55 50 61 50 56 61 61 65 73 72 75 76 75 77 76 75 76 76 77 74 72 72 72 72 71 70 70 68 69 70 71 73 74 75
58 61 62 60 63 66 62 70 70 63 54 52 53 51 54 58 58 62 69 73 74 76 76 75 77 77 78 78 77 75 72 71 71 71 71 70 69 69 69 70 72 72 73 74
63 68 66 65 69 69 72 65 59 54 51 45 51 52 52 53 60 63 72 72 74 77 76 78 79 79 78 78 77 76 72 70 71 71 71 70 69 68 69 69 70 70 71 72
59 62 67 71 61 63 63 54 45 42 43 45 51 50 53 61 66 69 70 70 73 75 75 76 76 77 77 76 75 76 72 70 70 72 71 71 70 70 70 70 70 70 70 71
47 49 62 68 64 60 56 56 46 40 41 45 54 47 53 62 70 72 74 73 69 70 72 73 75 77 78 76 76 77 75 71 70 71 71 72 71 70 70 72 71 71 71 73
46 51 66 70 69 68 57 53 58 49 45 48 47 50 60 63 64 68 64 67 66 68 70 71 70 71 76 77 76 78 76 73 71 70 71 71 71 71 72 72 72 71 72 73
51 47 57 67 68 64 63 64 52 48 41 38 43 44 47 56 59 60 60 61 63 66 68 71 70 69 72 73 74 77 75 74 70 71 71 72 71 72 72 71 72 72 72 72
49 48 54 58 55 56 58 53 51 50 46 41 39 46 57 56 60 59 61 62 63 65 66 68 68 68 69 70 69 69 70 70 71 71 71 71 72 72 72 72 73 73 73 73
52 47 45 53 61 62 57 56 53 47 44 42 44 47 61 61 60 61 61 61 62 64 65 66 67 68 68 69 69 69 69 69 69 69 70 72 72 72 72 72 73 74 73 73
54 47 43 50 54 59 55 56 49 51 48 43 43 46 61 60 59 60 60 61 61 62 62 63 64 65 68 69 69 69 69 69 70 69 69 69 70 70 71 71 71 73 73 72
58 45 46 42 48 50 51 55 55 52 47 43 44 51 56 58 58 59 60 62 61 61 61 62 62 63 64 66 67 68 69 70 70 69 69 68 69 67 67 68 70 71 72 71
53 45 47 54 55 55 55 55 58 51 50 51 49 53 56 58 59 58 61 61 61 61 61 61 60 60 62 63 64 66 66 68 69 68 68 68 68 69 68 68 68 69 70 72
50 45 46 49 58 57 54 58 58 57 54 52 55 53 61 60 59 58 61 62 61 62 63 64 63 62 62 64 64 65 64 65 67 67 67 68 68 68 67 67 67 67 68 69
48 45 43 40 51 55 48 53 53 54 56 57 52 55 59 57 58 59 60 62 61 62 62 61 60 60 62 63 65 64 64 66 65 65 65 65 65 65 64 65 65 65 65 67
48 46 42 40 46 38 51 58 59 55 56 56 55 57 59 59 60 61 62 61 61 62 62 62 62 61 63 64 64 64 64 63 62 63 63 63 64 64 65 65 64 64 65 65
49 43 38 39 40 50 57 58 55 50 51 57 57 59 61 63 60 59 63 64 62 62 61 60 60 60 60 59 60 60 60 60 61 61 61 62 62 63 62 61 62 64 64 65
49 47 43 37 37 37 51 59 61 58 48 62 61 60 59 60 49 54 61 62 61 60 59 58 58 58 56 54 57 56 55 54 54 55 57 59 60 62 61 61 61 62 62 63
38 37 37 36 36 43 55 58 62 44 45 60 61 57 58 54 52 54 58 58 59 58 57 57 56 53 51 51 53 51 52 51 52 54 54 55 55 57 56 59 60 61 60 62
38 36 34 35 32 34 55 56 51 51 51 55 56 55 52 52 56 55 55 54 56 55 56 55 52 50 50 51 51 47 48 51 52 52 52 52 52 55 56 53 58 60 60 60
39 42 39 40 39 49 51 48 52 53 52 52 55 54 55 55 54 54 52 52 54 54 53 52 50 48 47 48 49 47 47 49 50 49 49 49 50 51 52 52 52 55 56 56
44 45 42 43 47 49 53 54 54 54 52 54 55 56 56 53 54 53 53 52 51 50 49 50 48 46 45 47 47 46 47 48 47 46 46 47 47 47 48 51 53 52 51 51
43 45 42 42 46 50 54 53 54 55 55 56 56 57 56 54 53 53 52 52 52 50 48 48 46 45 44 45 45 46 46 46 45 45 45 44 45 44 45 47 48 50 49 48
42 42 39 38 45 44 49 53 55 56 56 56 56 54 56 56 53 54 51 51 50 48 47 46 44 44 44 45 45 45 45 45 43 43 43 43 42 42 43 43 43 49 49 48

GFSCGP_sfc_temp_102.txt.gz
Temp
60 55 52 57 60 62 61 59 58 60 63 61 59 62 64 67 71 69 71 71 70 73 77 76 78 75 75 73 73 73 72 72 72 71 70 70 70 73 74 73 74 74 76 76
56 52 60 65 65 63 59 58 56 60 63 62 61 60 65 65 67 67 70 71 71 75 73 76 75 76 74 73 73 72 72 71 72 72 71 72 71 72 73 73 74 75 75 75
53 58 66 65 62 62 57 60 56 58 61 61 59 57 60 66 69 70 70 74 74 72 72 72 73 74 74 73 72 72 71 72 72 73 71 70 71 71 72 72 73 74 75 75
56 63 64 60 60 61 54 66 65 59 56 49 60 48 56 62 62 67 71 71 72 73 75 73 73 73 74 75 74 72 71 71 72 72 73 72 71 69 71 72 73 75 76 76
56 60 59 58 61 63 62 69 64 61 53 52 55 49 53 59 58 61 65 70 72 73 74 73 74 75 76 76 74 73 71 71 72 72 72 72 71 71 71 72 74 74 75 76
60 65 64 63 65 67 68 62 57 55 51 45 52 52 49 53 59 62 66 70 73 75 74 75 77 78 77 76 75 73 71 70 71 71 71 71 71 71 70 71 71 72 74 74
56 58 63 66 58 60 61 51 41 41 41 43 48 50 50 58 64 67 67 71 73 75 74 75 75 76 76 75 74 73 71 71 70 71 71 71 71 71 71 72 71 72 72 73
46 46 59 64 61 57 55 53 44 38 39 43 52 47 54 61 65 69 73 72 71 72 73 74 75 76 76 75 76 75 72 71 71 71 71 71 71 70 70 72 71 72 73 75
43 48 63 66 64 66 55 49 56 47 44 45 46 51 58 62 63 66 65 68 69 70 71 72 73 73 74 76 76 76 74 74 71 71 71 71 71 72 72 72 73 73 74 75
49 45 55 64 65 61 58 61 50 45 40 38 43 46 49 56 59 61 61 62 65 68 69 69 69 72 72 74 75 76 74 73 72 71 72 73 72 73 73 73 73 72 73 75
48 47 53 55 52 55 55 50 48 48 45 40 39 44 56 57 60 60 61 63 64 65 67 68 69 69 70 71 72 72 72 71 71 71 71 72 72 73 73 74 74 74 75 74
50 46 44 53 57 58 55 52 51 46 42 42 43 44 60 60 62 61 61 62 64 65 66 68 68 68 68 69 70 69 69 71 71 71 72 72 73 74 72 73 74 75 74 74
53 44 41 48 52 55 52 52 47 47 46 43 44 44 60 60 60 62 61 62 62 63 64 64 66 67 68 68 68 69 69 69 69 69 69 70 69 69 69 71 72 74 74 74
58 44 46 43 46 47 49 54 53 48 46 43 45 51 56 58 58 60 60 61 61 62 62 63 63 64 68 68 67 68 68 69 69 69 69 69 68 68 69 69 70 70 72 74
51 46 44 50 54 53 53 51 54 50 49 50 50 51 55 58 59 60 61 61 60 60 61 61 61 62 64 65 66 67 68 69 69 69 69 68 69 69 69 69 69 69 70 71
49 44 44 48 55 55 52 55 54 54 53 51 52 49 57 61 61 60 60 61 60 60 61 61 61 62 62 63 63 64 65 66 68 69 68 68 67 68 67 67 68 68 68 69
47 43 41 40 49 53 45 51 50 52 54 53 49 53 58 56 58 60 61 60 60 60 61 60 60 60 62 62 63 62 64 65 64 64 65 65 65 65 64 66 66 66 67 68
51 43 40 38 43 38 52 57 58 53 54 55 53 57 59 58 58 61 63 59 59 60 60 61 61 60 60 61 62 61 63 62 62 61 61 63 65 63 63 63 64 64 64 66
48 47 41 40 37 46 53 56 53 51 51 56 55 58 58 59 60 58 63 62 61 61 60 60 61 59 59 60 60 60 60 59 59 59 59 60 62 61 61 61 61 63 62 62
49 46 46 37 37 36 48 56 59 56 45 59 58 57 56 59 51 54 61 61 60 59 59 58 58 58 58 56 58 57 56 57 56 57 57 59 59 59 59 60 61 62 61 62
39 38 37 37 37 43 53 56 58 46 46 57 59 58 57 53 53 53 59 57 57 57 56 56 56 54 53 54 56 52 53 51 54 56 56 55 56 56 56 58 60 59 59 60
39 36 35 34 34 36 53 55 50 51 54 57 56 56 52 52 54 54 54 53 54 53 54 55 52 51 51 52 53 50 49 51 53 53 53 53 54 56 56 55 56 56 57 57
39 42 38 40 39 47 49 49 53 51 51 53 54 53 55 54 53 54 53 54 54 52 51 52 50 49 49 51 51 49 48 51 51 50 50 51 52 53 54 53 53 53 54 55
43 44 41 42 46 49 52 53 52 52 51 53 54 55 56 52 53 53 51 52 52 53 51 50 49 49 47 49 49 48 49 50 49 48 48 49 49 49 51 53 53 52 52 52
43 42 41 41 46 50 53 53 52 53 54 54 55 55 54 53 53 53 51 51 52 50 50 50 49 47 47 48 48 48 48 49 48 47 48 47 47 47 48 49 49 51 51 50
43 42 39 39 45 45 47 50 54 53 53 55 54 53 55 55 53 53 50 50 51 50 50 49 47 47 46 47 47 47 48 48 47 46 47 46 47 47 47 47 48 47 47 46

GFSCGP_sfc_temp_105.txt.gz
Temp
72 68 65 71 73 73 71 68 63 63 65 64 63 65 62 63 69 71 73 75 78 79 84 85 85 85 85 84 83 82 82 82 82 80 82 82 83 84 84 86 83 83 84 83
68 64 70 73 73 73 71 67 62 62 63 64 61 62 66 65 67 74 73 77 79 78 82 82 83 85 85 83 83 82 82 81 82 83 82 84 82 78 84 84 83 84 84 83
67 70 73 71 70 70 68 67 62 64 64 64 60 58 60 66 68 71 73 79 81 81 81 81 78 84 85 83 82 82 82 81 82 83 82 81 81 82 80 81 84 85 84 84
69 72 71 70 69 71 65 72 69 62 62 59 65 48 58 63 62 65 72 74 80 82 83 83 83 83 84 84 84 83 82 81 82 81 82 80 82 78 80 80 83 85 84 84
66 69 68 67 70 72 67 75 68 68 63 62 59 54 60 62 61 64 67 77 81 82 83 83 83 83 86 85 84 83 82 81 82 81 83 84 82 83 80 84 80 82 82 83
70 75 75 74 75 73 72 70 67 65 62 53 63 60 55 59 65 69 71 72 80 82 83 81 85 82 83 86 85 84 80 79 81 80 81 81 80 80 82 82 82 80 84 82
67 69 74 75 71 72 71 66 57 53 53 55 61 60 68 67 70 73 73 74 76 81 82 82 82 82 82 81 83 83 81 79 80 80 81 82 80 81 81 81 83 82 84 85
59 57 69 74 73 69 68 70 62 49 52 57 60 57 67 69 73 75 77 79 78 79 82 82 82 83 80 82 82 83 82 80 80 80 80 80 81 83 83 82 83 84 84 84
59 60 71 72 76 76 67 63 74 63 62 61 59 61 67 68 69 73 74 75 74 75 80 81 81 82 81 77 81 82 80 80 81 82 81 80 80 81 83 81 82 84 83 85
65 58 69 72 75 73 73 77 64 65 53 53 56 57 61 62 66 71 72 73 76 79 78 76 75 81 82 79 81 80 82 80 80 82 82 82 82 81 82 82 81 81 83 83
66 63 65 68 69 69 68 67 67 70 64 59 56 60 67 66 67 67 70 74 74 75 75 74 76 78 74 76 77 80 81 79 74 82 81 80 81 82 82 82 81 82 83 82
65 64 60 65 70 71 71 72 72 64 58 62 61 61 67 69 69 67 67 70 74 77 77 78 76 73 74 71 71 75 75 77 80 77 81 81 82 81 81 81 82 81 81 82
66 60 57 61 67 68 67 68 68 68 69 61 62 62 66 67 64 67 66 68 67 68 69 70 72 73 72 70 69 72 72 73 77 77 74 78 79 80 79 80 80 81 82 82
66 61 60 57 60 64 62 63 66 69 66 65 66 60 60 61 61 63 64 65 64 65 65 65 68 69 69 68 68 69 70 70 71 71 71 72 75 77 78 77 78 80 81 82
65 59 60 62 61 64 61 61 63 65 67 65 67 64 66 62 62 63 63 62 62 62 63 63 64 68 70 70 68 67 69 70 69 69 69 68 69 74 76 76 76 77 78 79
64 57 59 59 62 64 61 63 64 64 63 65 67 65 72 66 66 62 62 62 62 62 62 62 63 64 65 69 70 70 70 71 69 69 68 70 70 73 72 74 74 75 76 77
60 58 56 55 59 62 58 60 61 60 64 64 63 66 68 61 61 61 62 63 63 63 62 61 61 61 61 63 64 64 65 67 66 66 67 68 66 66 69 72 73 73 74 75
58 56 55 54 58 49 61 67 65 61 61 64 64 64 65 63 63 65 68 64 62 62 60 60 59 59 59 60 60 61 62 62 62 62 63 64 65 65 68 68 66 68 71 73
61 59 54 52 53 56 61 61 61 62 62 64 63 62 62 62 62 60 65 69 68 65 60 58 59 59 59 58 60 60 60 61 61 60 61 62 64 66 68 66 65 65 67 69
61 59 58 53 47 46 56 63 67 65 58 64 65 61 59 60 53 54 63 65 65 62 60 58 57 57 58 59 60 58 59 58 58 58 60 61 64 67 67 67 67 66 66 65
53 53 53 50 49 54 61 63 65 55 56 64 67 65 62 62 67 61 60 61 62 60 59 60 59 58 58 62 62 59 60 58 59 60 59 59 62 61 62 63 65 65 65 62
51 50 52 48 49 47 61 63 58 60 64 64 67 67 65 62 63 61 58 58 61 62 59 59 61 62 63 64 64 60 59 61 61 61 62 62 62 65 64 61 60 62 65 64
50 55 53 53 53 58 61 59 63 62 60 63 65 65 63 61 60 59 59 60 62 63 63 65 63 60 61 62 63 60 58 60 60 60 59 59 60 61 61 61 61 63 63 61
55 55 54 53 56 59 62 64 63 62 62 62 64 63 63 60 60 59 58 58 60 62 61 62 62 60 58 59 60 59 59 59 59 57 57 59 59 58 60 63 62 62 61 61
57 55 54 55 58 59 61 61 62 61 61 62 63 64 62 61 60 58 56 53 51 55 60 61 61 60 58 59 58 59 59 60 58 58 58 58 59 59 57 57 59 58 54 54
58 57 54 55 57 58 58 60 62 62 60 62 61 60 61 62 59 56 53 52 50 50 54 56 59 58 57 58 58 58 59 59 59 58 59 59 60 60 59 58 56 46 46 44

GFSCGP_sfc_temp_108.txt.gz
Temp
82 76 73 79 82 81 80 77 64 67 70 62 62 61 63 67 75 81 83 85 86 88 91 92 92 93 92 91 89 88 87 86 88 88 89 90 90 91 92 93 90 89 90 89
75 72 82 82 81 80 79 76 68 67 69 66 62 63 62 64 70 82 83 86 87 87 90 90 91 92 93 90 89 87 87 86 86 90 90 92 91 92 92 92 89 89 90 89
75 79 81 77 78 77 78 75 72 67 65 64 62 59 59 62 68 79 84 87 89 88 89 89 90 91 92 90 89 88 87 86 85 90 90 88 85 85 85 87 90 91 90 90
78 81 77 77 75 79 74 78 77 71 69 58 65 53 59 59 62 72 79 84 88 88 90 91 91 91 92 92 91 89 88 87 87 86 88 86 85 81 89 88 91 91 89 90
74 76 75 74 77 77 73 77 75 76 72 71 67 61 59 63 60 63 70 82 88 90 90 92 92 91 94 93 92 91 88 86 88 85 85 84 87 90 91 90 87 87 87 90
77 84 82 81 82 77 78 75 73 73 72 65 70 66 57 65 71 74 72 82 87 90 92 93 94 93 93 95 93 91 87 85 86 86 86 84 85 86 86 84 84 89 91 91
73 75 81 83 78 78 73 71 59 55 59 61 74 68 71 74 75 81 80 78 84 90 91 92 92 90 90 92 92 91 87 84 86 86 86 86 85 85 85 85 90 88 90 91
67 63 76 81 79 74 73 71 64 51 56 64 68 65 72 78 81 83 87 85 83 88 92 92 92 92 84 91 91 91 88 85 86 86 86 86 85 89 84 88 92 91 85 91
68 68 81 82 83 82 75 70 81 72 74 64 64 70 75 74 77 81 83 84 84 84 89 90 92 92 91 91 91 90 89 87 87 88 86 86 86 86 84 86 85 91 90 93
73 65 77 80 83 83 81 83 71 72 60 59 65 66 72 70 72 78 80 82 85 81 83 88 91 91 92 92 91 90 90 88 88 89 88 88 88 88 87 87 86 86 89 89
77 73 71 77 74 74 75 74 77 79 74 65 62 66 79 74 76 79 81 84 85 84 81 80 84 88 88 89 82 81 89 88 87 89 89 89 89 89 88 86 89 88 87 86
77 74 68 72 81 84 83 77 78 69 65 72 71 64 75 76 80 80 81 83 87 86 86 81 74 77 76 81 83 79 84 84 86 87 87 88 88 88 89 87 89 88 87 87
76 71 63 67 74 77 75 79 80 81 79 70 67 71 75 76 75 76 74 79 82 83 83 83 75 73 79 74 72 75 77 83 87 87 87 88 86 88 87 88 88 88 87 88
71 74 67 63 67 76 71 74 77 78 71 72 74 75 73 72 72 72 73 75 75 76 75 79 81 75 71 76 71 71 71 73 78 82 83 84 83 87 86 87 86 87 87 87
75 66 70 72 71 72 72 74 75 74 76 72 76 77 81 77 73 72 72 69 71 71 69 69 74 75 74 74 71 70 70 72 72 71 77 78 81 82 84 84 84 85 86 87
75 66 69 66 71 71 69 71 74 77 78 77 78 77 82 82 76 68 67 67 66 66 68 66 66 76 75 75 73 71 70 71 72 72 70 69 71 72 76 81 82 82 83 85
69 69 65 62 69 69 64 68 71 73 74 76 74 76 80 73 69 67 67 68 65 67 68 65 62 65 71 72 75 73 75 77 73 72 70 69 69 68 69 71 77 80 80 82
67 66 67 60 65 53 68 75 74 71 71 74 75 75 78 71 70 70 73 69 67 67 63 61 61 59 65 69 74 73 72 69 67 66 67 68 68 68 66 68 69 73 79 79
72 68 63 58 59 65 67 68 68 67 69 73 74 73 72 68 68 65 71 72 71 65 64 61 59 59 59 61 63 63 62 63 63 64 64 66 66 67 70 70 72 73 68 74
70 69 64 61 53 49 60 70 75 74 64 73 74 70 67 65 57 58 72 72 67 66 60 58 59 58 57 58 59 58 58 59 59 62 65 68 68 70 69 70 73 75 69 66
62 63 54 59 55 61 67 71 74 59 60 72 74 70 64 62 72 71 71 66 67 62 60 60 57 56 58 59 58 57 59 58 60 61 64 66 69 70 72 71 74 72 66 65
60 57 59 61 53 51 68 70 62 65 71 72 74 74 67 64 65 68 65 62 66 65 65 64 58 56 61 63 62 60 58 61 63 63 62 63 67 72 70 69 70 69 67 65
58 63 60 59 59 64 68 67 71 71 69 70 72 75 68 67 67 64 62 62 62 62 63 66 62 59 62 65 65 61 62 66 68 67 66 68 68 69 70 69 69 70 70 70
63 66 63 61 64 65 67 72 72 71 69 71 74 73 72 68 64 62 62 61 62 62 60 62 63 63 61 66 68 67 67 67 66 65 65 66 67 67 68 72 72 72 72 71
67 65 62 62 65 66 68 69 70 71 71 70 70 71 71 70 64 63 64 62 65 65 67 65 63 64 65 66 66 67 67 67 66 66 66 66 67 67 65 61 65 64 57 58
68 65 61 62 65 66 65 68 70 71 70 70 69 67 68 68 65 63 61 59 56 62 66 65 65 65 65 66 65 65 66 66 67 66 68 70 69 69 67 63 57 46 46 44

GFSCGP_sfc_temp_111.txt.gz
Temp
85 80 77 83 86 81 72 71 62 67 68 62 59 61 64 73 73 78 83 85 85 85 91 93 96 96 95 93 91 84 85 88 90 90 84 82 84 84 84 84 92 91 92 91
81 76 86 85 84 84 76 62 61 67 65 61 58 60 63 65 77 78 78 85 86 87 89 92 94 96 96 93 91 82 87 88 89 92 85 86 81 87 84 84 91 92 91 91
78 83 89 85 78 79 81 69 65 66 63 64 58 56 58 67 73 76 81 84 85 85 88 90 88 94 95 92 91 89 86 87 88 81 91 89 88 89 89 87 92 91 92 92
82 89 85 83 79 83 72 80 70 68 66 57 69 48 56 61 65 68 74 83 85 89 85 92 91 89 92 93 94 90 89 87 89 89 84 87 86 83 88 90 92 89 92 92
79 82 81 78 81 85 76 84 64 75 71 67 62 57 53 58 58 66 74 79 86 91 90 90 91 90 91 95 95 93 90 88 89 88 86 88 83 89 92 89 85 88 89 92
84 90 86 85 87 85 84 80 78 74 71 62 66 64 56 59 62 68 74 81 83 81 93 83 93 88 89 96 96 94 89 87 88 88 87 85 79 80 79 89 89 91 88 91
78 79 87 89 83 83 80 76 60 53 59 61 70 68 67 70 77 78 77 77 86 85 85 89 87 86 91 92 95 94 89 85 87 87 88 87 87 87 86 87 89 84 85 85
71 68 81 86 83 78 78 78 59 52 55 58 76 65 63 79 83 81 85 79 81 89 89 89 87 82 94 95 94 94 89 87 87 88 87 88 87 90 91 89 76 93 92 91
73 72 85 86 88 86 79 73 84 63 71 66 66 76 77 84 82 85 84 80 81 88 92 95 93 93 94 93 93 93 89 88 89 90 88 87 87 87 89 83 89 85 92 91
78 69 82 84 87 87 83 87 73 75 58 53 60 59 70 73 79 83 85 79 84 86 85 88 96 96 89 96 95 95 92 90 90 91 90 90 89 89 89 89 87 84 74 89
82 77 77 82 78 77 79 78 80 81 75 62 57 60 80 76 78 79 85 88 82 87 88 91 93 90 95 92 90 94 92 90 90 91 91 91 91 91 90 89 89 90 90 89
82 78 71 75 85 87 86 81 81 72 68 76 71 59 78 84 83 85 87 89 91 87 89 91 93 92 91 90 89 88 92 91 91 89 89 90 91 91 91 89 89 90 88 89
79 73 67 69 80 84 80 83 83 84 82 71 69 66 80 83 83 85 86 88 89 85 86 82 76 83 87 88 85 85 87 85 89 88 90 90 87 89 90 90 90 90 89 89
76 75 70 61 63 73 74 78 82 82 74 74 76 70 76 79 76 79 82 84 89 87 85 83 80 74 76 77 76 78 77 81 81 79 78 85 85 89 90 90 90 90 89 88
79 69 72 73 73 76 77 78 80 77 79 74 79 79 79 82 80 79 79 78 81 78 83 83 81 78 78 75 73 72 73 71 73 74 75 76 82 84 88 87 88 89 89 89
81 69 72 67 71 72 74 78 79 80 80 80 81 78 87 84 83 79 73 73 73 71 72 79 78 80 79 79 75 73 72 78 76 74 74 76 79 76 81 80 78 84 87 87
73 72 64 63 74 73 66 74 77 79 83 82 75 74 84 75 76 74 69 71 69 73 69 69 72 74 80 80 79 78 78 80 78 76 74 71 73 70 71 73 78 80 80 83
71 69 70 64 64 53 71 82 80 78 76 82 80 79 83 80 77 73 75 74 72 72 68 67 63 67 71 74 77 75 76 74 76 73 73 71 70 68 67 68 68 69 73 77
78 71 64 60 56 55 60 74 74 73 70 79 80 80 80 77 74 69 76 77 74 71 68 65 64 60 63 68 72 73 75 72 68 65 66 69 70 71 71 68 66 68 70 69
76 74 67 62 55 42 49 63 78 79 64 69 80 79 74 72 72 68 73 72 72 74 67 61 60 59 59 60 67 65 63 64 62 65 65 66 68 69 71 74 74 73 72 71
60 59 62 63 57 59 66 64 74 58 60 75 79 75 69 69 71 75 70 69 69 64 61 62 60 56 56 58 59 57 57 56 58 60 65 69 71 71 71 71 71 70 67 66
63 57 59 63 46 47 74 74 62 67 75 76 78 75 73 65 71 69 64 67 62 60 60 60 58 59 61 60 57 56 56 59 60 61 62 64 68 73 73 70 70 68 66 64
61 68 59 65 57 69 74 73 76 77 75 75 76 76 74 72 70 64 64 65 62 63 63 64 61 57 59 62 61 57 59 62 63 62 62 63 65 69 70 69 68 68 68 71
69 72 67 66 69 70 73 75 76 76 75 78 79 79 76 69 67 63 64 62 64 68 68 68 66 64 59 62 61 61 61 63 64 63 64 65 65 67 73 76 77 75 75 74
71 70 67 67 71 71 72 73 74 75 76 75 77 74 71 70 66 61 61 61 62 61 61 65 66 67 64 67 64 65 65 65 66 67 69 70 69 71 63 59 61 66 56 53
74 68 66 62 70 69 69 73 74 74 74 74 73 71 70 68 63 62 59 60 60 60 60 60 61 63 63 65 66 65 67 69 70 70 72 73 73 72 69 65 58 45 46 44

GFSCGP_sfc_temp_114.txt.gz
Temp
83 76 73 79 83 79 76 69 60 63 64 61 57 57 64 70 72 79 85 85 83 87 91 93 92 92 91 90 86 87 82 84 85 84 78 82 83 83 80 86 87 87 87 89
79 73 83 87 83 75 77 73 60 63 63 61 58 59 62 65 69 77 82 84 84 84 79 91 91 92 90 87 82 83 83 84 83 84 80 80 83 81 81 86 87 81 86 88
77 81 87 86 80 75 75 74 64 60 60 62 59 54 57 63 66 70 77 85 85 80 75 89 90 91 89 84 82 84 81 84 84 85 80 76 77 82 81 82 85 87 87 88
80 88 85 83 79 79 73 72 65 59 56 53 63 49 55 59 62 64 69 82 79 74 89 88 89 88 91 85 86 83 84 85 85 84 82 76 81 78 84 82 81 83 88 85
78 81 82 80 82 80 70 78 68 63 57 59 58 54 54 58 57 62 70 78 82 83 86 82 91 87 88 91 89 86 82 82 84 85 82 80 83 84 84 82 80 85 86 85
83 91 88 85 87 86 83 75 68 59 54 50 60 60 55 55 61 68 75 78 81 84 87 85 81 90 91 91 90 88 82 81 82 83 82 84 77 73 78 79 78 83 84 86
79 81 87 89 81 86 80 75 57 49 52 53 66 62 62 66 72 74 73 77 82 81 86 86 82 80 85 82 88 87 84 81 82 84 84 82 76 73 80 81 81 75 82 82
70 67 80 87 83 78 78 77 63 50 51 54 63 58 61 74 78 78 80 79 84 84 83 82 85 81 78 83 84 87 84 82 83 84 84 82 81 81 84 83 77 76 76 84
70 72 86 87 88 86 78 72 82 67 54 57 52 55 73 76 75 76 77 78 79 76 77 84 85 85 80 82 84 86 83 83 84 86 84 84 85 84 83 81 77 77 80 84
78 68 84 85 87 87 82 86 72 69 51 50 52 54 52 68 72 79 78 80 82 81 74 79 82 87 82 82 88 88 86 84 85 86 85 85 85 84 84 84 80 79 77 75
80 75 76 82 77 76 78 75 78 79 70 53 52 61 66 66 61 77 78 82 83 84 83 82 79 82 85 89 89 86 87 85 85 87 86 85 86 86 85 85 85 84 75 76
82 77 69 74 85 88 84 79 79 70 66 72 69 68 72 70 72 81 79 81 84 86 87 87 87 79 82 84 82 73 84 84 86 86 83 86 86 86 86 85 86 83 82 82
78 73 64 69 78 83 78 81 82 82 80 69 66 62 76 75 76 82 83 82 81 85 86 88 85 76 72 78 76 72 70 76 87 79 85 81 81 84 86 85 86 86 83 84
77 74 69 59 65 71 70 75 81 80 71 72 74 70 75 80 80 84 85 85 78 74 83 86 83 79 69 69 79 80 81 80 81 82 80 80 79 79 80 83 85 85 85 83
78 67 71 73 74 74 72 72 76 76 77 72 77 74 75 80 82 83 86 86 77 79 76 72 76 77 77 74 73 73 73 72 72 73 73 77 76 75 75 76 81 86 83 85
80 67 71 68 75 74 70 74 76 79 80 80 80 78 82 75 65 63 80 81 76 77 74 78 82 79 78 78 75 73 73 74 71 71 75 78 78 77 73 73 76 80 83 82
62 69 65 61 70 67 64 72 72 78 83 80 74 68 73 68 60 59 70 77 72 72 73 72 72 78 76 78 78 76 76 77 76 76 77 76 74 72 71 70 71 70 77 79
70 69 67 60 59 49 64 74 72 68 70 74 70 72 71 70 68 69 75 73 71 71 69 67 67 68 76 75 79 78 79 75 76 76 74 73 72 70 68 68 68 69 70 71
78 70 64 54 42 58 67 68 66 62 60 71 68 68 69 70 71 67 73 77 70 69 67 64 62 64 64 68 70 73 70 71 70 70 72 73 74 72 69 66 67 68 67 66
77 73 66 61 52 40 53 68 72 71 57 73 72 66 62 66 57 63 70 71 70 69 66 62 60 59 61 63 65 66 63 62 62 65 67 68 69 70 72 72 70 68 66 62
57 62 60 61 53 50 61 66 70 49 56 73 75 66 68 60 62 66 70 66 66 64 60 59 59 57 57 59 59 58 60 58 60 62 64 67 67 67 69 67 69 69 68 65
46 45 57 60 56 50 65 58 49 65 72 74 75 65 67 70 66 67 65 63 61 58 60 60 58 56 58 59 58 56 57 59 61 61 62 63 65 69 68 66 66 66 66 64
61 66 61 52 53 69 75 71 76 75 75 75 74 72 66 66 64 65 61 60 60 60 59 60 60 60 60 60 59 57 59 61 61 61 62 62 63 65 67 67 67 65 65 63
72 74 66 66 69 71 73 76 77 75 75 78 79 77 76 66 67 63 60 59 59 60 61 62 61 59 58 59 61 60 60 61 60 60 61 61 61 56 56 58 66 64 63 67
71 70 67 67 71 71 73 75 75 76 77 77 77 75 73 68 65 62 60 60 60 61 63 65 64 63 62 62 61 61 62 61 60 61 61 60 61 57 52 48 48 55 49 48
74 69 65 62 70 68 68 74 76 75 75 76 75 71 72 67 64 61 58 58 59 59 60 61 63 64 64 65 62 62 64 67 65 62 62 61 61 61 60 58 54 46 45 44

GFSCGP_sfc_temp_117.txt.gz
Temp
74 61 58 65 71 73 71 65 58 59 63 60 59 58 62 66 69 70 78 81 78 82 85 85 84 85 83 81 82 80 76 75 77 74 71 72 75 74 77 78 81 80 80 82
64 59 71 77 76 71 68 62 57 60 62 61 57 57 61 65 66 68 69 78 79 80 79 82 82 83 82 78 81 76 79 76 76 75 75 75 74 75 77 77 79 78 80 80
62 70 79 78 75 69 63 62 59 58 60 60 57 55 57 64 65 68 70 76 81 80 75 80 83 82 80 79 79 77 77 76 75 74 73 73 75 74 74 75 75 78 81 81
68 79 78 75 73 73 58 65 64 59 57 51 58 47 55 59 60 64 67 69 76 76 81 79 81 80 79 79 80 78 77 76 77 75 73 73 73 70 73 75 77 78 80 81
67 73 73 73 76 72 61 65 64 62 55 54 54 50 54 58 57 60 65 70 75 76 83 78 82 81 81 81 80 80 77 75 76 75 75 71 72 73 73 75 76 76 78 80
73 82 78 76 81 76 71 65 59 58 55 47 55 53 51 53 58 62 67 70 73 73 78 82 79 83 81 83 81 79 77 75 75 75 75 74 72 72 72 73 73 74 76 77
70 73 79 82 68 73 68 60 47 44 46 47 57 53 56 61 66 69 70 69 72 72 76 78 76 75 80 79 80 79 75 74 75 76 75 75 74 72 73 73 72 72 73 74
57 56 72 80 72 67 64 61 49 43 45 49 54 50 57 68 70 73 73 74 76 73 80 79 78 77 78 79 77 80 76 73 75 76 75 74 73 72 73 74 73 71 73 75
56 61 78 81 80 76 67 58 67 49 52 49 52 56 60 68 69 71 71 74 74 77 77 79 77 79 75 79 75 78 75 75 75 76 75 75 75 75 74 75 73 73 75 77
65 55 69 80 80 78 65 75 58 54 44 43 50 48 50 57 67 71 73 74 76 73 73 76 76 79 77 80 77 79 77 77 77 76 76 77 76 76 75 74 72 73 74 73
65 57 62 72 64 64 64 60 59 61 57 47 46 50 60 62 66 66 70 76 77 76 74 75 74 78 79 80 80 81 79 76 77 78 77 76 76 77 77 76 76 74 73 72
67 59 54 62 75 78 71 62 62 51 51 57 52 55 71 67 68 71 70 74 79 77 77 79 76 76 76 74 77 76 78 77 78 77 78 76 76 77 76 76 77 74 71 71
65 56 49 58 64 70 66 67 60 61 58 53 53 52 69 71 69 77 75 74 75 77 76 77 74 71 71 69 71 71 73 72 74 75 76 74 75 76 76 77 77 76 76 75
68 57 52 47 51 62 60 67 68 59 51 54 58 59 63 66 68 71 73 77 77 74 76 77 74 69 70 70 69 69 72 73 70 71 72 72 73 74 73 75 76 77 76 76
63 53 56 62 66 67 66 67 69 61 58 52 59 62 62 61 65 62 68 71 72 73 73 72 68 68 69 68 68 70 71 70 72 71 71 70 72 73 72 73 73 73 75 75
61 53 56 57 66 66 64 67 67 66 60 57 64 60 64 64 65 64 63 66 67 70 69 70 69 70 68 69 68 71 69 70 70 70 69 72 71 71 70 70 71 73 72 73
56 53 52 47 60 61 55 60 61 64 63 57 53 60 63 61 63 64 64 66 66 64 67 68 70 69 67 69 72 69 70 70 69 70 71 70 68 67 67 69 69 70 71 71
57 53 53 46 51 41 54 65 67 64 64 64 61 64 63 61 62 63 66 66 65 64 64 63 64 66 71 71 71 71 73 70 70 70 68 68 68 67 67 67 68 70 69 68
68 58 50 46 42 48 58 60 59 57 56 66 63 62 62 65 66 63 67 66 63 62 61 61 61 63 65 70 70 69 67 69 69 68 67 67 67 66 66 67 67 65 63 62
58 57 51 49 46 39 50 62 65 65 50 65 64 59 61 61 53 57 64 63 61 60 61 59 59 61 61 63 65 64 62 62 63 65 66 68 68 67 66 65 66 65 62 60
47 47 46 48 43 49 59 60 64 50 50 67 67 62 58 54 59 59 60 59 59 57 58 58 57 57 58 59 61 59 60 58 60 63 65 66 67 66 66 66 68 65 61 60
46 44 44 46 42 40 63 62 54 57 62 67 65 62 60 60 61 59 58 57 57 58 58 58 56 56 58 59 59 57 57 59 61 62 62 64 66 68 66 65 64 65 61 58
48 51 50 48 46 58 62 61 60 66 61 64 63 62 60 60 59 59 57 56 57 57 57 59 57 56 57 59 59 57 58 60 61 61 61 61 57 58 63 64 64 63 63 63
59 61 54 52 55 58 66 67 68 69 67 69 68 64 64 59 59 57 56 56 56 56 57 58 57 57 56 59 59 58 60 60 60 59 59 56 53 54 52 57 56 56 55 59
59 60 57 56 57 60 65 66 68 69 70 70 69 66 64 60 58 57 57 57 57 57 58 59 58 57 57 58 59 60 60 60 59 59 58 57 54 49 47 47 46 49 47 46
62 57 52 49 59 58 60 66 69 68 68 70 66 64 62 61 59 58 56 56 56 57 58 58 59 58 56 56 55 58 60 61 60 58 58 58 55 54 51 47 45 47 46 46

GFSCGP_sfc_temp_120.txt.gz
Temp
66 59 54 62 64 68 64 59 58 59 62 59 59 59 62 65 67 69 69 74 79 78 79 80 81 80 79 78 76 75 73 73 73 72 71 71 72 73 76 77 78 77 76 76
61 56 65 69 72 71 65 62 58 60 62 60 57 57 60 63 67 66 68 73 77 74 75 78 79 79 79 77 75 75 74 73 73 73 72 73 72 72 73 76 76 76 77 75
57 64 73 72 67 66 63 61 57 58 60 61 57 54 56 64 66 68 69 72 77 75 75 76 77 78 78 77 76 77 74 73 73 74 72 72 72 72 72 72 73 75 78 76
61 72 71 70 68 64 52 70 64 59 56 50 58 47 54 59 61 65 67 67 70 74 76 77 77 76 78 78 78 77 75 73 73 73 71 72 71 69 71 72 74 76 78 76
63 67 67 66 71 69 58 68 64 62 55 54 53 49 53 58 57 61 66 69 71 73 77 76 78 78 78 79 79 78 75 73 73 72 72 70 70 70 71 73 74 74 73 77
67 75 71 70 76 71 68 62 58 58 53 46 53 51 51 53 59 64 67 70 72 72 77 78 79 79 77 79 79 76 74 72 73 74 73 71 71 71 70 71 71 72 73 74
64 68 71 71 61 65 63 55 46 45 44 45 54 52 55 63 67 68 69 70 71 71 75 76 75 76 76 76 77 77 73 71 73 73 73 72 71 72 72 72 71 71 71 72
52 54 68 72 65 59 59 55 47 41 44 48 54 48 54 68 68 72 75 72 72 72 75 74 77 76 77 77 75 77 73 72 72 73 73 72 72 70 71 72 72 71 72 73
50 56 72 75 72 69 60 54 61 47 48 48 50 55 61 64 66 67 71 70 69 72 73 74 77 77 76 77 75 75 72 73 72 74 73 72 72 72 72 73 72 71 72 75
57 52 62 72 74 71 64 66 52 47 41 42 48 49 51 61 63 66 69 70 72 72 70 72 75 77 77 78 78 77 74 74 74 72 74 74 73 73 73 72 71 72 73 73
54 55 59 65 60 62 61 57 56 53 49 45 43 48 59 62 64 65 68 72 72 74 72 75 73 74 76 77 77 77 76 75 74 74 73 73 73 74 74 73 72 72 72 71
58 54 48 58 68 69 62 58 53 48 48 47 51 53 67 64 66 69 70 73 75 78 75 73 75 73 72 73 74 76 77 74 76 76 73 73 73 73 74 74 74 73 72 71
61 53 45 51 59 64 60 61 52 52 47 45 45 54 65 66 66 70 70 72 74 77 75 73 75 72 70 69 71 72 73 74 75 73 74 72 72 72 72 73 74 73 72 70
64 49 52 45 52 59 57 62 58 51 44 45 49 55 57 63 66 67 69 71 74 75 75 74 71 68 68 70 71 71 72 71 71 71 71 72 71 72 72 72 73 73 72 72
58 48 51 53 62 62 60 61 58 52 49 47 52 53 55 60 64 63 64 69 70 68 71 73 69 69 69 70 70 70 69 69 69 69 69 70 71 71 71 71 70 72 73 73
55 49 49 50 61 59 55 60 60 59 58 55 56 53 59 61 63 62 63 65 64 67 68 69 69 70 69 70 70 71 70 69 70 68 69 70 71 70 70 70 71 71 71 70
52 49 47 42 55 55 47 53 57 58 59 55 51 54 58 57 59 59 61 62 63 64 65 65 67 68 68 67 71 70 70 71 70 69 70 70 69 68 68 69 69 69 69 68
52 48 45 42 46 39 50 58 63 58 59 59 59 59 59 58 61 62 63 62 62 62 62 62 62 65 66 68 69 70 70 70 69 69 69 68 67 66 66 68 68 69 68 65
53 48 44 41 38 45 53 56 56 52 52 62 58 59 60 61 60 60 62 61 60 60 60 60 61 62 67 69 69 69 68 68 68 67 67 67 67 67 67 64 63 61 63 61
51 48 48 42 39 38 47 59 62 59 46 64 63 59 57 58 50 56 59 59 58 59 58 57 59 60 62 65 68 66 65 67 67 66 66 67 66 66 65 65 64 61 59 56
43 42 42 41 39 45 55 59 59 45 46 63 66 61 56 54 58 58 58 56 57 57 57 58 57 57 58 62 64 62 62 62 64 65 66 66 66 67 65 66 62 60 59 59
43 40 40 40 37 38 59 59 50 52 57 61 61 61 59 58 58 56 54 54 57 56 56 56 57 57 58 60 62 60 59 60 63 64 64 64 65 67 66 64 61 60 59 57
46 48 45 45 43 52 56 60 61 57 57 58 59 60 59 58 58 55 54 55 56 56 56 57 56 56 58 59 60 58 59 61 61 60 57 57 57 59 62 64 63 62 61 59
53 53 48 48 51 54 58 61 63 64 61 62 61 60 60 56 55 53 54 54 55 56 56 55 56 56 55 58 59 59 60 61 60 56 54 53 54 51 53 56 57 57 58 62
53 54 49 48 51 55 60 62 64 65 64 63 62 61 59 56 54 53 52 54 55 56 54 57 54 53 55 57 58 59 60 60 58 57 54 52 52 50 50 47 46 50 47 49
54 53 48 45 53 53 55 61 66 65 63 63 62 59 59 57 55 54 53 55 56 55 57 55 54 55 55 56 55 56 59 60 59 57 56 53 51 50 47 45 45 46 46 45

GFSCGP_sfc_temp_123.txt.gz
Temp
62 57 53 60 61 62 60 58 56 59 61 59 58 59 61 62 64 67 69 73 73 74 77 79 78 78 76 76 72 72 72 70 72 70 68 68 69 72 72 74 75 75 76 75
58 53 63 67 67 66 62 57 56 60 61 59 57 57 60 63 64 66 66 71 74 75 74 75 76 77 76 75 73 71 72 71 72 72 71 70 70 70 73 76 73 74 75 75
55 61 69 68 64 63 57 56 57 57 59 60 57 54 56 61 65 66 68 69 75 73 72 73 75 75 76 75 72 72 71 72 72 72 71 70 71 71 70 71 71 73 76 75
58 67 68 64 63 65 48 65 63 61 55 50 58 46 54 57 60 63 65 66 72 72 74 74 75 74 76 76 75 72 71 71 72 72 71 71 70 68 69 70 72 73 75 75
59 62 62 61 65 66 60 66 62 60 54 54 53 49 53 57 55 60 63 66 69 75 74 74 75 76 77 77 76 74 72 71 71 71 71 70 69 69 70 70 72 72 72 74
64 70 67 66 70 71 67 59 59 57 53 43 53 51 52 53 58 62 66 70 69 72 74 76 78 77 77 78 77 74 72 71 71 71 70 70 70 70 69 69 70 71 71 72
63 63 64 68 60 63 60 50 44 44 43 42 52 50 54 62 64 66 65 70 70 73 75 74 74 74 74 75 75 74 72 70 70 72 72 71 71 70 71 70 69 69 70 70
53 52 61 70 62 57 56 54 49 41 42 46 53 48 54 67 71 71 71 72 70 71 76 73 74 74 74 75 74 75 72 72 70 72 71 70 71 70 70 71 70 70 71 72
53 56 68 70 67 65 57 51 57 49 46 44 49 56 62 65 67 68 69 70 69 71 73 73 75 75 74 75 74 75 72 71 70 71 71 71 70 70 70 71 71 70 71 73
55 51 60 68 70 67 61 64 50 49 41 38 47 49 50 59 60 63 67 68 69 70 70 71 74 75 75 76 75 75 72 73 73 71 72 72 71 71 70 71 71 71 71 73
52 52 57 62 56 58 58 53 50 50 47 43 44 47 57 60 61 62 65 69 70 71 70 73 71 75 75 76 75 74 73 73 71 71 71 71 71 71 72 72 71 70 72 71
61 50 47 55 63 67 64 55 51 48 46 45 49 51 63 62 63 66 66 70 73 73 73 72 73 70 72 74 74 75 74 73 75 74 71 71 71 71 72 72 72 70 71 71
59 49 46 48 53 64 58 57 47 47 45 45 47 52 61 64 64 64 66 70 71 73 75 72 71 69 70 71 71 72 72 73 74 72 72 70 70 70 71 71 72 71 71 71
62 49 53 43 47 52 53 56 54 47 44 42 44 50 55 58 60 62 66 69 71 72 76 74 73 69 70 69 69 72 72 72 72 72 71 71 70 70 70 71 71 71 70 70
57 48 52 50 57 58 56 55 56 50 46 44 49 49 53 57 58 61 62 66 68 68 68 70 71 68 68 69 69 71 69 70 71 71 71 70 70 70 70 71 71 72 71 71
53 47 47 49 57 57 53 56 57 56 54 53 52 50 56 58 61 60 60 63 63 66 68 68 69 68 68 69 70 70 69 68 69 70 69 68 69 69 68 68 69 69 69 70
50 47 44 41 50 51 46 52 54 54 55 52 47 51 59 59 59 59 60 61 62 63 64 64 66 67 68 68 70 69 69 69 68 68 69 69 69 68 68 68 68 68 69 67
49 45 41 41 43 37 48 56 59 56 56 57 56 56 59 60 60 60 61 61 61 61 61 62 63 65 65 67 69 69 69 68 68 67 68 68 68 67 67 68 67 68 68 64
48 45 41 40 35 44 52 55 53 50 51 58 56 58 58 59 59 58 60 60 59 59 60 59 61 63 67 67 68 68 68 68 68 68 68 67 67 67 67 65 63 61 62 60
49 46 45 38 38 37 47 56 59 56 44 60 59 56 57 56 50 53 58 58 59 59 58 58 59 60 61 66 68 67 67 67 67 68 67 67 67 66 65 63 60 58 56 54
41 41 40 39 38 44 52 56 57 44 45 57 61 58 54 52 53 56 57 56 58 57 57 58 58 57 59 62 67 64 64 64 66 67 67 67 66 66 65 63 61 59 58 57
43 40 38 38 36 38 57 56 49 51 53 57 58 57 56 58 57 55 55 56 57 56 57 57 57 58 58 61 62 61 59 62 64 65 65 65 66 66 65 62 60 59 58 56
44 47 44 43 42 51 53 53 55 55 57 56 56 58 58 59 57 55 52 54 56 56 56 57 56 57 58 59 61 59 60 61 61 60 58 57 57 59 63 61 60 58 56 56
49 49 46 48 49 52 56 59 59 59 59 60 59 58 57 55 56 55 52 53 55 56 56 57 56 55 56 58 59 59 60 58 57 55 53 53 52 52 52 52 55 60 61 60
51 52 47 46 49 53 58 58 60 61 62 62 60 59 57 54 52 51 50 52 55 56 56 56 54 54 55 56 57 59 59 58 55 54 53 54 52 52 48 46 47 51 50 52
52 50 47 45 53 53 55 60 62 60 60 61 60 57 56 55 52 51 50 51 52 55 56 54 54 53 53 56 55 56 57 59 57 53 53 50 49 49 48 48 47 46 45 45

GFSCGP_sfc_temp_126.txt.gz
Temp
59 55 53 56 59 60 58 56 54 58 61 59 57 59 60 63 64 66 69 72 70 72 75 75 76 75 74 73 72 71 70 70 71 70 69 69 70 71 73 73 76 75 75 75
56 52 59 64 62 61 60 56 55 59 60 59 57 57 60 62 63 64 66 70 71 71 70 75 74 74 73 73 71 70 70 70 71 71 71 71 71 71 74 75 75 75 76 75
53 59 67 65 61 59 54 55 54 57 59 61 58 54 56 60 62 64 67 70 71 71 70 71 72 73 73 72 71 70 70 71 71 72 71 71 72 71 72 72 73 75 76 77
56 64 66 60 60 60 49 64 62 59 55 50 58 46 53 57 59 62 66 66 67 72 73 73 73 72 73 73 73 71 71 70 72 72 71 71 71 70 70 72 73 75 77 77
58 59 59 59 62 64 58 64 61 60 53 53 53 48 53 55 55 59 63 65 66 72 73 72 73 75 75 75 73 72 70 70 71 71 72 71 70 71 71 72 73 73 75 75
62 66 64 64 65 67 65 59 55 53 52 44 52 50 50 52 56 61 63 67 67 70 73 73 75 77 74 75 74 72 71 70 71 71 71 71 71 70 70 71 71 73 73 74
57 59 61 65 57 62 58 49 41 39 42 42 49 48 53 60 62 65 65 66 68 71 73 72 72 74 73 73 74 72 71 70 70 71 71 71 71 71 71 71 71 71 72 73
49 49 58 65 58 55 54 50 42 38 42 44 51 47 54 64 67 69 73 70 69 69 73 73 74 74 73 74 73 74 71 71 70 71 71 71 71 72 71 72 72 72 73 74
46 52 65 66 65 63 56 50 53 46 48 43 46 53 62 63 63 67 68 69 68 70 72 73 74 74 74 74 73 73 71 72 71 71 71 71 71 72 71 72 73 72 73 75
55 50 62 66 68 63 59 61 48 47 43 40 46 48 50 56 60 64 66 67 70 71 72 73 75 74 74 76 75 75 73 73 73 72 72 73 72 72 72 73 72 73 73 74
53 55 57 61 57 57 55 52 48 50 46 42 42 46 57 55 59 63 66 69 70 71 73 73 74 73 74 75 74 74 73 72 72 72 72 72 73 73 72 73 73 73 73 73
57 53 50 52 63 62 56 50 50 48 48 44 47 49 62 59 62 64 65 68 71 72 72 73 75 71 70 71 72 72 73 73 74 73 72 72 72 73 73 73 74 73 72 73
57 50 46 51 54 58 54 52 44 47 47 44 46 50 63 61 61 64 64 66 68 70 68 68 69 69 70 71 71 71 72 72 74 72 73 71 72 72 72 73 73 73 72 73
61 48 47 44 50 51 50 53 52 47 44 42 44 49 55 58 59 61 62 68 68 67 67 67 67 68 68 70 71 71 72 72 72 72 72 71 71 71 72 73 73 73 73 73
58 48 51 54 55 55 53 53 54 48 46 44 48 49 53 56 57 60 62 64 67 66 65 65 67 69 68 69 70 71 72 71 72 71 71 71 72 72 71 71 72 73 73 73
52 49 47 48 57 54 51 54 55 54 53 52 51 50 60 60 61 60 61 63 63 66 66 66 68 68 68 69 69 70 71 71 72 71 71 71 71 71 71 71 71 71 72 72
49 46 44 41 49 52 47 50 52 52 53 53 48 53 60 59 59 58 60 62 62 63 64 65 65 67 67 68 70 69 70 70 71 70 70 70 70 70 70 70 70 70 70 70
47 43 41 40 42 36 47 57 59 55 55 56 55 58 58 59 59 59 60 60 60 61 62 63 63 65 67 69 69 68 69 69 68 68 68 68 68 68 69 69 69 69 70 69
47 44 39 40 36 43 50 54 53 51 51 58 56 58 58 60 59 58 60 60 59 59 59 59 61 62 66 68 68 69 68 68 68 67 68 68 68 67 68 66 65 65 64 61
46 44 45 37 37 37 46 55 58 56 45 59 59 57 56 55 50 52 57 58 59 59 58 58 59 60 62 64 68 67 67 67 66 67 67 67 67 67 65 63 62 59 57 55
40 39 40 38 37 44 52 56 57 44 45 57 60 57 55 52 55 57 58 57 58 58 57 59 59 58 59 63 66 65 66 66 66 68 67 67 66 65 63 61 59 58 57 57
43 39 37 37 36 39 56 55 50 52 53 57 58 57 57 58 57 56 56 57 58 57 57 58 57 57 59 61 63 62 62 64 66 66 66 66 66 65 63 60 58 57 57 57
43 46 43 43 43 50 53 55 56 56 57 57 57 57 60 59 58 56 55 56 57 56 57 58 57 57 58 59 61 61 61 62 61 61 61 60 60 63 62 60 57 55 55 57
47 48 46 47 48 51 55 57 59 59 58 58 58 57 57 57 59 55 53 53 56 57 56 57 57 55 55 57 58 59 58 59 58 56 55 55 55 55 55 54 57 56 55 55
49 50 46 46 49 53 57 59 60 61 61 59 59 58 56 55 55 53 52 52 53 55 56 56 56 55 56 57 57 58 57 57 55 54 53 53 53 53 51 47 48 50 48 48
50 49 47 45 53 54 55 59 62 60 60 60 59 57 56 55 53 53 52 52 53 54 55 55 55 55 56 57 57 57 58 58 55 53 53 50 50 49 49 48 45 45 44 44

GFSCGP_sfc_temp_129.txt.gz
Temp
72 70 68 71 71 70 69 66 62 62 65 64 61 61 62 64 63 67 72 78 79 80 85 85 85 85 84 83 82 81 80 80 80 80 80 81 82 83 84 85 84 84 84 83
69 67 72 72 71 69 68 65 62 64 63 65 62 62 62 64 67 72 72 77 79 81 82 82 83 84 84 82 82 80 80 79 80 82 82 83 83 84 85 85 84 85 85 85
67 71 73 73 70 68 66 65 65 65 64 62 61 61 60 63 63 68 74 77 80 81 81 82 82 83 84 82 81 80 80 79 80 82 82 81 81 79 80 80 84 85 85 84
70 73 71 71 70 72 65 71 68 63 63 58 64 50 60 65 64 64 72 75 78 80 82 83 82 82 83 83 83 81 80 80 81 81 82 80 83 82 83 84 81 85 84 84
68 69 69 68 71 73 68 71 67 66 62 60 56 56 61 64 62 63 67 74 79 81 83 82 83 84 85 84 83 83 80 79 81 80 82 83 82 85 84 84 81 82 83 85
72 75 74 74 73 76 72 67 64 64 61 53 61 59 62 58 65 69 71 74 78 81 82 83 85 85 84 84 84 82 80 78 80 80 81 81 81 81 82 82 83 85 85 86
68 70 73 74 69 72 72 67 55 51 52 53 60 56 64 69 71 74 72 73 77 81 82 82 81 82 82 81 82 82 79 78 80 80 81 81 82 81 80 81 83 83 84 85
62 60 69 73 73 68 69 70 60 48 51 56 58 55 66 72 76 77 78 78 75 79 83 82 82 83 82 82 82 82 80 79 80 80 80 81 81 85 85 83 85 85 86 87
60 63 70 72 72 74 65 63 67 58 59 55 61 63 69 73 72 73 74 74 74 76 80 82 82 83 83 83 82 82 80 80 81 82 81 80 81 82 83 82 83 85 84 86
67 61 69 71 74 71 71 72 60 61 50 50 59 59 60 63 65 69 72 72 75 73 78 81 82 83 83 85 85 84 83 81 82 83 82 83 83 82 83 83 82 83 81 82
70 65 65 70 67 67 65 66 66 64 62 55 55 60 65 62 65 65 72 73 75 72 76 76 80 83 83 85 84 83 82 81 81 82 82 83 83 83 82 82 83 83 83 82
68 69 64 65 70 71 70 67 70 63 58 60 59 62 68 66 68 71 73 76 78 78 76 75 77 80 80 81 82 81 83 82 83 83 81 82 82 83 83 82 83 82 82 83
70 64 60 61 68 69 64 65 65 66 65 58 59 62 70 67 68 70 71 74 77 78 78 74 71 74 75 80 81 80 81 82 83 82 82 82 82 81 82 82 83 83 81 81
69 63 59 59 59 63 61 63 63 67 64 61 61 60 65 62 61 65 69 73 76 75 74 69 68 70 70 76 79 80 81 82 81 82 82 81 81 82 83 82 82 82 81 81
71 60 61 62 62 63 61 63 64 62 62 61 59 59 62 60 60 62 66 70 73 71 67 67 66 66 68 70 78 78 74 78 81 80 80 80 81 81 82 81 80 81 80 80
67 59 61 58 63 63 60 62 62 62 62 61 61 60 63 63 63 62 62 64 71 71 65 65 65 66 66 67 70 75 73 78 74 78 79 80 80 80 79 80 80 80 80 80
64 62 59 55 58 61 57 59 60 61 62 63 61 62 64 61 61 59 60 61 62 69 69 67 68 67 67 67 71 76 74 73 72 74 78 78 77 75 79 79 79 78 78 79
62 59 60 58 57 48 59 65 64 62 62 64 64 64 61 60 62 61 60 59 59 60 62 64 65 67 67 69 70 72 73 71 71 71 74 75 75 75 78 77 78 78 78 75
64 62 56 55 53 55 59 63 63 62 62 66 65 65 65 66 65 60 60 60 59 59 59 60 62 64 63 65 70 70 72 73 71 71 72 72 72 69 69 69 70 70 71 70
64 61 62 55 51 47 59 63 68 67 58 67 68 66 65 65 62 62 58 62 61 61 60 59 60 61 62 64 69 70 69 69 68 68 71 70 71 68 70 66 65 63 62 63
58 58 57 56 54 57 63 65 67 55 59 68 69 67 66 64 63 60 61 62 64 62 61 61 61 60 61 63 67 68 68 68 71 71 69 71 69 68 65 63 60 59 58 58
58 56 56 53 51 50 66 63 59 65 66 69 68 65 62 60 59 61 61 62 63 62 63 62 59 59 60 63 67 67 68 69 70 72 71 69 66 64 62 60 58 58 59 57
56 61 61 60 61 61 66 66 69 69 69 68 68 66 66 64 63 61 60 63 63 62 62 62 59 59 59 60 62 63 62 65 65 61 60 63 65 63 62 59 58 56 55 56
60 60 62 58 60 63 66 69 70 70 71 71 71 68 67 66 65 62 62 64 64 63 63 63 61 59 58 58 58 57 58 61 60 59 58 57 56 55 55 57 59 57 55 52
64 60 60 60 62 63 66 69 71 70 70 69 69 68 67 66 63 63 62 62 63 62 63 62 59 58 58 58 57 58 57 57 55 54 54 53 54 52 49 46 49 51 49 53
64 63 62 63 68 68 69 71 72 70 69 69 68 66 66 66 65 64 62 62 63 63 63 62 63 60 60 60 58 59 58 58 55 53 52 51 51 51 50 49 47 45 45 45

GFSCGP_sfc_temp_132.txt.gz
Temp
83 78 75 80 82 80 78 74 70 72 73 72 71 70 71 71 68 66 74 84 87 88 92 92 92 92 92 91 88 87 84 83 86 86 87 88 89 89 91 92 90 89 91 89
77 74 83 82 80 78 77 73 70 72 73 72 70 70 71 71 69 66 70 80 87 90 91 91 91 92 91 89 88 85 84 84 86 88 89 90 90 91 92 92 90 91 91 90
76 80 81 79 77 76 77 74 72 71 72 74 70 68 67 69 71 67 77 83 89 90 90 90 89 91 91 89 88 86 86 85 86 88 89 87 86 85 88 89 91 91 90 91
78 82 78 78 77 79 74 79 74 70 70 66 73 65 68 67 68 67 80 82 88 90 91 91 91 90 91 90 90 88 86 85 85 87 87 86 87 86 90 90 91 91 91 90
75 75 76 75 77 81 75 79 76 74 72 71 72 66 69 68 69 71 76 83 88 90 91 91 91 91 93 92 91 89 87 84 86 86 87 84 87 90 91 91 87 89 88 90
78 84 82 81 83 82 81 77 74 74 73 64 72 70 68 70 72 78 80 83 87 91 92 92 93 93 93 93 92 90 86 84 85 85 85 84 86 88 89 88 88 91 92 91
76 77 83 83 77 81 79 76 65 62 63 63 72 68 72 77 80 82 82 82 83 90 92 92 91 91 91 90 90 90 86 83 85 86 87 86 86 86 85 86 89 90 92 93
69 65 77 83 79 76 76 77 68 52 55 59 69 62 72 81 82 85 87 89 82 87 93 93 91 91 90 90 89 89 87 84 85 86 86 86 85 84 89 88 92 91 93 93
72 69 82 82 85 82 77 71 82 68 69 66 71 73 78 82 79 81 83 85 82 84 90 92 92 91 91 90 89 89 87 86 86 87 86 86 86 86 90 89 88 90 90 94
76 67 78 78 81 82 79 84 69 72 54 53 66 69 69 72 74 77 79 82 83 81 79 91 92 92 92 93 92 91 89 87 88 88 88 88 88 87 87 87 86 88 89 88
80 76 71 77 74 74 75 74 75 75 69 53 56 59 75 70 74 76 79 83 80 81 79 89 91 92 92 93 92 91 90 88 88 89 88 88 89 89 88 85 86 86 86 88
80 79 69 73 78 79 79 73 75 64 56 68 52 65 77 74 76 79 80 81 84 75 78 85 87 89 90 90 91 89 90 89 89 90 88 88 89 89 90 88 89 89 85 88
80 75 66 69 75 77 75 77 78 79 55 51 63 64 78 76 74 77 78 81 81 81 72 77 80 78 83 89 89 89 88 89 90 89 89 88 88 89 88 89 89 89 88 87
75 77 70 62 67 73 69 73 75 76 69 69 69 71 74 73 69 70 74 78 82 81 81 73 74 72 81 76 85 86 88 89 88 89 89 87 87 88 89 89 88 88 88 87
79 69 72 72 73 73 72 71 73 72 73 69 68 69 71 68 65 64 67 73 78 75 73 73 77 73 72 72 77 81 83 87 88 86 86 86 87 88 88 87 87 87 87 87
79 69 71 67 71 72 71 71 69 72 73 73 72 69 70 68 67 62 63 66 77 77 76 71 68 71 71 73 69 74 82 80 81 84 84 86 85 85 85 85 85 85 85 85
73 73 67 61 69 68 64 71 71 70 72 73 69 70 70 65 63 59 60 60 60 63 73 74 71 68 68 68 68 68 78 82 80 81 76 78 79 78 82 84 82 84 84 85
71 69 70 64 66 53 68 74 73 71 71 73 72 72 71 69 66 64 62 60 59 59 60 62 69 71 72 71 69 69 70 75 78 76 80 75 80 78 80 80 81 75 81 82
78 72 67 61 62 66 68 70 71 69 71 74 74 73 73 74 72 66 68 66 63 61 60 61 63 66 69 69 68 69 69 71 75 71 78 79 80 76 78 75 79 76 78 76
74 73 68 65 57 53 67 72 76 76 64 77 76 74 74 75 72 68 69 69 69 68 65 63 67 65 66 65 67 70 69 69 69 76 76 73 73 71 71 73 73 69 68 66
66 67 63 64 60 66 72 74 76 60 65 75 77 75 75 73 73 70 71 71 71 70 71 70 67 62 63 64 66 68 69 69 71 71 74 74 75 72 73 73 71 69 65 62
64 63 64 64 59 55 75 72 66 71 75 76 75 74 72 71 70 71 69 71 71 68 69 69 66 63 63 64 66 68 68 71 73 75 74 73 68 67 64 61 60 60 61 59
63 69 67 66 66 71 76 74 77 78 76 75 75 76 75 71 71 71 71 72 72 69 68 68 65 63 61 61 63 62 63 68 66 66 65 66 66 65 68 64 59 58 58 56
71 72 69 66 72 72 75 77 78 79 78 79 79 77 77 75 73 70 73 73 70 71 69 68 65 63 59 60 59 60 62 64 66 64 65 64 62 60 61 60 61 58 57 57
73 70 70 69 71 72 74 77 78 78 79 78 78 77 76 76 73 73 72 70 70 68 67 65 62 62 60 59 59 59 59 61 58 59 60 59 58 55 53 49 50 53 51 53
74 72 69 69 75 74 75 78 80 77 76 77 76 75 76 76 73 72 71 71 71 70 68 67 64 63 63 61 61 61 60 59 56 55 55 54 53 52 52 50 49 45 45 44